<?xml version="1.0" encoding="UTF-8" standalone="no" ?>
<gpx xmlns="http://www.topografix.com/GPX/1/1" xmlns:xsi="http://www.w3.org/2001/XMLSchema-instance" xsi:schemaLocation="http://www.topografix.com/GPX/1/1 http://www.topografix.com/GPX/1/1/gpx.xsd" version="1.1" creator="VisuGPX - https://www.visugpx.com">
  <metadata>
    <name>Echappée Jurassienne Port-Lesney/ Baud</name>
    <desc><![CDATA[Allez savoir pouquois, je choisis de suivre le Chemin des Gabelous plutôt que le GR 59A, je ne saurais jamais si cela fut judicieux. Départ de Port-Lesney, rue edgar faure par la droite, traverser le Pont sur la Loue, et balisage PR(jaune) à droite le sentier remonte la rivière, et je passe difficilement les endroits inondés, pieds mouillés au frais pour la journée. Traversée de Rennes-sur-Loue, puis une pente douce vers La-Chapelle-sur-Furieuse, plus marquée vers Onay et cela continue jusque Salins-les-Bains, ou il faut descendre. Personnellement j'ai choisi de m'arrêter au hameau de Baud, Chalet des Amis de la Nature, il faut donc remonter 150 m plus haut après avoir fait quelques emplettes pour le repas du soir et le PdJ. ]]></desc>
  </metadata>
  <trk>
    <name><![CDATA[Jura C Port Lesney Baud 3juin]]></name>
    <trkseg>
      <trkpt lat="47.00201" lon="5.82395">
        <ele>250.08</ele>
        <time>2016-06-03T06:38:04Z</time>
      </trkpt>
      <trkpt lat="47.00203" lon="5.82399">
        <ele>262.58</ele>
        <time>2016-06-03T06:38:30Z</time>
      </trkpt>
      <trkpt lat="47.00209" lon="5.82394">
        <ele>260.17</ele>
        <time>2016-06-03T06:38:46Z</time>
      </trkpt>
      <trkpt lat="47.00212" lon="5.82392">
        <ele>259.69</ele>
        <time>2016-06-03T06:38:50Z</time>
      </trkpt>
      <trkpt lat="47.00225" lon="5.82389">
        <ele>258.73</ele>
        <time>2016-06-03T06:39:03Z</time>
      </trkpt>
      <trkpt lat="47.00236" lon="5.82386">
        <ele>257.77</ele>
        <time>2016-06-03T06:39:15Z</time>
      </trkpt>
      <trkpt lat="47.00248" lon="5.82382">
        <ele>257.29</ele>
        <time>2016-06-03T06:39:26Z</time>
      </trkpt>
      <trkpt lat="47.0026" lon="5.8238">
        <ele>254.89</ele>
        <time>2016-06-03T06:39:38Z</time>
      </trkpt>
      <trkpt lat="47.00275" lon="5.82377">
        <ele>252.96</ele>
        <time>2016-06-03T06:39:50Z</time>
      </trkpt>
      <trkpt lat="47.00284" lon="5.82374">
        <ele>252.96</ele>
        <time>2016-06-03T06:39:56Z</time>
      </trkpt>
      <trkpt lat="47.00299" lon="5.82369">
        <ele>251.04</ele>
        <time>2016-06-03T06:40:06Z</time>
      </trkpt>
      <trkpt lat="47.00304" lon="5.82368">
        <ele>250.08</ele>
        <time>2016-06-03T06:40:12Z</time>
      </trkpt>
      <trkpt lat="47.0031" lon="5.82374">
        <ele>249.6</ele>
        <time>2016-06-03T06:40:18Z</time>
      </trkpt>
      <trkpt lat="47.0033" lon="5.8237">
        <ele>250.08</ele>
        <time>2016-06-03T06:40:32Z</time>
      </trkpt>
      <trkpt lat="47.00336" lon="5.82368">
        <ele>249.12</ele>
        <time>2016-06-03T06:40:38Z</time>
      </trkpt>
      <trkpt lat="47.00351" lon="5.82366">
        <ele>250.56</ele>
        <time>2016-06-03T06:40:51Z</time>
      </trkpt>
      <trkpt lat="47.00359" lon="5.82364">
        <ele>250.08</ele>
        <time>2016-06-03T06:40:59Z</time>
      </trkpt>
      <trkpt lat="47.00367" lon="5.82362">
        <ele>250.56</ele>
        <time>2016-06-03T06:41:05Z</time>
      </trkpt>
      <trkpt lat="47.00372" lon="5.82362">
        <ele>249.12</ele>
        <time>2016-06-03T06:41:11Z</time>
      </trkpt>
      <trkpt lat="47.00389" lon="5.8236">
        <ele>252.96</ele>
        <time>2016-06-03T06:41:23Z</time>
      </trkpt>
      <trkpt lat="47.00401" lon="5.82359">
        <ele>253.44</ele>
        <time>2016-06-03T06:41:31Z</time>
      </trkpt>
      <trkpt lat="47.00417" lon="5.82357">
        <ele>252.96</ele>
        <time>2016-06-03T06:41:46Z</time>
      </trkpt>
      <trkpt lat="47.00431" lon="5.82355">
        <ele>250.08</ele>
        <time>2016-06-03T06:41:59Z</time>
      </trkpt>
      <trkpt lat="47.00438" lon="5.82354">
        <ele>249.6</ele>
        <time>2016-06-03T06:42:05Z</time>
      </trkpt>
      <trkpt lat="47.00448" lon="5.82353">
        <ele>250.56</ele>
        <time>2016-06-03T06:42:13Z</time>
      </trkpt>
      <trkpt lat="47.00456" lon="5.82351">
        <ele>252.48</ele>
        <time>2016-06-03T06:42:17Z</time>
      </trkpt>
      <trkpt lat="47.0046" lon="5.82351">
        <ele>251.04</ele>
        <time>2016-06-03T06:42:21Z</time>
      </trkpt>
      <trkpt lat="47.00473" lon="5.82352">
        <ele>251.52</ele>
        <time>2016-06-03T06:42:31Z</time>
      </trkpt>
      <trkpt lat="47.00483" lon="5.82357">
        <ele>253.44</ele>
        <time>2016-06-03T06:42:41Z</time>
      </trkpt>
      <trkpt lat="47.00484" lon="5.82368">
        <ele>252</ele>
        <time>2016-06-03T06:42:48Z</time>
      </trkpt>
      <trkpt lat="47.00485" lon="5.82378">
        <ele>250.08</ele>
        <time>2016-06-03T06:42:54Z</time>
      </trkpt>
      <trkpt lat="47.00487" lon="5.8239">
        <ele>248.64</ele>
        <time>2016-06-03T06:43:01Z</time>
      </trkpt>
      <trkpt lat="47.00488" lon="5.82403">
        <ele>246.23</ele>
        <time>2016-06-03T06:43:09Z</time>
      </trkpt>
      <trkpt lat="47.00489" lon="5.82407">
        <ele>245.75</ele>
        <time>2016-06-03T06:43:11Z</time>
      </trkpt>
      <trkpt lat="47.00491" lon="5.82421">
        <ele>244.79</ele>
        <time>2016-06-03T06:43:19Z</time>
      </trkpt>
      <trkpt lat="47.00496" lon="5.82448">
        <ele>246.23</ele>
        <time>2016-06-03T06:43:35Z</time>
      </trkpt>
      <trkpt lat="47.00496" lon="5.8245">
        <ele>245.75</ele>
        <time>2016-06-03T06:43:36Z</time>
      </trkpt>
      <trkpt lat="47.00504" lon="5.82472">
        <ele>246.72</ele>
        <time>2016-06-03T06:43:50Z</time>
      </trkpt>
      <trkpt lat="47.00508" lon="5.8249">
        <ele>245.75</ele>
        <time>2016-06-03T06:44:02Z</time>
      </trkpt>
      <trkpt lat="47.00513" lon="5.82499">
        <ele>246.72</ele>
        <time>2016-06-03T06:44:08Z</time>
      </trkpt>
      <trkpt lat="47.00514" lon="5.82514">
        <ele>246.72</ele>
        <time>2016-06-03T06:44:21Z</time>
      </trkpt>
      <trkpt lat="47.00514" lon="5.82526">
        <ele>247.2</ele>
        <time>2016-06-03T06:44:27Z</time>
      </trkpt>
      <trkpt lat="47.00514" lon="5.82532">
        <ele>246.72</ele>
        <time>2016-06-03T06:44:30Z</time>
      </trkpt>
      <trkpt lat="47.0051" lon="5.82552">
        <ele>246.23</ele>
        <time>2016-06-03T06:44:42Z</time>
      </trkpt>
      <trkpt lat="47.00506" lon="5.82567">
        <ele>244.79</ele>
        <time>2016-06-03T06:44:54Z</time>
      </trkpt>
      <trkpt lat="47.00505" lon="5.82568">
        <ele>244.79</ele>
        <time>2016-06-03T06:44:55Z</time>
      </trkpt>
      <trkpt lat="47.00495" lon="5.82585">
        <ele>245.27</ele>
        <time>2016-06-03T06:45:08Z</time>
      </trkpt>
      <trkpt lat="47.00495" lon="5.82586">
        <ele>245.27</ele>
        <time>2016-06-03T06:45:11Z</time>
      </trkpt>
      <trkpt lat="47.00493" lon="5.82587">
        <ele>245.27</ele>
        <time>2016-06-03T06:45:13Z</time>
      </trkpt>
      <trkpt lat="47.00486" lon="5.82594">
        <ele>244.31</ele>
        <time>2016-06-03T06:45:21Z</time>
      </trkpt>
      <trkpt lat="47.00472" lon="5.82603">
        <ele>244.31</ele>
        <time>2016-06-03T06:45:34Z</time>
      </trkpt>
      <trkpt lat="47.00466" lon="5.82607">
        <ele>244.79</ele>
        <time>2016-06-03T06:45:40Z</time>
      </trkpt>
      <trkpt lat="47.00462" lon="5.82609">
        <ele>244.79</ele>
        <time>2016-06-03T06:45:44Z</time>
      </trkpt>
      <trkpt lat="47.00443" lon="5.82624">
        <ele>245.27</ele>
        <time>2016-06-03T06:46:00Z</time>
      </trkpt>
      <trkpt lat="47.00439" lon="5.82627">
        <ele>244.31</ele>
        <time>2016-06-03T06:46:04Z</time>
      </trkpt>
      <trkpt lat="47.00425" lon="5.82637">
        <ele>242.39</ele>
        <time>2016-06-03T06:46:16Z</time>
      </trkpt>
      <trkpt lat="47.00414" lon="5.82647">
        <ele>240.95</ele>
        <time>2016-06-03T06:46:27Z</time>
      </trkpt>
      <trkpt lat="47.00405" lon="5.82657">
        <ele>238.54</ele>
        <time>2016-06-03T06:46:41Z</time>
      </trkpt>
      <trkpt lat="47.00395" lon="5.82672">
        <ele>239.99</ele>
        <time>2016-06-03T06:46:53Z</time>
      </trkpt>
      <trkpt lat="47.00384" lon="5.82689">
        <ele>239.99</ele>
        <time>2016-06-03T06:47:05Z</time>
      </trkpt>
      <trkpt lat="47.00376" lon="5.82711">
        <ele>242.39</ele>
        <time>2016-06-03T06:47:16Z</time>
      </trkpt>
      <trkpt lat="47.00374" lon="5.82719">
        <ele>243.35</ele>
        <time>2016-06-03T06:47:20Z</time>
      </trkpt>
      <trkpt lat="47.00374" lon="5.82727">
        <ele>243.35</ele>
        <time>2016-06-03T06:47:24Z</time>
      </trkpt>
      <trkpt lat="47.0037" lon="5.82746">
        <ele>242.87</ele>
        <time>2016-06-03T06:47:37Z</time>
      </trkpt>
      <trkpt lat="47.00365" lon="5.82759">
        <ele>243.83</ele>
        <time>2016-06-03T06:47:49Z</time>
      </trkpt>
      <trkpt lat="47.00355" lon="5.8278">
        <ele>243.35</ele>
        <time>2016-06-03T06:48:03Z</time>
      </trkpt>
      <trkpt lat="47.00347" lon="5.82797">
        <ele>240.95</ele>
        <time>2016-06-03T06:48:13Z</time>
      </trkpt>
      <trkpt lat="47.00345" lon="5.82827">
        <ele>243.83</ele>
        <time>2016-06-03T06:48:26Z</time>
      </trkpt>
      <trkpt lat="47.00345" lon="5.82839">
        <ele>245.27</ele>
        <time>2016-06-03T06:48:33Z</time>
      </trkpt>
      <trkpt lat="47.00344" lon="5.82863">
        <ele>244.31</ele>
        <time>2016-06-03T06:48:46Z</time>
      </trkpt>
      <trkpt lat="47.00345" lon="5.8287">
        <ele>242.87</ele>
        <time>2016-06-03T06:48:50Z</time>
      </trkpt>
      <trkpt lat="47.00344" lon="5.82877">
        <ele>242.39</ele>
        <time>2016-06-03T06:48:54Z</time>
      </trkpt>
      <trkpt lat="47.00345" lon="5.82897">
        <ele>239.51</ele>
        <time>2016-06-03T06:49:07Z</time>
      </trkpt>
      <trkpt lat="47.00344" lon="5.82904">
        <ele>239.51</ele>
        <time>2016-06-03T06:49:10Z</time>
      </trkpt>
      <trkpt lat="47.00338" lon="5.82927">
        <ele>237.58</ele>
        <time>2016-06-03T06:49:25Z</time>
      </trkpt>
      <trkpt lat="47.00333" lon="5.82942">
        <ele>239.99</ele>
        <time>2016-06-03T06:49:35Z</time>
      </trkpt>
      <trkpt lat="47.00324" lon="5.82955">
        <ele>241.91</ele>
        <time>2016-06-03T06:49:47Z</time>
      </trkpt>
      <trkpt lat="47.00315" lon="5.82969">
        <ele>242.39</ele>
        <time>2016-06-03T06:50:00Z</time>
      </trkpt>
      <trkpt lat="47.00307" lon="5.82977">
        <ele>240.95</ele>
        <time>2016-06-03T06:50:08Z</time>
      </trkpt>
      <trkpt lat="47.0029" lon="5.82997">
        <ele>242.39</ele>
        <time>2016-06-03T06:50:20Z</time>
      </trkpt>
      <trkpt lat="47.0029" lon="5.82998">
        <ele>242.87</ele>
        <time>2016-06-03T06:50:36Z</time>
      </trkpt>
      <trkpt lat="47.00284" lon="5.83006">
        <ele>243.83</ele>
        <time>2016-06-03T06:50:48Z</time>
      </trkpt>
      <trkpt lat="47.00271" lon="5.83018">
        <ele>245.75</ele>
        <time>2016-06-03T06:51:01Z</time>
      </trkpt>
      <trkpt lat="47.00255" lon="5.83022">
        <ele>245.27</ele>
        <time>2016-06-03T06:51:15Z</time>
      </trkpt>
      <trkpt lat="47.00235" lon="5.83025">
        <ele>246.72</ele>
        <time>2016-06-03T06:51:28Z</time>
      </trkpt>
      <trkpt lat="47.00221" lon="5.83025">
        <ele>248.16</ele>
        <time>2016-06-03T06:51:40Z</time>
      </trkpt>
      <trkpt lat="47.00218" lon="5.83026">
        <ele>248.16</ele>
        <time>2016-06-03T06:51:43Z</time>
      </trkpt>
      <trkpt lat="47.00198" lon="5.83027">
        <ele>248.64</ele>
        <time>2016-06-03T06:51:58Z</time>
      </trkpt>
      <trkpt lat="47.00183" lon="5.83028">
        <ele>249.12</ele>
        <time>2016-06-03T06:52:11Z</time>
      </trkpt>
      <trkpt lat="47.00166" lon="5.83031">
        <ele>248.16</ele>
        <time>2016-06-03T06:52:24Z</time>
      </trkpt>
      <trkpt lat="47.00151" lon="5.83032">
        <ele>248.64</ele>
        <time>2016-06-03T06:52:37Z</time>
      </trkpt>
      <trkpt lat="47.00133" lon="5.83032">
        <ele>248.16</ele>
        <time>2016-06-03T06:52:52Z</time>
      </trkpt>
      <trkpt lat="47.00128" lon="5.83033">
        <ele>248.16</ele>
        <time>2016-06-03T06:52:56Z</time>
      </trkpt>
      <trkpt lat="47.00121" lon="5.83034">
        <ele>248.16</ele>
        <time>2016-06-03T06:53:01Z</time>
      </trkpt>
      <trkpt lat="47.00104" lon="5.83036">
        <ele>249.12</ele>
        <time>2016-06-03T06:53:15Z</time>
      </trkpt>
      <trkpt lat="47.00089" lon="5.83037">
        <ele>249.12</ele>
        <time>2016-06-03T06:53:28Z</time>
      </trkpt>
      <trkpt lat="47.00074" lon="5.83037">
        <ele>249.6</ele>
        <time>2016-06-03T06:53:40Z</time>
      </trkpt>
      <trkpt lat="47.00057" lon="5.83038">
        <ele>247.2</ele>
        <time>2016-06-03T06:53:54Z</time>
      </trkpt>
      <trkpt lat="47.00044" lon="5.83039">
        <ele>245.27</ele>
        <time>2016-06-03T06:54:05Z</time>
      </trkpt>
      <trkpt lat="47.00027" lon="5.83045">
        <ele>242.87</ele>
        <time>2016-06-03T06:54:20Z</time>
      </trkpt>
      <trkpt lat="47.00022" lon="5.83047">
        <ele>242.87</ele>
        <time>2016-06-03T06:54:24Z</time>
      </trkpt>
      <trkpt lat="47.00018" lon="5.83052">
        <ele>242.39</ele>
        <time>2016-06-03T06:54:28Z</time>
      </trkpt>
      <trkpt lat="47.00002" lon="5.83068">
        <ele>242.39</ele>
        <time>2016-06-03T06:54:43Z</time>
      </trkpt>
      <trkpt lat="46.9999" lon="5.8308">
        <ele>241.91</ele>
        <time>2016-06-03T06:54:56Z</time>
      </trkpt>
      <trkpt lat="46.99984" lon="5.83089">
        <ele>241.91</ele>
        <time>2016-06-03T06:55:03Z</time>
      </trkpt>
      <trkpt lat="46.99979" lon="5.83095">
        <ele>243.35</ele>
        <time>2016-06-03T06:55:08Z</time>
      </trkpt>
      <trkpt lat="46.99974" lon="5.83101">
        <ele>244.31</ele>
        <time>2016-06-03T06:55:14Z</time>
      </trkpt>
      <trkpt lat="46.99961" lon="5.83113">
        <ele>246.23</ele>
        <time>2016-06-03T06:55:27Z</time>
      </trkpt>
      <trkpt lat="46.99951" lon="5.83124">
        <ele>246.23</ele>
        <time>2016-06-03T06:55:38Z</time>
      </trkpt>
      <trkpt lat="46.9994" lon="5.83137">
        <ele>245.75</ele>
        <time>2016-06-03T06:55:50Z</time>
      </trkpt>
      <trkpt lat="46.99938" lon="5.8314">
        <ele>246.23</ele>
        <time>2016-06-03T06:55:52Z</time>
      </trkpt>
      <trkpt lat="46.99931" lon="5.83148">
        <ele>247.2</ele>
        <time>2016-06-03T06:55:59Z</time>
      </trkpt>
      <trkpt lat="46.99926" lon="5.83157">
        <ele>247.68</ele>
        <time>2016-06-03T06:56:06Z</time>
      </trkpt>
      <trkpt lat="46.99921" lon="5.8316">
        <ele>247.68</ele>
        <time>2016-06-03T06:56:10Z</time>
      </trkpt>
      <trkpt lat="46.99911" lon="5.83172">
        <ele>247.68</ele>
        <time>2016-06-03T06:56:21Z</time>
      </trkpt>
      <trkpt lat="46.99899" lon="5.83187">
        <ele>248.64</ele>
        <time>2016-06-03T06:56:34Z</time>
      </trkpt>
      <trkpt lat="46.99896" lon="5.83189">
        <ele>248.64</ele>
        <time>2016-06-03T06:56:36Z</time>
      </trkpt>
      <trkpt lat="46.99888" lon="5.83199">
        <ele>248.64</ele>
        <time>2016-06-03T06:56:46Z</time>
      </trkpt>
      <trkpt lat="46.99877" lon="5.83213">
        <ele>246.23</ele>
        <time>2016-06-03T06:56:59Z</time>
      </trkpt>
      <trkpt lat="46.99871" lon="5.83219">
        <ele>244.31</ele>
        <time>2016-06-03T06:57:07Z</time>
      </trkpt>
      <trkpt lat="46.99857" lon="5.83234">
        <ele>245.27</ele>
        <time>2016-06-03T06:57:20Z</time>
      </trkpt>
      <trkpt lat="46.99845" lon="5.83251">
        <ele>246.23</ele>
        <time>2016-06-03T06:57:34Z</time>
      </trkpt>
      <trkpt lat="46.99834" lon="5.83271">
        <ele>248.64</ele>
        <time>2016-06-03T06:57:49Z</time>
      </trkpt>
      <trkpt lat="46.99823" lon="5.83291">
        <ele>249.12</ele>
        <time>2016-06-03T06:58:04Z</time>
      </trkpt>
      <trkpt lat="46.99817" lon="5.83307">
        <ele>248.16</ele>
        <time>2016-06-03T06:58:16Z</time>
      </trkpt>
      <trkpt lat="46.99813" lon="5.83325">
        <ele>246.72</ele>
        <time>2016-06-03T06:58:27Z</time>
      </trkpt>
      <trkpt lat="46.99811" lon="5.83337">
        <ele>244.31</ele>
        <time>2016-06-03T06:58:35Z</time>
      </trkpt>
      <trkpt lat="46.99808" lon="5.83359">
        <ele>242.87</ele>
        <time>2016-06-03T06:58:48Z</time>
      </trkpt>
      <trkpt lat="46.99808" lon="5.83373">
        <ele>241.91</ele>
        <time>2016-06-03T06:58:56Z</time>
      </trkpt>
      <trkpt lat="46.99808" lon="5.83376">
        <ele>242.39</ele>
        <time>2016-06-03T06:58:58Z</time>
      </trkpt>
      <trkpt lat="46.99805" lon="5.83391">
        <ele>240.95</ele>
        <time>2016-06-03T06:59:09Z</time>
      </trkpt>
      <trkpt lat="46.99805" lon="5.83401">
        <ele>239.99</ele>
        <time>2016-06-03T06:59:17Z</time>
      </trkpt>
      <trkpt lat="46.99805" lon="5.83405">
        <ele>239.51</ele>
        <time>2016-06-03T06:59:19Z</time>
      </trkpt>
      <trkpt lat="46.99804" lon="5.83412">
        <ele>239.02</ele>
        <time>2016-06-03T06:59:23Z</time>
      </trkpt>
      <trkpt lat="46.99805" lon="5.83418">
        <ele>238.06</ele>
        <time>2016-06-03T06:59:27Z</time>
      </trkpt>
      <trkpt lat="46.99806" lon="5.83421">
        <ele>238.54</ele>
        <time>2016-06-03T06:59:29Z</time>
      </trkpt>
      <trkpt lat="46.99808" lon="5.83425">
        <ele>239.51</ele>
        <time>2016-06-03T06:59:32Z</time>
      </trkpt>
      <trkpt lat="46.99811" lon="5.8343">
        <ele>240.47</ele>
        <time>2016-06-03T06:59:35Z</time>
      </trkpt>
      <trkpt lat="46.99821" lon="5.8344">
        <ele>242.39</ele>
        <time>2016-06-03T06:59:44Z</time>
      </trkpt>
      <trkpt lat="46.99827" lon="5.83446">
        <ele>244.31</ele>
        <time>2016-06-03T06:59:49Z</time>
      </trkpt>
      <trkpt lat="46.99845" lon="5.83453">
        <ele>246.23</ele>
        <time>2016-06-03T07:00:02Z</time>
      </trkpt>
      <trkpt lat="46.9985" lon="5.83455">
        <ele>246.72</ele>
        <time>2016-06-03T07:00:07Z</time>
      </trkpt>
      <trkpt lat="46.99859" lon="5.83457">
        <ele>246.72</ele>
        <time>2016-06-03T07:00:15Z</time>
      </trkpt>
      <trkpt lat="46.99866" lon="5.83461">
        <ele>247.2</ele>
        <time>2016-06-03T07:00:21Z</time>
      </trkpt>
      <trkpt lat="46.99873" lon="5.83466">
        <ele>247.68</ele>
        <time>2016-06-03T07:00:27Z</time>
      </trkpt>
      <trkpt lat="46.99878" lon="5.83469">
        <ele>247.68</ele>
        <time>2016-06-03T07:00:32Z</time>
      </trkpt>
      <trkpt lat="46.99887" lon="5.83475">
        <ele>248.16</ele>
        <time>2016-06-03T07:00:40Z</time>
      </trkpt>
      <trkpt lat="46.9989" lon="5.83478">
        <ele>247.68</ele>
        <time>2016-06-03T07:00:43Z</time>
      </trkpt>
      <trkpt lat="46.99893" lon="5.83485">
        <ele>247.68</ele>
        <time>2016-06-03T07:00:48Z</time>
      </trkpt>
      <trkpt lat="46.99899" lon="5.83488">
        <ele>247.2</ele>
        <time>2016-06-03T07:00:53Z</time>
      </trkpt>
      <trkpt lat="46.9991" lon="5.83491">
        <ele>248.16</ele>
        <time>2016-06-03T07:01:03Z</time>
      </trkpt>
      <trkpt lat="46.99914" lon="5.83494">
        <ele>247.68</ele>
        <time>2016-06-03T07:01:07Z</time>
      </trkpt>
      <trkpt lat="46.99917" lon="5.83496">
        <ele>247.2</ele>
        <time>2016-06-03T07:01:10Z</time>
      </trkpt>
      <trkpt lat="46.9992" lon="5.83497">
        <ele>247.68</ele>
        <time>2016-06-03T07:01:12Z</time>
      </trkpt>
      <trkpt lat="46.99926" lon="5.83501">
        <ele>246.72</ele>
        <time>2016-06-03T07:01:18Z</time>
      </trkpt>
      <trkpt lat="46.99932" lon="5.83505">
        <ele>247.2</ele>
        <time>2016-06-03T07:01:29Z</time>
      </trkpt>
      <trkpt lat="46.99936" lon="5.8351">
        <ele>246.23</ele>
        <time>2016-06-03T07:01:45Z</time>
      </trkpt>
      <trkpt lat="46.99947" lon="5.83519">
        <ele>244.79</ele>
        <time>2016-06-03T07:01:57Z</time>
      </trkpt>
      <trkpt lat="46.99951" lon="5.83522">
        <ele>245.27</ele>
        <time>2016-06-03T07:02:00Z</time>
      </trkpt>
      <trkpt lat="46.99962" lon="5.83531">
        <ele>246.23</ele>
        <time>2016-06-03T07:02:10Z</time>
      </trkpt>
      <trkpt lat="46.99964" lon="5.83534">
        <ele>245.75</ele>
        <time>2016-06-03T07:02:12Z</time>
      </trkpt>
      <trkpt lat="46.99979" lon="5.83548">
        <ele>247.68</ele>
        <time>2016-06-03T07:02:27Z</time>
      </trkpt>
      <trkpt lat="46.99989" lon="5.83553">
        <ele>248.16</ele>
        <time>2016-06-03T07:02:35Z</time>
      </trkpt>
      <trkpt lat="47.00002" lon="5.83564">
        <ele>247.2</ele>
        <time>2016-06-03T07:02:48Z</time>
      </trkpt>
      <trkpt lat="47.0001" lon="5.83571">
        <ele>246.23</ele>
        <time>2016-06-03T07:02:56Z</time>
      </trkpt>
      <trkpt lat="47.00019" lon="5.83577">
        <ele>246.23</ele>
        <time>2016-06-03T07:03:05Z</time>
      </trkpt>
      <trkpt lat="47.00039" lon="5.83588">
        <ele>247.68</ele>
        <time>2016-06-03T07:03:21Z</time>
      </trkpt>
      <trkpt lat="47.00051" lon="5.83597">
        <ele>249.12</ele>
        <time>2016-06-03T07:03:34Z</time>
      </trkpt>
      <trkpt lat="47.00065" lon="5.83608">
        <ele>249.12</ele>
        <time>2016-06-03T07:03:48Z</time>
      </trkpt>
      <trkpt lat="47.00078" lon="5.83618">
        <ele>249.12</ele>
        <time>2016-06-03T07:04:00Z</time>
      </trkpt>
      <trkpt lat="47.00093" lon="5.8363">
        <ele>248.16</ele>
        <time>2016-06-03T07:04:15Z</time>
      </trkpt>
      <trkpt lat="47.00104" lon="5.8364">
        <ele>249.12</ele>
        <time>2016-06-03T07:04:27Z</time>
      </trkpt>
      <trkpt lat="47.00107" lon="5.83642">
        <ele>249.6</ele>
        <time>2016-06-03T07:04:36Z</time>
      </trkpt>
      <trkpt lat="47.00107" lon="5.83645">
        <ele>249.12</ele>
        <time>2016-06-03T07:04:38Z</time>
      </trkpt>
      <trkpt lat="47.0011" lon="5.83648">
        <ele>249.6</ele>
        <time>2016-06-03T07:04:42Z</time>
      </trkpt>
      <trkpt lat="47.00115" lon="5.8365">
        <ele>248.64</ele>
        <time>2016-06-03T07:04:47Z</time>
      </trkpt>
      <trkpt lat="47.00124" lon="5.83654">
        <ele>247.68</ele>
        <time>2016-06-03T07:04:55Z</time>
      </trkpt>
      <trkpt lat="47.00136" lon="5.83663">
        <ele>246.23</ele>
        <time>2016-06-03T07:05:08Z</time>
      </trkpt>
      <trkpt lat="47.0015" lon="5.83672">
        <ele>246.23</ele>
        <time>2016-06-03T07:05:19Z</time>
      </trkpt>
      <trkpt lat="47.00161" lon="5.83678">
        <ele>245.75</ele>
        <time>2016-06-03T07:05:29Z</time>
      </trkpt>
      <trkpt lat="47.00172" lon="5.83687">
        <ele>247.2</ele>
        <time>2016-06-03T07:05:43Z</time>
      </trkpt>
      <trkpt lat="47.00173" lon="5.83687">
        <ele>247.2</ele>
        <time>2016-06-03T07:05:44Z</time>
      </trkpt>
      <trkpt lat="47.00174" lon="5.83687">
        <ele>247.68</ele>
        <time>2016-06-03T07:05:46Z</time>
      </trkpt>
      <trkpt lat="47.00182" lon="5.83688">
        <ele>249.12</ele>
        <time>2016-06-03T07:05:53Z</time>
      </trkpt>
      <trkpt lat="47.00184" lon="5.83689">
        <ele>249.12</ele>
        <time>2016-06-03T07:05:55Z</time>
      </trkpt>
      <trkpt lat="47.00194" lon="5.83695">
        <ele>249.12</ele>
        <time>2016-06-03T07:06:03Z</time>
      </trkpt>
      <trkpt lat="47.00209" lon="5.83702">
        <ele>248.64</ele>
        <time>2016-06-03T07:06:15Z</time>
      </trkpt>
      <trkpt lat="47.00222" lon="5.83707">
        <ele>247.2</ele>
        <time>2016-06-03T07:06:27Z</time>
      </trkpt>
      <trkpt lat="47.00226" lon="5.8371">
        <ele>247.2</ele>
        <time>2016-06-03T07:06:30Z</time>
      </trkpt>
      <trkpt lat="47.00241" lon="5.83716">
        <ele>247.68</ele>
        <time>2016-06-03T07:06:43Z</time>
      </trkpt>
      <trkpt lat="47.00247" lon="5.83719">
        <ele>248.16</ele>
        <time>2016-06-03T07:06:49Z</time>
      </trkpt>
      <trkpt lat="47.00263" lon="5.83724">
        <ele>250.08</ele>
        <time>2016-06-03T07:07:03Z</time>
      </trkpt>
      <trkpt lat="47.00275" lon="5.83728">
        <ele>250.56</ele>
        <time>2016-06-03T07:07:16Z</time>
      </trkpt>
      <trkpt lat="47.00283" lon="5.83732">
        <ele>249.6</ele>
        <time>2016-06-03T07:07:23Z</time>
      </trkpt>
      <trkpt lat="47.00299" lon="5.83738">
        <ele>250.08</ele>
        <time>2016-06-03T07:07:37Z</time>
      </trkpt>
      <trkpt lat="47.00314" lon="5.83743">
        <ele>250.08</ele>
        <time>2016-06-03T07:07:50Z</time>
      </trkpt>
      <trkpt lat="47.00315" lon="5.83744">
        <ele>250.08</ele>
        <time>2016-06-03T07:07:51Z</time>
      </trkpt>
      <trkpt lat="47.00329" lon="5.83749">
        <ele>251.04</ele>
        <time>2016-06-03T07:08:03Z</time>
      </trkpt>
      <trkpt lat="47.00336" lon="5.83751">
        <ele>251.04</ele>
        <time>2016-06-03T07:08:14Z</time>
      </trkpt>
      <trkpt lat="47.0035" lon="5.83753">
        <ele>252</ele>
        <time>2016-06-03T07:08:26Z</time>
      </trkpt>
      <trkpt lat="47.00355" lon="5.83756">
        <ele>252</ele>
        <time>2016-06-03T07:08:31Z</time>
      </trkpt>
      <trkpt lat="47.0036" lon="5.83759">
        <ele>251.52</ele>
        <time>2016-06-03T07:08:37Z</time>
      </trkpt>
      <trkpt lat="47.00372" lon="5.83764">
        <ele>252.48</ele>
        <time>2016-06-03T07:08:49Z</time>
      </trkpt>
      <trkpt lat="47.00378" lon="5.83766">
        <ele>252.96</ele>
        <time>2016-06-03T07:08:54Z</time>
      </trkpt>
      <trkpt lat="47.00383" lon="5.83768">
        <ele>253.44</ele>
        <time>2016-06-03T07:08:58Z</time>
      </trkpt>
      <trkpt lat="47.00384" lon="5.83769">
        <ele>253.44</ele>
        <time>2016-06-03T07:09:00Z</time>
      </trkpt>
      <trkpt lat="47.00388" lon="5.83771">
        <ele>252.96</ele>
        <time>2016-06-03T07:09:03Z</time>
      </trkpt>
      <trkpt lat="47.00399" lon="5.83777">
        <ele>253.44</ele>
        <time>2016-06-03T07:09:14Z</time>
      </trkpt>
      <trkpt lat="47.00412" lon="5.83783">
        <ele>252.48</ele>
        <time>2016-06-03T07:09:27Z</time>
      </trkpt>
      <trkpt lat="47.00424" lon="5.83789">
        <ele>252.96</ele>
        <time>2016-06-03T07:09:38Z</time>
      </trkpt>
      <trkpt lat="47.00437" lon="5.83797">
        <ele>252.96</ele>
        <time>2016-06-03T07:09:52Z</time>
      </trkpt>
      <trkpt lat="47.00447" lon="5.83805">
        <ele>252.48</ele>
        <time>2016-06-03T07:10:04Z</time>
      </trkpt>
      <trkpt lat="47.00453" lon="5.83809">
        <ele>252</ele>
        <time>2016-06-03T07:10:11Z</time>
      </trkpt>
      <trkpt lat="47.00469" lon="5.83816">
        <ele>252</ele>
        <time>2016-06-03T07:10:24Z</time>
      </trkpt>
      <trkpt lat="47.00481" lon="5.8382">
        <ele>252.48</ele>
        <time>2016-06-03T07:10:35Z</time>
      </trkpt>
      <trkpt lat="47.00486" lon="5.83824">
        <ele>253.44</ele>
        <time>2016-06-03T07:10:41Z</time>
      </trkpt>
      <trkpt lat="47.00502" lon="5.8383">
        <ele>252.96</ele>
        <time>2016-06-03T07:10:54Z</time>
      </trkpt>
      <trkpt lat="47.00515" lon="5.83836">
        <ele>252.96</ele>
        <time>2016-06-03T07:11:06Z</time>
      </trkpt>
      <trkpt lat="47.00526" lon="5.8384">
        <ele>252.48</ele>
        <time>2016-06-03T07:11:19Z</time>
      </trkpt>
      <trkpt lat="47.00539" lon="5.8385">
        <ele>251.04</ele>
        <time>2016-06-03T07:11:32Z</time>
      </trkpt>
      <trkpt lat="47.00551" lon="5.83858">
        <ele>250.08</ele>
        <time>2016-06-03T07:11:43Z</time>
      </trkpt>
      <trkpt lat="47.00558" lon="5.83864">
        <ele>248.64</ele>
        <time>2016-06-03T07:11:55Z</time>
      </trkpt>
      <trkpt lat="47.00564" lon="5.83868">
        <ele>247.2</ele>
        <time>2016-06-03T07:12:05Z</time>
      </trkpt>
      <trkpt lat="47.00569" lon="5.8387">
        <ele>246.72</ele>
        <time>2016-06-03T07:12:10Z</time>
      </trkpt>
      <trkpt lat="47.00573" lon="5.83874">
        <ele>247.68</ele>
        <time>2016-06-03T07:12:16Z</time>
      </trkpt>
      <trkpt lat="47.00579" lon="5.83876">
        <ele>247.68</ele>
        <time>2016-06-03T07:12:24Z</time>
      </trkpt>
      <trkpt lat="47.00583" lon="5.8388">
        <ele>248.16</ele>
        <time>2016-06-03T07:12:31Z</time>
      </trkpt>
      <trkpt lat="47.0059" lon="5.8388">
        <ele>247.68</ele>
        <time>2016-06-03T07:12:37Z</time>
      </trkpt>
      <trkpt lat="47.00598" lon="5.83879">
        <ele>246.72</ele>
        <time>2016-06-03T07:12:51Z</time>
      </trkpt>
      <trkpt lat="47.006" lon="5.8388">
        <ele>246.72</ele>
        <time>2016-06-03T07:12:56Z</time>
      </trkpt>
      <trkpt lat="47.00613" lon="5.8388">
        <ele>247.2</ele>
        <time>2016-06-03T07:13:10Z</time>
      </trkpt>
      <trkpt lat="47.00625" lon="5.8389">
        <ele>248.64</ele>
        <time>2016-06-03T07:13:24Z</time>
      </trkpt>
      <trkpt lat="47.00635" lon="5.83895">
        <ele>248.16</ele>
        <time>2016-06-03T07:13:39Z</time>
      </trkpt>
      <trkpt lat="47.00643" lon="5.83899">
        <ele>248.64</ele>
        <time>2016-06-03T07:13:48Z</time>
      </trkpt>
      <trkpt lat="47.00656" lon="5.83903">
        <ele>249.6</ele>
        <time>2016-06-03T07:14:03Z</time>
      </trkpt>
      <trkpt lat="47.00664" lon="5.83907">
        <ele>251.52</ele>
        <time>2016-06-03T07:14:23Z</time>
      </trkpt>
      <trkpt lat="47.00666" lon="5.83911">
        <ele>249.6</ele>
        <time>2016-06-03T07:14:36Z</time>
      </trkpt>
      <trkpt lat="47.00672" lon="5.83916">
        <ele>248.64</ele>
        <time>2016-06-03T07:14:42Z</time>
      </trkpt>
      <trkpt lat="47.00681" lon="5.83921">
        <ele>248.16</ele>
        <time>2016-06-03T07:14:51Z</time>
      </trkpt>
      <trkpt lat="47.00693" lon="5.83927">
        <ele>248.64</ele>
        <time>2016-06-03T07:15:02Z</time>
      </trkpt>
      <trkpt lat="47.00705" lon="5.83933">
        <ele>250.56</ele>
        <time>2016-06-03T07:15:12Z</time>
      </trkpt>
      <trkpt lat="47.00709" lon="5.83935">
        <ele>250.56</ele>
        <time>2016-06-03T07:15:16Z</time>
      </trkpt>
      <trkpt lat="47.00727" lon="5.8394">
        <ele>251.04</ele>
        <time>2016-06-03T07:15:30Z</time>
      </trkpt>
      <trkpt lat="47.00738" lon="5.83948">
        <ele>252.48</ele>
        <time>2016-06-03T07:15:41Z</time>
      </trkpt>
      <trkpt lat="47.00742" lon="5.83951">
        <ele>253.44</ele>
        <time>2016-06-03T07:15:49Z</time>
      </trkpt>
      <trkpt lat="47.0075" lon="5.83953">
        <ele>253.93</ele>
        <time>2016-06-03T07:15:59Z</time>
      </trkpt>
      <trkpt lat="47.00754" lon="5.83956">
        <ele>253.93</ele>
        <time>2016-06-03T07:16:02Z</time>
      </trkpt>
      <trkpt lat="47.00761" lon="5.8396">
        <ele>252.96</ele>
        <time>2016-06-03T07:16:09Z</time>
      </trkpt>
      <trkpt lat="47.00771" lon="5.8397">
        <ele>252</ele>
        <time>2016-06-03T07:16:21Z</time>
      </trkpt>
      <trkpt lat="47.00787" lon="5.83972">
        <ele>252.96</ele>
        <time>2016-06-03T07:16:34Z</time>
      </trkpt>
      <trkpt lat="47.0079" lon="5.83975">
        <ele>252</ele>
        <time>2016-06-03T07:16:46Z</time>
      </trkpt>
      <trkpt lat="47.00794" lon="5.8398">
        <ele>250.56</ele>
        <time>2016-06-03T07:17:00Z</time>
      </trkpt>
      <trkpt lat="47.00808" lon="5.8399">
        <ele>246.23</ele>
        <time>2016-06-03T07:17:11Z</time>
      </trkpt>
      <trkpt lat="47.00825" lon="5.83999">
        <ele>243.83</ele>
        <time>2016-06-03T07:17:25Z</time>
      </trkpt>
      <trkpt lat="47.00827" lon="5.84003">
        <ele>244.31</ele>
        <time>2016-06-03T07:17:28Z</time>
      </trkpt>
      <trkpt lat="47.00842" lon="5.84012">
        <ele>246.23</ele>
        <time>2016-06-03T07:17:38Z</time>
      </trkpt>
      <trkpt lat="47.00848" lon="5.84013">
        <ele>244.31</ele>
        <time>2016-06-03T07:17:52Z</time>
      </trkpt>
      <trkpt lat="47.0086" lon="5.84021">
        <ele>244.79</ele>
        <time>2016-06-03T07:18:06Z</time>
      </trkpt>
      <trkpt lat="47.00868" lon="5.84032">
        <ele>243.83</ele>
        <time>2016-06-03T07:18:22Z</time>
      </trkpt>
      <trkpt lat="47.00877" lon="5.84043">
        <ele>244.31</ele>
        <time>2016-06-03T07:18:36Z</time>
      </trkpt>
      <trkpt lat="47.00888" lon="5.84058">
        <ele>245.27</ele>
        <time>2016-06-03T07:18:52Z</time>
      </trkpt>
      <trkpt lat="47.009" lon="5.84069">
        <ele>245.27</ele>
        <time>2016-06-03T07:19:05Z</time>
      </trkpt>
      <trkpt lat="47.00917" lon="5.84088">
        <ele>249.12</ele>
        <time>2016-06-03T07:19:17Z</time>
      </trkpt>
      <trkpt lat="47.00937" lon="5.84105">
        <ele>253.44</ele>
        <time>2016-06-03T07:19:29Z</time>
      </trkpt>
      <trkpt lat="47.00944" lon="5.84119">
        <ele>253.44</ele>
        <time>2016-06-03T07:19:41Z</time>
      </trkpt>
      <trkpt lat="47.00947" lon="5.84122">
        <ele>254.89</ele>
        <time>2016-06-03T07:19:54Z</time>
      </trkpt>
      <trkpt lat="47.00947" lon="5.84123">
        <ele>255.37</ele>
        <time>2016-06-03T07:20:12Z</time>
      </trkpt>
      <trkpt lat="47.00948" lon="5.84122">
        <ele>255.37</ele>
        <time>2016-06-03T07:20:32Z</time>
      </trkpt>
      <trkpt lat="47.00947" lon="5.84122">
        <ele>255.37</ele>
        <time>2016-06-03T07:20:50Z</time>
      </trkpt>
      <trkpt lat="47.00946" lon="5.84122">
        <ele>255.37</ele>
        <time>2016-06-03T07:21:10Z</time>
      </trkpt>
      <trkpt lat="47.00946" lon="5.84122">
        <ele>256.33</ele>
        <time>2016-06-03T07:21:26Z</time>
      </trkpt>
      <trkpt lat="47.00945" lon="5.84124">
        <ele>255.85</ele>
        <time>2016-06-03T07:21:42Z</time>
      </trkpt>
      <trkpt lat="47.00946" lon="5.84127">
        <ele>256.81</ele>
        <time>2016-06-03T07:21:52Z</time>
      </trkpt>
      <trkpt lat="47.00947" lon="5.84132">
        <ele>257.77</ele>
        <time>2016-06-03T07:21:58Z</time>
      </trkpt>
      <trkpt lat="47.00961" lon="5.84149">
        <ele>255.85</ele>
        <time>2016-06-03T07:22:10Z</time>
      </trkpt>
      <trkpt lat="47.0097" lon="5.84166">
        <ele>254.89</ele>
        <time>2016-06-03T07:22:24Z</time>
      </trkpt>
      <trkpt lat="47.00972" lon="5.84178">
        <ele>253.44</ele>
        <time>2016-06-03T07:22:40Z</time>
      </trkpt>
      <trkpt lat="47.00979" lon="5.84197">
        <ele>252.48</ele>
        <time>2016-06-03T07:22:52Z</time>
      </trkpt>
      <trkpt lat="47.00984" lon="5.84216">
        <ele>251.52</ele>
        <time>2016-06-03T07:23:04Z</time>
      </trkpt>
      <trkpt lat="47.01005" lon="5.84247">
        <ele>256.81</ele>
        <time>2016-06-03T07:23:19Z</time>
      </trkpt>
      <trkpt lat="47.01012" lon="5.8426">
        <ele>255.85</ele>
        <time>2016-06-03T07:23:31Z</time>
      </trkpt>
      <trkpt lat="47.01017" lon="5.84278">
        <ele>253.44</ele>
        <time>2016-06-03T07:23:45Z</time>
      </trkpt>
      <trkpt lat="47.01023" lon="5.84299">
        <ele>249.12</ele>
        <time>2016-06-03T07:23:59Z</time>
      </trkpt>
      <trkpt lat="47.01035" lon="5.84314">
        <ele>242.87</ele>
        <time>2016-06-03T07:24:14Z</time>
      </trkpt>
      <trkpt lat="47.01034" lon="5.84339">
        <ele>240.47</ele>
        <time>2016-06-03T07:24:29Z</time>
      </trkpt>
      <trkpt lat="47.01041" lon="5.84354">
        <ele>237.58</ele>
        <time>2016-06-03T07:24:40Z</time>
      </trkpt>
      <trkpt lat="47.0105" lon="5.84364">
        <ele>233.74</ele>
        <time>2016-06-03T07:24:54Z</time>
      </trkpt>
      <trkpt lat="47.01058" lon="5.84373">
        <ele>232.3</ele>
        <time>2016-06-03T07:25:05Z</time>
      </trkpt>
      <trkpt lat="47.01065" lon="5.84379">
        <ele>228.93</ele>
        <time>2016-06-03T07:25:18Z</time>
      </trkpt>
      <trkpt lat="47.0107" lon="5.84388">
        <ele>227.97</ele>
        <time>2016-06-03T07:25:29Z</time>
      </trkpt>
      <trkpt lat="47.01076" lon="5.84396">
        <ele>224.61</ele>
        <time>2016-06-03T07:25:40Z</time>
      </trkpt>
      <trkpt lat="47.01081" lon="5.84406">
        <ele>223.64</ele>
        <time>2016-06-03T07:25:49Z</time>
      </trkpt>
      <trkpt lat="47.01088" lon="5.84417">
        <ele>220.76</ele>
        <time>2016-06-03T07:26:01Z</time>
      </trkpt>
      <trkpt lat="47.01093" lon="5.84432">
        <ele>219.32</ele>
        <time>2016-06-03T07:26:13Z</time>
      </trkpt>
      <trkpt lat="47.01096" lon="5.84452">
        <ele>219.8</ele>
        <time>2016-06-03T07:26:26Z</time>
      </trkpt>
      <trkpt lat="47.01096" lon="5.84474">
        <ele>221.24</ele>
        <time>2016-06-03T07:26:40Z</time>
      </trkpt>
      <trkpt lat="47.01097" lon="5.84491">
        <ele>223.16</ele>
        <time>2016-06-03T07:26:51Z</time>
      </trkpt>
      <trkpt lat="47.01096" lon="5.84509">
        <ele>223.16</ele>
        <time>2016-06-03T07:27:04Z</time>
      </trkpt>
      <trkpt lat="47.01097" lon="5.84519">
        <ele>222.2</ele>
        <time>2016-06-03T07:27:16Z</time>
      </trkpt>
      <trkpt lat="47.01097" lon="5.84525">
        <ele>223.16</ele>
        <time>2016-06-03T07:27:31Z</time>
      </trkpt>
      <trkpt lat="47.01091" lon="5.84552">
        <ele>230.85</ele>
        <time>2016-06-03T07:27:44Z</time>
      </trkpt>
      <trkpt lat="47.01093" lon="5.84561">
        <ele>230.37</ele>
        <time>2016-06-03T07:27:53Z</time>
      </trkpt>
      <trkpt lat="47.01063" lon="5.84614">
        <ele>245.75</ele>
        <time>2016-06-03T07:28:05Z</time>
      </trkpt>
      <trkpt lat="47.01059" lon="5.84617">
        <ele>246.72</ele>
        <time>2016-06-03T07:28:22Z</time>
      </trkpt>
      <trkpt lat="47.01055" lon="5.84614">
        <ele>245.75</ele>
        <time>2016-06-03T07:28:33Z</time>
      </trkpt>
      <trkpt lat="47.01055" lon="5.84624">
        <ele>246.23</ele>
        <time>2016-06-03T07:28:46Z</time>
      </trkpt>
      <trkpt lat="47.01056" lon="5.84628">
        <ele>246.72</ele>
        <time>2016-06-03T07:29:02Z</time>
      </trkpt>
      <trkpt lat="47.01054" lon="5.84634">
        <ele>247.2</ele>
        <time>2016-06-03T07:29:16Z</time>
      </trkpt>
      <trkpt lat="47.01055" lon="5.84638">
        <ele>247.68</ele>
        <time>2016-06-03T07:29:30Z</time>
      </trkpt>
      <trkpt lat="47.01059" lon="5.84641">
        <ele>247.68</ele>
        <time>2016-06-03T07:29:45Z</time>
      </trkpt>
      <trkpt lat="47.0106" lon="5.84642">
        <ele>247.2</ele>
        <time>2016-06-03T07:30:05Z</time>
      </trkpt>
      <trkpt lat="47.01063" lon="5.84645">
        <ele>248.16</ele>
        <time>2016-06-03T07:30:20Z</time>
      </trkpt>
      <trkpt lat="47.0107" lon="5.84657">
        <ele>250.08</ele>
        <time>2016-06-03T07:30:35Z</time>
      </trkpt>
      <trkpt lat="47.01076" lon="5.84662">
        <ele>251.04</ele>
        <time>2016-06-03T07:30:48Z</time>
      </trkpt>
      <trkpt lat="47.01078" lon="5.84664">
        <ele>251.04</ele>
        <time>2016-06-03T07:31:04Z</time>
      </trkpt>
      <trkpt lat="47.01079" lon="5.84665">
        <ele>250.56</ele>
        <time>2016-06-03T07:31:22Z</time>
      </trkpt>
      <trkpt lat="47.01081" lon="5.8467">
        <ele>250.56</ele>
        <time>2016-06-03T07:31:39Z</time>
      </trkpt>
      <trkpt lat="47.01084" lon="5.84671">
        <ele>250.08</ele>
        <time>2016-06-03T07:31:55Z</time>
      </trkpt>
      <trkpt lat="47.01083" lon="5.84672">
        <ele>250.56</ele>
        <time>2016-06-03T07:32:12Z</time>
      </trkpt>
      <trkpt lat="47.01082" lon="5.84675">
        <ele>250.56</ele>
        <time>2016-06-03T07:32:28Z</time>
      </trkpt>
      <trkpt lat="47.01081" lon="5.84676">
        <ele>251.04</ele>
        <time>2016-06-03T07:32:44Z</time>
      </trkpt>
      <trkpt lat="47.01089" lon="5.84679">
        <ele>252.48</ele>
        <time>2016-06-03T07:32:57Z</time>
      </trkpt>
      <trkpt lat="47.01094" lon="5.84681">
        <ele>252</ele>
        <time>2016-06-03T07:33:02Z</time>
      </trkpt>
      <trkpt lat="47.01103" lon="5.84691">
        <ele>250.56</ele>
        <time>2016-06-03T07:33:13Z</time>
      </trkpt>
      <trkpt lat="47.01115" lon="5.84701">
        <ele>250.56</ele>
        <time>2016-06-03T07:33:25Z</time>
      </trkpt>
      <trkpt lat="47.01123" lon="5.84707">
        <ele>249.12</ele>
        <time>2016-06-03T07:33:36Z</time>
      </trkpt>
      <trkpt lat="47.01127" lon="5.84712">
        <ele>250.56</ele>
        <time>2016-06-03T07:33:49Z</time>
      </trkpt>
      <trkpt lat="47.01135" lon="5.84722">
        <ele>252</ele>
        <time>2016-06-03T07:34:01Z</time>
      </trkpt>
      <trkpt lat="47.01137" lon="5.84726">
        <ele>251.52</ele>
        <time>2016-06-03T07:34:04Z</time>
      </trkpt>
      <trkpt lat="47.01138" lon="5.84728">
        <ele>251.52</ele>
        <time>2016-06-03T07:34:06Z</time>
      </trkpt>
      <trkpt lat="47.01139" lon="5.84731">
        <ele>251.52</ele>
        <time>2016-06-03T07:34:08Z</time>
      </trkpt>
      <trkpt lat="47.01153" lon="5.84747">
        <ele>250.56</ele>
        <time>2016-06-03T07:34:22Z</time>
      </trkpt>
      <trkpt lat="47.01168" lon="5.84763">
        <ele>251.52</ele>
        <time>2016-06-03T07:34:36Z</time>
      </trkpt>
      <trkpt lat="47.01177" lon="5.84775">
        <ele>252.48</ele>
        <time>2016-06-03T07:34:45Z</time>
      </trkpt>
      <trkpt lat="47.01189" lon="5.84792">
        <ele>252.96</ele>
        <time>2016-06-03T07:34:59Z</time>
      </trkpt>
      <trkpt lat="47.01192" lon="5.84797">
        <ele>252</ele>
        <time>2016-06-03T07:35:03Z</time>
      </trkpt>
      <trkpt lat="47.01195" lon="5.848">
        <ele>251.04</ele>
        <time>2016-06-03T07:35:06Z</time>
      </trkpt>
      <trkpt lat="47.012" lon="5.84809">
        <ele>249.6</ele>
        <time>2016-06-03T07:35:13Z</time>
      </trkpt>
      <trkpt lat="47.01209" lon="5.84824">
        <ele>251.04</ele>
        <time>2016-06-03T07:35:25Z</time>
      </trkpt>
      <trkpt lat="47.01215" lon="5.84842">
        <ele>251.52</ele>
        <time>2016-06-03T07:35:37Z</time>
      </trkpt>
      <trkpt lat="47.01223" lon="5.84861">
        <ele>251.04</ele>
        <time>2016-06-03T07:35:50Z</time>
      </trkpt>
      <trkpt lat="47.0123" lon="5.84881">
        <ele>254.41</ele>
        <time>2016-06-03T07:36:03Z</time>
      </trkpt>
      <trkpt lat="47.01231" lon="5.84885">
        <ele>253.93</ele>
        <time>2016-06-03T07:36:06Z</time>
      </trkpt>
      <trkpt lat="47.01234" lon="5.84891">
        <ele>253.93</ele>
        <time>2016-06-03T07:36:11Z</time>
      </trkpt>
      <trkpt lat="47.01236" lon="5.849">
        <ele>253.44</ele>
        <time>2016-06-03T07:36:17Z</time>
      </trkpt>
      <trkpt lat="47.01242" lon="5.84913">
        <ele>252.96</ele>
        <time>2016-06-03T07:36:31Z</time>
      </trkpt>
      <trkpt lat="47.01243" lon="5.84918">
        <ele>252.48</ele>
        <time>2016-06-03T07:36:40Z</time>
      </trkpt>
      <trkpt lat="47.01246" lon="5.84924">
        <ele>252.48</ele>
        <time>2016-06-03T07:36:44Z</time>
      </trkpt>
      <trkpt lat="47.01252" lon="5.84939">
        <ele>252</ele>
        <time>2016-06-03T07:36:57Z</time>
      </trkpt>
      <trkpt lat="47.01263" lon="5.84951">
        <ele>251.04</ele>
        <time>2016-06-03T07:37:12Z</time>
      </trkpt>
      <trkpt lat="47.01276" lon="5.84966">
        <ele>252.48</ele>
        <time>2016-06-03T07:37:28Z</time>
      </trkpt>
      <trkpt lat="47.01277" lon="5.84967">
        <ele>252.48</ele>
        <time>2016-06-03T07:37:31Z</time>
      </trkpt>
      <trkpt lat="47.01293" lon="5.84985">
        <ele>251.52</ele>
        <time>2016-06-03T07:37:44Z</time>
      </trkpt>
      <trkpt lat="47.01297" lon="5.84988">
        <ele>252.48</ele>
        <time>2016-06-03T07:37:58Z</time>
      </trkpt>
      <trkpt lat="47.01301" lon="5.84991">
        <ele>254.41</ele>
        <time>2016-06-03T07:38:12Z</time>
      </trkpt>
      <trkpt lat="47.01302" lon="5.84992">
        <ele>254.89</ele>
        <time>2016-06-03T07:38:31Z</time>
      </trkpt>
      <trkpt lat="47.01301" lon="5.84993">
        <ele>254.89</ele>
        <time>2016-06-03T07:38:50Z</time>
      </trkpt>
      <trkpt lat="47.01301" lon="5.84993">
        <ele>255.85</ele>
        <time>2016-06-03T07:39:09Z</time>
      </trkpt>
      <trkpt lat="47.01302" lon="5.84993">
        <ele>255.37</ele>
        <time>2016-06-03T07:39:28Z</time>
      </trkpt>
      <trkpt lat="47.01305" lon="5.84995">
        <ele>255.37</ele>
        <time>2016-06-03T07:39:48Z</time>
      </trkpt>
      <trkpt lat="47.01313" lon="5.84997">
        <ele>255.37</ele>
        <time>2016-06-03T07:40:02Z</time>
      </trkpt>
      <trkpt lat="47.01318" lon="5.85003">
        <ele>253.44</ele>
        <time>2016-06-03T07:40:15Z</time>
      </trkpt>
      <trkpt lat="47.01321" lon="5.85002">
        <ele>253.44</ele>
        <time>2016-06-03T07:40:22Z</time>
      </trkpt>
      <trkpt lat="47.01334" lon="5.85009">
        <ele>253.93</ele>
        <time>2016-06-03T07:40:37Z</time>
      </trkpt>
      <trkpt lat="47.01341" lon="5.85019">
        <ele>254.41</ele>
        <time>2016-06-03T07:40:50Z</time>
      </trkpt>
      <trkpt lat="47.0134" lon="5.8502">
        <ele>254.41</ele>
        <time>2016-06-03T07:40:51Z</time>
      </trkpt>
      <trkpt lat="47.01347" lon="5.85028">
        <ele>255.37</ele>
        <time>2016-06-03T07:41:04Z</time>
      </trkpt>
      <trkpt lat="47.01357" lon="5.85034">
        <ele>253.93</ele>
        <time>2016-06-03T07:41:17Z</time>
      </trkpt>
      <trkpt lat="47.01362" lon="5.85035">
        <ele>253.93</ele>
        <time>2016-06-03T07:41:31Z</time>
      </trkpt>
      <trkpt lat="47.01367" lon="5.85039">
        <ele>253.44</ele>
        <time>2016-06-03T07:41:44Z</time>
      </trkpt>
      <trkpt lat="47.01369" lon="5.85037">
        <ele>252.96</ele>
        <time>2016-06-03T07:41:55Z</time>
      </trkpt>
      <trkpt lat="47.01376" lon="5.85035">
        <ele>251.52</ele>
        <time>2016-06-03T07:42:09Z</time>
      </trkpt>
      <trkpt lat="47.01379" lon="5.85036">
        <ele>252</ele>
        <time>2016-06-03T07:42:14Z</time>
      </trkpt>
      <trkpt lat="47.01394" lon="5.85048">
        <ele>251.52</ele>
        <time>2016-06-03T07:42:26Z</time>
      </trkpt>
      <trkpt lat="47.01405" lon="5.85059">
        <ele>252</ele>
        <time>2016-06-03T07:42:38Z</time>
      </trkpt>
      <trkpt lat="47.01414" lon="5.85075">
        <ele>251.52</ele>
        <time>2016-06-03T07:42:51Z</time>
      </trkpt>
      <trkpt lat="47.01424" lon="5.85088">
        <ele>252.96</ele>
        <time>2016-06-03T07:43:05Z</time>
      </trkpt>
      <trkpt lat="47.0143" lon="5.85096">
        <ele>253.44</ele>
        <time>2016-06-03T07:43:12Z</time>
      </trkpt>
      <trkpt lat="47.01442" lon="5.85111">
        <ele>253.44</ele>
        <time>2016-06-03T07:43:26Z</time>
      </trkpt>
      <trkpt lat="47.01454" lon="5.85122">
        <ele>255.37</ele>
        <time>2016-06-03T07:43:38Z</time>
      </trkpt>
      <trkpt lat="47.01468" lon="5.8513">
        <ele>255.37</ele>
        <time>2016-06-03T07:43:52Z</time>
      </trkpt>
      <trkpt lat="47.01475" lon="5.85137">
        <ele>254.41</ele>
        <time>2016-06-03T07:44:03Z</time>
      </trkpt>
      <trkpt lat="47.01484" lon="5.85147">
        <ele>251.04</ele>
        <time>2016-06-03T07:44:15Z</time>
      </trkpt>
      <trkpt lat="47.01496" lon="5.85156">
        <ele>249.12</ele>
        <time>2016-06-03T07:44:29Z</time>
      </trkpt>
      <trkpt lat="47.01508" lon="5.85168">
        <ele>249.6</ele>
        <time>2016-06-03T07:44:41Z</time>
      </trkpt>
      <trkpt lat="47.01517" lon="5.85178">
        <ele>250.56</ele>
        <time>2016-06-03T07:44:53Z</time>
      </trkpt>
      <trkpt lat="47.01529" lon="5.8519">
        <ele>254.41</ele>
        <time>2016-06-03T07:45:06Z</time>
      </trkpt>
      <trkpt lat="47.01542" lon="5.85202">
        <ele>256.33</ele>
        <time>2016-06-03T07:45:17Z</time>
      </trkpt>
      <trkpt lat="47.01543" lon="5.85204">
        <ele>256.33</ele>
        <time>2016-06-03T07:45:19Z</time>
      </trkpt>
      <trkpt lat="47.01545" lon="5.85218">
        <ele>256.33</ele>
        <time>2016-06-03T07:45:32Z</time>
      </trkpt>
      <trkpt lat="47.01543" lon="5.85232">
        <ele>254.89</ele>
        <time>2016-06-03T07:45:44Z</time>
      </trkpt>
      <trkpt lat="47.01542" lon="5.85234">
        <ele>254.41</ele>
        <time>2016-06-03T07:45:46Z</time>
      </trkpt>
      <trkpt lat="47.01537" lon="5.85248">
        <ele>252.96</ele>
        <time>2016-06-03T07:45:57Z</time>
      </trkpt>
      <trkpt lat="47.01532" lon="5.85262">
        <ele>252</ele>
        <time>2016-06-03T07:46:07Z</time>
      </trkpt>
      <trkpt lat="47.01531" lon="5.85264">
        <ele>252.48</ele>
        <time>2016-06-03T07:46:09Z</time>
      </trkpt>
      <trkpt lat="47.01518" lon="5.85279">
        <ele>254.89</ele>
        <time>2016-06-03T07:46:22Z</time>
      </trkpt>
      <trkpt lat="47.01511" lon="5.85286">
        <ele>255.37</ele>
        <time>2016-06-03T07:46:28Z</time>
      </trkpt>
      <trkpt lat="47.01494" lon="5.85295">
        <ele>257.77</ele>
        <time>2016-06-03T07:46:43Z</time>
      </trkpt>
      <trkpt lat="47.01482" lon="5.85302">
        <ele>257.77</ele>
        <time>2016-06-03T07:46:54Z</time>
      </trkpt>
      <trkpt lat="47.01469" lon="5.85316">
        <ele>257.77</ele>
        <time>2016-06-03T07:47:08Z</time>
      </trkpt>
      <trkpt lat="47.01459" lon="5.85324">
        <ele>256.81</ele>
        <time>2016-06-03T07:47:18Z</time>
      </trkpt>
      <trkpt lat="47.01441" lon="5.85323">
        <ele>253.93</ele>
        <time>2016-06-03T07:47:32Z</time>
      </trkpt>
      <trkpt lat="47.01428" lon="5.85319">
        <ele>252.96</ele>
        <time>2016-06-03T07:47:45Z</time>
      </trkpt>
      <trkpt lat="47.01415" lon="5.85312">
        <ele>255.85</ele>
        <time>2016-06-03T07:47:57Z</time>
      </trkpt>
      <trkpt lat="47.01404" lon="5.85304">
        <ele>257.29</ele>
        <time>2016-06-03T07:48:10Z</time>
      </trkpt>
      <trkpt lat="47.01394" lon="5.85299">
        <ele>256.33</ele>
        <time>2016-06-03T07:48:19Z</time>
      </trkpt>
      <trkpt lat="47.01379" lon="5.8529">
        <ele>256.81</ele>
        <time>2016-06-03T07:48:32Z</time>
      </trkpt>
      <trkpt lat="47.01366" lon="5.85286">
        <ele>259.69</ele>
        <time>2016-06-03T07:48:43Z</time>
      </trkpt>
      <trkpt lat="47.01357" lon="5.85285">
        <ele>260.65</ele>
        <time>2016-06-03T07:48:51Z</time>
      </trkpt>
      <trkpt lat="47.01342" lon="5.85278">
        <ele>262.58</ele>
        <time>2016-06-03T07:49:04Z</time>
      </trkpt>
      <trkpt lat="47.01329" lon="5.85273">
        <ele>261.14</ele>
        <time>2016-06-03T07:49:17Z</time>
      </trkpt>
      <trkpt lat="47.0132" lon="5.85267">
        <ele>261.62</ele>
        <time>2016-06-03T07:49:27Z</time>
      </trkpt>
      <trkpt lat="47.01316" lon="5.85265">
        <ele>262.58</ele>
        <time>2016-06-03T07:49:30Z</time>
      </trkpt>
      <trkpt lat="47.01301" lon="5.85259">
        <ele>261.62</ele>
        <time>2016-06-03T07:49:44Z</time>
      </trkpt>
      <trkpt lat="47.01286" lon="5.85259">
        <ele>260.17</ele>
        <time>2016-06-03T07:49:57Z</time>
      </trkpt>
      <trkpt lat="47.01284" lon="5.85259">
        <ele>260.17</ele>
        <time>2016-06-03T07:49:59Z</time>
      </trkpt>
      <trkpt lat="47.0127" lon="5.85254">
        <ele>261.14</ele>
        <time>2016-06-03T07:50:11Z</time>
      </trkpt>
      <trkpt lat="47.01259" lon="5.85254">
        <ele>261.14</ele>
        <time>2016-06-03T07:50:22Z</time>
      </trkpt>
      <trkpt lat="47.01244" lon="5.85259">
        <ele>262.1</ele>
        <time>2016-06-03T07:50:34Z</time>
      </trkpt>
      <trkpt lat="47.01229" lon="5.85261">
        <ele>264.5</ele>
        <time>2016-06-03T07:50:46Z</time>
      </trkpt>
      <trkpt lat="47.01224" lon="5.85261">
        <ele>265.46</ele>
        <time>2016-06-03T07:50:50Z</time>
      </trkpt>
      <trkpt lat="47.01221" lon="5.85263">
        <ele>265.46</ele>
        <time>2016-06-03T07:50:54Z</time>
      </trkpt>
      <trkpt lat="47.01214" lon="5.85264">
        <ele>265.46</ele>
        <time>2016-06-03T07:50:59Z</time>
      </trkpt>
      <trkpt lat="47.01209" lon="5.85266">
        <ele>266.42</ele>
        <time>2016-06-03T07:51:04Z</time>
      </trkpt>
      <trkpt lat="47.01196" lon="5.85266">
        <ele>264.98</ele>
        <time>2016-06-03T07:51:14Z</time>
      </trkpt>
      <trkpt lat="47.01194" lon="5.85265">
        <ele>264.5</ele>
        <time>2016-06-03T07:51:16Z</time>
      </trkpt>
      <trkpt lat="47.01184" lon="5.85265">
        <ele>264.02</ele>
        <time>2016-06-03T07:51:24Z</time>
      </trkpt>
      <trkpt lat="47.0117" lon="5.85262">
        <ele>264.02</ele>
        <time>2016-06-03T07:51:38Z</time>
      </trkpt>
      <trkpt lat="47.01156" lon="5.85259">
        <ele>267.38</ele>
        <time>2016-06-03T07:51:50Z</time>
      </trkpt>
      <trkpt lat="47.01138" lon="5.85261">
        <ele>266.9</ele>
        <time>2016-06-03T07:52:04Z</time>
      </trkpt>
      <trkpt lat="47.01119" lon="5.85266">
        <ele>265.94</ele>
        <time>2016-06-03T07:52:19Z</time>
      </trkpt>
      <trkpt lat="47.01116" lon="5.85265">
        <ele>265.94</ele>
        <time>2016-06-03T07:52:22Z</time>
      </trkpt>
      <trkpt lat="47.01099" lon="5.8527">
        <ele>265.46</ele>
        <time>2016-06-03T07:52:37Z</time>
      </trkpt>
      <trkpt lat="47.01076" lon="5.85276">
        <ele>263.54</ele>
        <time>2016-06-03T07:52:56Z</time>
      </trkpt>
      <trkpt lat="47.01073" lon="5.85279">
        <ele>264.02</ele>
        <time>2016-06-03T07:53:00Z</time>
      </trkpt>
      <trkpt lat="47.01062" lon="5.85294">
        <ele>263.54</ele>
        <time>2016-06-03T07:53:13Z</time>
      </trkpt>
      <trkpt lat="47.01054" lon="5.85288">
        <ele>263.06</ele>
        <time>2016-06-03T07:53:20Z</time>
      </trkpt>
      <trkpt lat="47.01035" lon="5.85287">
        <ele>262.1</ele>
        <time>2016-06-03T07:53:37Z</time>
      </trkpt>
      <trkpt lat="47.01031" lon="5.85288">
        <ele>262.58</ele>
        <time>2016-06-03T07:53:40Z</time>
      </trkpt>
      <trkpt lat="47.01022" lon="5.85289">
        <ele>262.58</ele>
        <time>2016-06-03T07:53:47Z</time>
      </trkpt>
      <trkpt lat="47.01003" lon="5.85289">
        <ele>263.06</ele>
        <time>2016-06-03T07:54:02Z</time>
      </trkpt>
      <trkpt lat="47.00985" lon="5.85286">
        <ele>264.02</ele>
        <time>2016-06-03T07:54:17Z</time>
      </trkpt>
      <trkpt lat="47.00973" lon="5.85282">
        <ele>262.1</ele>
        <time>2016-06-03T07:54:29Z</time>
      </trkpt>
      <trkpt lat="47.00956" lon="5.85277">
        <ele>261.62</ele>
        <time>2016-06-03T07:54:42Z</time>
      </trkpt>
      <trkpt lat="47.00948" lon="5.85277">
        <ele>262.1</ele>
        <time>2016-06-03T07:54:50Z</time>
      </trkpt>
      <trkpt lat="47.0093" lon="5.85284">
        <ele>264.02</ele>
        <time>2016-06-03T07:55:04Z</time>
      </trkpt>
      <trkpt lat="47.00917" lon="5.85295">
        <ele>264.5</ele>
        <time>2016-06-03T07:55:16Z</time>
      </trkpt>
      <trkpt lat="47.00907" lon="5.85312">
        <ele>265.46</ele>
        <time>2016-06-03T07:55:29Z</time>
      </trkpt>
      <trkpt lat="47.00897" lon="5.85332">
        <ele>264.98</ele>
        <time>2016-06-03T07:55:43Z</time>
      </trkpt>
      <trkpt lat="47.00894" lon="5.85337">
        <ele>264.5</ele>
        <time>2016-06-03T07:55:46Z</time>
      </trkpt>
      <trkpt lat="47.00885" lon="5.85354">
        <ele>263.06</ele>
        <time>2016-06-03T07:55:59Z</time>
      </trkpt>
      <trkpt lat="47.00877" lon="5.85373">
        <ele>262.1</ele>
        <time>2016-06-03T07:56:12Z</time>
      </trkpt>
      <trkpt lat="47.00872" lon="5.85381">
        <ele>261.62</ele>
        <time>2016-06-03T07:56:18Z</time>
      </trkpt>
      <trkpt lat="47.00868" lon="5.85386">
        <ele>261.62</ele>
        <time>2016-06-03T07:56:23Z</time>
      </trkpt>
      <trkpt lat="47.00859" lon="5.85399">
        <ele>260.65</ele>
        <time>2016-06-03T07:56:33Z</time>
      </trkpt>
      <trkpt lat="47.00855" lon="5.85402">
        <ele>261.14</ele>
        <time>2016-06-03T07:56:37Z</time>
      </trkpt>
      <trkpt lat="47.00848" lon="5.8541">
        <ele>261.62</ele>
        <time>2016-06-03T07:56:44Z</time>
      </trkpt>
      <trkpt lat="47.00842" lon="5.85414">
        <ele>261.62</ele>
        <time>2016-06-03T07:56:49Z</time>
      </trkpt>
      <trkpt lat="47.00828" lon="5.85423">
        <ele>263.06</ele>
        <time>2016-06-03T07:57:02Z</time>
      </trkpt>
      <trkpt lat="47.00827" lon="5.85424">
        <ele>263.06</ele>
        <time>2016-06-03T07:57:04Z</time>
      </trkpt>
      <trkpt lat="47.00818" lon="5.8543">
        <ele>264.98</ele>
        <time>2016-06-03T07:57:13Z</time>
      </trkpt>
      <trkpt lat="47.008" lon="5.85437">
        <ele>266.42</ele>
        <time>2016-06-03T07:57:28Z</time>
      </trkpt>
      <trkpt lat="47.00781" lon="5.85441">
        <ele>266.42</ele>
        <time>2016-06-03T07:57:44Z</time>
      </trkpt>
      <trkpt lat="47.00762" lon="5.85444">
        <ele>265.94</ele>
        <time>2016-06-03T07:58:00Z</time>
      </trkpt>
      <trkpt lat="47.00743" lon="5.85447">
        <ele>267.38</ele>
        <time>2016-06-03T07:58:15Z</time>
      </trkpt>
      <trkpt lat="47.00726" lon="5.8545">
        <ele>268.35</ele>
        <time>2016-06-03T07:58:29Z</time>
      </trkpt>
      <trkpt lat="47.0071" lon="5.85453">
        <ele>269.31</ele>
        <time>2016-06-03T07:58:42Z</time>
      </trkpt>
      <trkpt lat="47.00698" lon="5.85459">
        <ele>269.79</ele>
        <time>2016-06-03T07:58:53Z</time>
      </trkpt>
      <trkpt lat="47.00696" lon="5.8546">
        <ele>269.79</ele>
        <time>2016-06-03T07:58:55Z</time>
      </trkpt>
      <trkpt lat="47.00684" lon="5.8547">
        <ele>269.31</ele>
        <time>2016-06-03T07:59:07Z</time>
      </trkpt>
      <trkpt lat="47.00676" lon="5.85484">
        <ele>269.31</ele>
        <time>2016-06-03T07:59:17Z</time>
      </trkpt>
      <trkpt lat="47.00673" lon="5.85489">
        <ele>269.31</ele>
        <time>2016-06-03T07:59:21Z</time>
      </trkpt>
      <trkpt lat="47.00661" lon="5.85506">
        <ele>269.79</ele>
        <time>2016-06-03T07:59:35Z</time>
      </trkpt>
      <trkpt lat="47.00644" lon="5.85516">
        <ele>269.79</ele>
        <time>2016-06-03T07:59:50Z</time>
      </trkpt>
      <trkpt lat="47.00626" lon="5.85516">
        <ele>269.79</ele>
        <time>2016-06-03T08:00:05Z</time>
      </trkpt>
      <trkpt lat="47.00613" lon="5.85518">
        <ele>270.27</ele>
        <time>2016-06-03T08:00:16Z</time>
      </trkpt>
      <trkpt lat="47.00598" lon="5.85519">
        <ele>271.71</ele>
        <time>2016-06-03T08:00:29Z</time>
      </trkpt>
      <trkpt lat="47.00582" lon="5.85523">
        <ele>271.23</ele>
        <time>2016-06-03T08:00:42Z</time>
      </trkpt>
      <trkpt lat="47.00567" lon="5.85526">
        <ele>269.79</ele>
        <time>2016-06-03T08:00:55Z</time>
      </trkpt>
      <trkpt lat="47.00559" lon="5.85527">
        <ele>269.31</ele>
        <time>2016-06-03T08:01:04Z</time>
      </trkpt>
      <trkpt lat="47.0055" lon="5.85529">
        <ele>269.31</ele>
        <time>2016-06-03T08:01:11Z</time>
      </trkpt>
      <trkpt lat="47.00547" lon="5.8553">
        <ele>269.79</ele>
        <time>2016-06-03T08:01:13Z</time>
      </trkpt>
      <trkpt lat="47.00536" lon="5.85533">
        <ele>270.27</ele>
        <time>2016-06-03T08:01:27Z</time>
      </trkpt>
      <trkpt lat="47.00534" lon="5.85534">
        <ele>270.27</ele>
        <time>2016-06-03T08:01:29Z</time>
      </trkpt>
      <trkpt lat="47.00523" lon="5.85536">
        <ele>271.23</ele>
        <time>2016-06-03T08:01:38Z</time>
      </trkpt>
      <trkpt lat="47.00512" lon="5.85538">
        <ele>271.23</ele>
        <time>2016-06-03T08:01:47Z</time>
      </trkpt>
      <trkpt lat="47.00496" lon="5.85543">
        <ele>271.23</ele>
        <time>2016-06-03T08:02:01Z</time>
      </trkpt>
      <trkpt lat="47.00479" lon="5.85547">
        <ele>271.71</ele>
        <time>2016-06-03T08:02:14Z</time>
      </trkpt>
      <trkpt lat="47.00463" lon="5.85551">
        <ele>272.67</ele>
        <time>2016-06-03T08:02:28Z</time>
      </trkpt>
      <trkpt lat="47.00452" lon="5.85554">
        <ele>273.15</ele>
        <time>2016-06-03T08:02:38Z</time>
      </trkpt>
      <trkpt lat="47.00438" lon="5.85558">
        <ele>274.11</ele>
        <time>2016-06-03T08:02:50Z</time>
      </trkpt>
      <trkpt lat="47.00426" lon="5.8556">
        <ele>274.11</ele>
        <time>2016-06-03T08:03:01Z</time>
      </trkpt>
      <trkpt lat="47.0041" lon="5.85564">
        <ele>274.11</ele>
        <time>2016-06-03T08:03:14Z</time>
      </trkpt>
      <trkpt lat="47.00396" lon="5.85568">
        <ele>275.07</ele>
        <time>2016-06-03T08:03:25Z</time>
      </trkpt>
      <trkpt lat="47.00381" lon="5.85572">
        <ele>275.56</ele>
        <time>2016-06-03T08:03:38Z</time>
      </trkpt>
      <trkpt lat="47.0038" lon="5.85573">
        <ele>275.56</ele>
        <time>2016-06-03T08:03:39Z</time>
      </trkpt>
      <trkpt lat="47.00362" lon="5.85575">
        <ele>276.52</ele>
        <time>2016-06-03T08:03:53Z</time>
      </trkpt>
      <trkpt lat="47.0034" lon="5.85578">
        <ele>277</ele>
        <time>2016-06-03T08:04:10Z</time>
      </trkpt>
      <trkpt lat="47.00332" lon="5.85581">
        <ele>277</ele>
        <time>2016-06-03T08:04:17Z</time>
      </trkpt>
      <trkpt lat="47.00316" lon="5.85585">
        <ele>276.52</ele>
        <time>2016-06-03T08:04:31Z</time>
      </trkpt>
      <trkpt lat="47.00301" lon="5.85589">
        <ele>275.07</ele>
        <time>2016-06-03T08:04:44Z</time>
      </trkpt>
      <trkpt lat="47.00287" lon="5.85595">
        <ele>275.56</ele>
        <time>2016-06-03T08:04:57Z</time>
      </trkpt>
      <trkpt lat="47.00284" lon="5.85596">
        <ele>275.56</ele>
        <time>2016-06-03T08:04:59Z</time>
      </trkpt>
      <trkpt lat="47.00277" lon="5.85598">
        <ele>275.07</ele>
        <time>2016-06-03T08:05:05Z</time>
      </trkpt>
      <trkpt lat="47.00264" lon="5.85601">
        <ele>275.07</ele>
        <time>2016-06-03T08:05:17Z</time>
      </trkpt>
      <trkpt lat="47.00248" lon="5.85607">
        <ele>274.59</ele>
        <time>2016-06-03T08:05:29Z</time>
      </trkpt>
      <trkpt lat="47.00236" lon="5.8561">
        <ele>274.11</ele>
        <time>2016-06-03T08:05:39Z</time>
      </trkpt>
      <trkpt lat="47.00216" lon="5.85618">
        <ele>274.11</ele>
        <time>2016-06-03T08:05:55Z</time>
      </trkpt>
      <trkpt lat="47.00198" lon="5.8562">
        <ele>274.11</ele>
        <time>2016-06-03T08:06:10Z</time>
      </trkpt>
      <trkpt lat="47.00179" lon="5.85622">
        <ele>274.11</ele>
        <time>2016-06-03T08:06:25Z</time>
      </trkpt>
      <trkpt lat="47.00167" lon="5.85624">
        <ele>274.11</ele>
        <time>2016-06-03T08:06:39Z</time>
      </trkpt>
      <trkpt lat="47.00163" lon="5.85624">
        <ele>273.63</ele>
        <time>2016-06-03T08:06:43Z</time>
      </trkpt>
      <trkpt lat="47.00143" lon="5.85624">
        <ele>274.11</ele>
        <time>2016-06-03T08:06:58Z</time>
      </trkpt>
      <trkpt lat="47.00125" lon="5.85624">
        <ele>274.11</ele>
        <time>2016-06-03T08:07:13Z</time>
      </trkpt>
      <trkpt lat="47.00112" lon="5.85625">
        <ele>273.63</ele>
        <time>2016-06-03T08:07:27Z</time>
      </trkpt>
      <trkpt lat="47.00112" lon="5.85626">
        <ele>274.11</ele>
        <time>2016-06-03T08:07:43Z</time>
      </trkpt>
      <trkpt lat="47.00112" lon="5.85627">
        <ele>273.63</ele>
        <time>2016-06-03T08:07:56Z</time>
      </trkpt>
      <trkpt lat="47.00112" lon="5.85627">
        <ele>273.63</ele>
        <time>2016-06-03T08:08:21Z</time>
      </trkpt>
      <trkpt lat="47.00111" lon="5.85627">
        <ele>273.15</ele>
        <time>2016-06-03T08:08:47Z</time>
      </trkpt>
      <trkpt lat="47.00109" lon="5.85627">
        <ele>272.19</ele>
        <time>2016-06-03T08:08:59Z</time>
      </trkpt>
      <trkpt lat="47.00098" lon="5.85624">
        <ele>272.67</ele>
        <time>2016-06-03T08:09:14Z</time>
      </trkpt>
      <trkpt lat="47.00098" lon="5.85624">
        <ele>272.67</ele>
        <time>2016-06-03T08:09:15Z</time>
      </trkpt>
      <trkpt lat="47.00093" lon="5.85624">
        <ele>272.67</ele>
        <time>2016-06-03T08:09:20Z</time>
      </trkpt>
      <trkpt lat="47.00086" lon="5.85625">
        <ele>271.23</ele>
        <time>2016-06-03T08:09:27Z</time>
      </trkpt>
      <trkpt lat="47.00082" lon="5.85626">
        <ele>271.23</ele>
        <time>2016-06-03T08:09:38Z</time>
      </trkpt>
      <trkpt lat="47.0008" lon="5.85626">
        <ele>271.71</ele>
        <time>2016-06-03T08:09:50Z</time>
      </trkpt>
      <trkpt lat="47.00077" lon="5.85625">
        <ele>271.23</ele>
        <time>2016-06-03T08:09:53Z</time>
      </trkpt>
      <trkpt lat="47.00073" lon="5.85625">
        <ele>271.23</ele>
        <time>2016-06-03T08:09:56Z</time>
      </trkpt>
      <trkpt lat="47.00071" lon="5.85625">
        <ele>270.75</ele>
        <time>2016-06-03T08:10:11Z</time>
      </trkpt>
      <trkpt lat="47.0007" lon="5.85624">
        <ele>271.71</ele>
        <time>2016-06-03T08:10:26Z</time>
      </trkpt>
      <trkpt lat="47.00068" lon="5.85624">
        <ele>271.71</ele>
        <time>2016-06-03T08:10:36Z</time>
      </trkpt>
      <trkpt lat="47.0006" lon="5.85621">
        <ele>272.19</ele>
        <time>2016-06-03T08:10:43Z</time>
      </trkpt>
      <trkpt lat="47.00041" lon="5.85621">
        <ele>273.15</ele>
        <time>2016-06-03T08:10:59Z</time>
      </trkpt>
      <trkpt lat="47.00036" lon="5.8562">
        <ele>273.15</ele>
        <time>2016-06-03T08:11:03Z</time>
      </trkpt>
      <trkpt lat="47.00028" lon="5.85624">
        <ele>272.67</ele>
        <time>2016-06-03T08:11:10Z</time>
      </trkpt>
      <trkpt lat="47.00025" lon="5.85624">
        <ele>273.15</ele>
        <time>2016-06-03T08:11:13Z</time>
      </trkpt>
      <trkpt lat="47.0002" lon="5.85626">
        <ele>272.67</ele>
        <time>2016-06-03T08:11:18Z</time>
      </trkpt>
      <trkpt lat="47.00001" lon="5.85628">
        <ele>274.11</ele>
        <time>2016-06-03T08:11:32Z</time>
      </trkpt>
      <trkpt lat="46.99995" lon="5.85629">
        <ele>274.59</ele>
        <time>2016-06-03T08:11:37Z</time>
      </trkpt>
      <trkpt lat="46.99978" lon="5.85633">
        <ele>274.59</ele>
        <time>2016-06-03T08:11:52Z</time>
      </trkpt>
      <trkpt lat="46.99967" lon="5.85636">
        <ele>275.07</ele>
        <time>2016-06-03T08:12:06Z</time>
      </trkpt>
      <trkpt lat="46.99966" lon="5.85636">
        <ele>275.07</ele>
        <time>2016-06-03T08:12:07Z</time>
      </trkpt>
      <trkpt lat="46.99952" lon="5.85642">
        <ele>275.56</ele>
        <time>2016-06-03T08:12:20Z</time>
      </trkpt>
      <trkpt lat="46.99943" lon="5.85663">
        <ele>276.04</ele>
        <time>2016-06-03T08:12:33Z</time>
      </trkpt>
      <trkpt lat="46.99943" lon="5.85671">
        <ele>275.56</ele>
        <time>2016-06-03T08:12:38Z</time>
      </trkpt>
      <trkpt lat="46.99942" lon="5.85674">
        <ele>275.07</ele>
        <time>2016-06-03T08:12:40Z</time>
      </trkpt>
      <trkpt lat="46.99942" lon="5.85675">
        <ele>271.71</ele>
        <time>2016-06-03T08:12:52Z</time>
      </trkpt>
      <trkpt lat="46.99942" lon="5.85676">
        <ele>271.23</ele>
        <time>2016-06-03T08:12:53Z</time>
      </trkpt>
      <trkpt lat="46.99942" lon="5.85679">
        <ele>270.27</ele>
        <time>2016-06-03T08:12:56Z</time>
      </trkpt>
      <trkpt lat="46.99941" lon="5.85681">
        <ele>270.27</ele>
        <time>2016-06-03T08:12:58Z</time>
      </trkpt>
      <trkpt lat="46.99942" lon="5.85686">
        <ele>269.79</ele>
        <time>2016-06-03T08:13:01Z</time>
      </trkpt>
      <trkpt lat="46.99937" lon="5.85704">
        <ele>269.31</ele>
        <time>2016-06-03T08:13:13Z</time>
      </trkpt>
      <trkpt lat="46.99937" lon="5.85708">
        <ele>268.83</ele>
        <time>2016-06-03T08:13:15Z</time>
      </trkpt>
      <trkpt lat="46.99935" lon="5.85716">
        <ele>268.35</ele>
        <time>2016-06-03T08:13:21Z</time>
      </trkpt>
      <trkpt lat="46.99932" lon="5.85718">
        <ele>267.86</ele>
        <time>2016-06-03T08:13:25Z</time>
      </trkpt>
      <trkpt lat="46.9993" lon="5.85722">
        <ele>268.35</ele>
        <time>2016-06-03T08:13:29Z</time>
      </trkpt>
      <trkpt lat="46.99916" lon="5.85734">
        <ele>269.79</ele>
        <time>2016-06-03T08:13:40Z</time>
      </trkpt>
      <trkpt lat="46.9991" lon="5.85742">
        <ele>270.75</ele>
        <time>2016-06-03T08:13:47Z</time>
      </trkpt>
      <trkpt lat="46.999" lon="5.85755">
        <ele>271.71</ele>
        <time>2016-06-03T08:13:58Z</time>
      </trkpt>
      <trkpt lat="46.99888" lon="5.85762">
        <ele>272.67</ele>
        <time>2016-06-03T08:14:11Z</time>
      </trkpt>
      <trkpt lat="46.99872" lon="5.85761">
        <ele>275.07</ele>
        <time>2016-06-03T08:14:24Z</time>
      </trkpt>
      <trkpt lat="46.99856" lon="5.85761">
        <ele>273.15</ele>
        <time>2016-06-03T08:14:37Z</time>
      </trkpt>
      <trkpt lat="46.99838" lon="5.85757">
        <ele>272.67</ele>
        <time>2016-06-03T08:14:51Z</time>
      </trkpt>
      <trkpt lat="46.9982" lon="5.85753">
        <ele>272.19</ele>
        <time>2016-06-03T08:15:04Z</time>
      </trkpt>
      <trkpt lat="46.99817" lon="5.85752">
        <ele>272.67</ele>
        <time>2016-06-03T08:15:06Z</time>
      </trkpt>
      <trkpt lat="46.99815" lon="5.8575">
        <ele>272.19</ele>
        <time>2016-06-03T08:15:09Z</time>
      </trkpt>
      <trkpt lat="46.99799" lon="5.85747">
        <ele>271.71</ele>
        <time>2016-06-03T08:15:22Z</time>
      </trkpt>
      <trkpt lat="46.99784" lon="5.85739">
        <ele>272.67</ele>
        <time>2016-06-03T08:15:35Z</time>
      </trkpt>
      <trkpt lat="46.99767" lon="5.85732">
        <ele>273.63</ele>
        <time>2016-06-03T08:15:49Z</time>
      </trkpt>
      <trkpt lat="46.99757" lon="5.8573">
        <ele>275.07</ele>
        <time>2016-06-03T08:15:57Z</time>
      </trkpt>
      <trkpt lat="46.99748" lon="5.85727">
        <ele>276.52</ele>
        <time>2016-06-03T08:16:06Z</time>
      </trkpt>
      <trkpt lat="46.99739" lon="5.85723">
        <ele>276.52</ele>
        <time>2016-06-03T08:16:14Z</time>
      </trkpt>
      <trkpt lat="46.99729" lon="5.85719">
        <ele>277.48</ele>
        <time>2016-06-03T08:16:25Z</time>
      </trkpt>
      <trkpt lat="46.99716" lon="5.85714">
        <ele>278.92</ele>
        <time>2016-06-03T08:16:36Z</time>
      </trkpt>
      <trkpt lat="46.99705" lon="5.85711">
        <ele>279.4</ele>
        <time>2016-06-03T08:16:48Z</time>
      </trkpt>
      <trkpt lat="46.997" lon="5.85732">
        <ele>278.92</ele>
        <time>2016-06-03T08:17:02Z</time>
      </trkpt>
      <trkpt lat="46.997" lon="5.85735">
        <ele>278.44</ele>
        <time>2016-06-03T08:17:04Z</time>
      </trkpt>
      <trkpt lat="46.997" lon="5.85737">
        <ele>278.44</ele>
        <time>2016-06-03T08:17:06Z</time>
      </trkpt>
      <trkpt lat="46.99698" lon="5.85754">
        <ele>277</ele>
        <time>2016-06-03T08:17:16Z</time>
      </trkpt>
      <trkpt lat="46.99696" lon="5.85757">
        <ele>277</ele>
        <time>2016-06-03T08:17:18Z</time>
      </trkpt>
      <trkpt lat="46.99691" lon="5.85767">
        <ele>276.52</ele>
        <time>2016-06-03T08:17:24Z</time>
      </trkpt>
      <trkpt lat="46.99688" lon="5.85771">
        <ele>276.52</ele>
        <time>2016-06-03T08:17:27Z</time>
      </trkpt>
      <trkpt lat="46.99677" lon="5.85786">
        <ele>279.88</ele>
        <time>2016-06-03T08:17:40Z</time>
      </trkpt>
      <trkpt lat="46.99668" lon="5.85795">
        <ele>280.36</ele>
        <time>2016-06-03T08:17:52Z</time>
      </trkpt>
      <trkpt lat="46.99666" lon="5.85797">
        <ele>280.84</ele>
        <time>2016-06-03T08:17:54Z</time>
      </trkpt>
      <trkpt lat="46.99656" lon="5.85807">
        <ele>282.28</ele>
        <time>2016-06-03T08:18:05Z</time>
      </trkpt>
      <trkpt lat="46.99651" lon="5.85812">
        <ele>282.77</ele>
        <time>2016-06-03T08:18:11Z</time>
      </trkpt>
      <trkpt lat="46.99648" lon="5.85816">
        <ele>283.25</ele>
        <time>2016-06-03T08:18:14Z</time>
      </trkpt>
      <trkpt lat="46.99644" lon="5.8582">
        <ele>283.25</ele>
        <time>2016-06-03T08:18:18Z</time>
      </trkpt>
      <trkpt lat="46.9964" lon="5.85824">
        <ele>282.77</ele>
        <time>2016-06-03T08:18:23Z</time>
      </trkpt>
      <trkpt lat="46.9963" lon="5.85833">
        <ele>284.21</ele>
        <time>2016-06-03T08:18:34Z</time>
      </trkpt>
      <trkpt lat="46.99622" lon="5.85843">
        <ele>285.65</ele>
        <time>2016-06-03T08:18:44Z</time>
      </trkpt>
      <trkpt lat="46.99619" lon="5.85848">
        <ele>285.65</ele>
        <time>2016-06-03T08:18:48Z</time>
      </trkpt>
      <trkpt lat="46.99615" lon="5.85852">
        <ele>286.13</ele>
        <time>2016-06-03T08:18:53Z</time>
      </trkpt>
      <trkpt lat="46.99608" lon="5.85862">
        <ele>285.17</ele>
        <time>2016-06-03T08:19:03Z</time>
      </trkpt>
      <trkpt lat="46.99605" lon="5.85868">
        <ele>285.17</ele>
        <time>2016-06-03T08:19:08Z</time>
      </trkpt>
      <trkpt lat="46.99595" lon="5.85881">
        <ele>287.57</ele>
        <time>2016-06-03T08:19:19Z</time>
      </trkpt>
      <trkpt lat="46.99594" lon="5.85884">
        <ele>287.09</ele>
        <time>2016-06-03T08:19:21Z</time>
      </trkpt>
      <trkpt lat="46.99593" lon="5.85886">
        <ele>286.61</ele>
        <time>2016-06-03T08:19:23Z</time>
      </trkpt>
      <trkpt lat="46.9959" lon="5.85891">
        <ele>285.65</ele>
        <time>2016-06-03T08:19:28Z</time>
      </trkpt>
      <trkpt lat="46.99587" lon="5.85895">
        <ele>285.65</ele>
        <time>2016-06-03T08:19:33Z</time>
      </trkpt>
      <trkpt lat="46.9958" lon="5.85907">
        <ele>286.61</ele>
        <time>2016-06-03T08:19:43Z</time>
      </trkpt>
      <trkpt lat="46.9957" lon="5.85919">
        <ele>289.97</ele>
        <time>2016-06-03T08:19:56Z</time>
      </trkpt>
      <trkpt lat="46.99561" lon="5.85924">
        <ele>290.46</ele>
        <time>2016-06-03T08:20:06Z</time>
      </trkpt>
      <trkpt lat="46.99559" lon="5.85925">
        <ele>290.94</ele>
        <time>2016-06-03T08:20:08Z</time>
      </trkpt>
      <trkpt lat="46.99545" lon="5.85927">
        <ele>292.86</ele>
        <time>2016-06-03T08:20:21Z</time>
      </trkpt>
      <trkpt lat="46.99533" lon="5.85929">
        <ele>291.9</ele>
        <time>2016-06-03T08:20:33Z</time>
      </trkpt>
      <trkpt lat="46.99525" lon="5.85927">
        <ele>291.42</ele>
        <time>2016-06-03T08:20:40Z</time>
      </trkpt>
      <trkpt lat="46.99521" lon="5.85927">
        <ele>291.9</ele>
        <time>2016-06-03T08:20:44Z</time>
      </trkpt>
      <trkpt lat="46.99509" lon="5.85925">
        <ele>291.9</ele>
        <time>2016-06-03T08:20:57Z</time>
      </trkpt>
      <trkpt lat="46.99498" lon="5.85921">
        <ele>291.42</ele>
        <time>2016-06-03T08:21:09Z</time>
      </trkpt>
      <trkpt lat="46.9949" lon="5.85928">
        <ele>289.97</ele>
        <time>2016-06-03T08:21:18Z</time>
      </trkpt>
      <trkpt lat="46.99478" lon="5.85937">
        <ele>291.9</ele>
        <time>2016-06-03T08:21:30Z</time>
      </trkpt>
      <trkpt lat="46.99467" lon="5.85946">
        <ele>292.38</ele>
        <time>2016-06-03T08:21:43Z</time>
      </trkpt>
      <trkpt lat="46.99455" lon="5.85955">
        <ele>293.34</ele>
        <time>2016-06-03T08:21:56Z</time>
      </trkpt>
      <trkpt lat="46.99452" lon="5.85957">
        <ele>293.34</ele>
        <time>2016-06-03T08:21:59Z</time>
      </trkpt>
      <trkpt lat="46.99448" lon="5.85961">
        <ele>293.34</ele>
        <time>2016-06-03T08:22:04Z</time>
      </trkpt>
      <trkpt lat="46.99441" lon="5.85966">
        <ele>294.3</ele>
        <time>2016-06-03T08:22:13Z</time>
      </trkpt>
      <trkpt lat="46.99437" lon="5.8597">
        <ele>294.78</ele>
        <time>2016-06-03T08:22:18Z</time>
      </trkpt>
      <trkpt lat="46.99428" lon="5.85982">
        <ele>294.78</ele>
        <time>2016-06-03T08:22:31Z</time>
      </trkpt>
      <trkpt lat="46.9942" lon="5.85993">
        <ele>295.26</ele>
        <time>2016-06-03T08:22:44Z</time>
      </trkpt>
      <trkpt lat="46.9942" lon="5.85994">
        <ele>295.26</ele>
        <time>2016-06-03T08:22:45Z</time>
      </trkpt>
      <trkpt lat="46.99419" lon="5.85997">
        <ele>296.22</ele>
        <time>2016-06-03T08:22:48Z</time>
      </trkpt>
      <trkpt lat="46.99414" lon="5.8601">
        <ele>297.18</ele>
        <time>2016-06-03T08:22:59Z</time>
      </trkpt>
      <trkpt lat="46.99408" lon="5.86021">
        <ele>296.22</ele>
        <time>2016-06-03T08:23:09Z</time>
      </trkpt>
      <trkpt lat="46.99403" lon="5.86034">
        <ele>297.18</ele>
        <time>2016-06-03T08:23:21Z</time>
      </trkpt>
      <trkpt lat="46.99399" lon="5.86046">
        <ele>298.15</ele>
        <time>2016-06-03T08:23:30Z</time>
      </trkpt>
      <trkpt lat="46.99396" lon="5.86062">
        <ele>297.18</ele>
        <time>2016-06-03T08:23:42Z</time>
      </trkpt>
      <trkpt lat="46.99396" lon="5.86066">
        <ele>296.7</ele>
        <time>2016-06-03T08:23:45Z</time>
      </trkpt>
      <trkpt lat="46.99396" lon="5.86069">
        <ele>297.67</ele>
        <time>2016-06-03T08:23:48Z</time>
      </trkpt>
      <trkpt lat="46.99397" lon="5.86074">
        <ele>298.15</ele>
        <time>2016-06-03T08:23:51Z</time>
      </trkpt>
      <trkpt lat="46.99397" lon="5.86088">
        <ele>297.18</ele>
        <time>2016-06-03T08:24:01Z</time>
      </trkpt>
      <trkpt lat="46.99396" lon="5.86104">
        <ele>297.18</ele>
        <time>2016-06-03T08:24:13Z</time>
      </trkpt>
      <trkpt lat="46.99394" lon="5.86112">
        <ele>297.18</ele>
        <time>2016-06-03T08:24:20Z</time>
      </trkpt>
      <trkpt lat="46.99393" lon="5.86117">
        <ele>298.15</ele>
        <time>2016-06-03T08:24:24Z</time>
      </trkpt>
      <trkpt lat="46.99388" lon="5.86127">
        <ele>297.67</ele>
        <time>2016-06-03T08:24:35Z</time>
      </trkpt>
      <trkpt lat="46.99382" lon="5.86137">
        <ele>297.18</ele>
        <time>2016-06-03T08:24:47Z</time>
      </trkpt>
      <trkpt lat="46.9938" lon="5.86141">
        <ele>297.18</ele>
        <time>2016-06-03T08:24:51Z</time>
      </trkpt>
      <trkpt lat="46.9937" lon="5.86145">
        <ele>299.11</ele>
        <time>2016-06-03T08:25:05Z</time>
      </trkpt>
      <trkpt lat="46.99357" lon="5.86146">
        <ele>304.39</ele>
        <time>2016-06-03T08:25:20Z</time>
      </trkpt>
      <trkpt lat="46.99349" lon="5.86147">
        <ele>307.28</ele>
        <time>2016-06-03T08:25:32Z</time>
      </trkpt>
      <trkpt lat="46.99341" lon="5.86146">
        <ele>306.8</ele>
        <time>2016-06-03T08:25:43Z</time>
      </trkpt>
      <trkpt lat="46.99335" lon="5.86146">
        <ele>307.76</ele>
        <time>2016-06-03T08:25:55Z</time>
      </trkpt>
      <trkpt lat="46.99335" lon="5.86146">
        <ele>308.24</ele>
        <time>2016-06-03T08:25:58Z</time>
      </trkpt>
      <trkpt lat="46.99325" lon="5.86149">
        <ele>310.16</ele>
        <time>2016-06-03T08:26:10Z</time>
      </trkpt>
      <trkpt lat="46.99324" lon="5.86149">
        <ele>310.16</ele>
        <time>2016-06-03T08:26:11Z</time>
      </trkpt>
      <trkpt lat="46.99311" lon="5.86152">
        <ele>311.12</ele>
        <time>2016-06-03T08:26:26Z</time>
      </trkpt>
      <trkpt lat="46.99301" lon="5.86155">
        <ele>312.09</ele>
        <time>2016-06-03T08:26:40Z</time>
      </trkpt>
      <trkpt lat="46.99293" lon="5.86158">
        <ele>314.01</ele>
        <time>2016-06-03T08:26:53Z</time>
      </trkpt>
      <trkpt lat="46.99286" lon="5.86163">
        <ele>313.53</ele>
        <time>2016-06-03T08:27:07Z</time>
      </trkpt>
      <trkpt lat="46.99278" lon="5.86166">
        <ele>315.93</ele>
        <time>2016-06-03T08:27:19Z</time>
      </trkpt>
      <trkpt lat="46.99266" lon="5.86171">
        <ele>316.41</ele>
        <time>2016-06-03T08:27:36Z</time>
      </trkpt>
      <trkpt lat="46.9926" lon="5.86174">
        <ele>318.81</ele>
        <time>2016-06-03T08:27:49Z</time>
      </trkpt>
      <trkpt lat="46.9925" lon="5.8618">
        <ele>322.66</ele>
        <time>2016-06-03T08:28:04Z</time>
      </trkpt>
      <trkpt lat="46.99241" lon="5.86182">
        <ele>324.1</ele>
        <time>2016-06-03T08:28:17Z</time>
      </trkpt>
      <trkpt lat="46.99233" lon="5.86186">
        <ele>324.58</ele>
        <time>2016-06-03T08:28:30Z</time>
      </trkpt>
      <trkpt lat="46.99229" lon="5.86191">
        <ele>325.06</ele>
        <time>2016-06-03T08:28:45Z</time>
      </trkpt>
      <trkpt lat="46.99221" lon="5.86197">
        <ele>326.5</ele>
        <time>2016-06-03T08:29:00Z</time>
      </trkpt>
      <trkpt lat="46.99212" lon="5.86205">
        <ele>330.35</ele>
        <time>2016-06-03T08:29:12Z</time>
      </trkpt>
      <trkpt lat="46.99207" lon="5.8621">
        <ele>332.75</ele>
        <time>2016-06-03T08:29:23Z</time>
      </trkpt>
      <trkpt lat="46.99197" lon="5.86218">
        <ele>335.16</ele>
        <time>2016-06-03T08:29:40Z</time>
      </trkpt>
      <trkpt lat="46.99189" lon="5.86222">
        <ele>335.64</ele>
        <time>2016-06-03T08:29:51Z</time>
      </trkpt>
      <trkpt lat="46.99183" lon="5.86226">
        <ele>336.6</ele>
        <time>2016-06-03T08:30:02Z</time>
      </trkpt>
      <trkpt lat="46.99173" lon="5.86229">
        <ele>339</ele>
        <time>2016-06-03T08:30:15Z</time>
      </trkpt>
      <trkpt lat="46.99171" lon="5.86232">
        <ele>338.52</ele>
        <time>2016-06-03T08:30:33Z</time>
      </trkpt>
      <trkpt lat="46.99167" lon="5.86242">
        <ele>338.52</ele>
        <time>2016-06-03T08:30:48Z</time>
      </trkpt>
      <trkpt lat="46.99165" lon="5.86254">
        <ele>338.04</ele>
        <time>2016-06-03T08:31:01Z</time>
      </trkpt>
      <trkpt lat="46.99162" lon="5.86266">
        <ele>337.08</ele>
        <time>2016-06-03T08:31:17Z</time>
      </trkpt>
      <trkpt lat="46.9916" lon="5.86272">
        <ele>336.6</ele>
        <time>2016-06-03T08:31:32Z</time>
      </trkpt>
      <trkpt lat="46.99159" lon="5.86279">
        <ele>337.08</ele>
        <time>2016-06-03T08:31:47Z</time>
      </trkpt>
      <trkpt lat="46.99158" lon="5.86288">
        <ele>336.6</ele>
        <time>2016-06-03T08:32:00Z</time>
      </trkpt>
      <trkpt lat="46.99155" lon="5.86293">
        <ele>336.12</ele>
        <time>2016-06-03T08:32:14Z</time>
      </trkpt>
      <trkpt lat="46.99153" lon="5.86304">
        <ele>338.04</ele>
        <time>2016-06-03T08:32:31Z</time>
      </trkpt>
      <trkpt lat="46.99152" lon="5.86311">
        <ele>340.92</ele>
        <time>2016-06-03T08:32:47Z</time>
      </trkpt>
      <trkpt lat="46.99149" lon="5.86317">
        <ele>342.37</ele>
        <time>2016-06-03T08:33:04Z</time>
      </trkpt>
      <trkpt lat="46.99144" lon="5.86332">
        <ele>344.77</ele>
        <time>2016-06-03T08:33:20Z</time>
      </trkpt>
      <trkpt lat="46.99141" lon="5.86342">
        <ele>346.21</ele>
        <time>2016-06-03T08:33:35Z</time>
      </trkpt>
      <trkpt lat="46.99143" lon="5.86357">
        <ele>346.21</ele>
        <time>2016-06-03T08:33:53Z</time>
      </trkpt>
      <trkpt lat="46.99144" lon="5.86363">
        <ele>347.17</ele>
        <time>2016-06-03T08:34:08Z</time>
      </trkpt>
      <trkpt lat="46.99151" lon="5.86381">
        <ele>346.21</ele>
        <time>2016-06-03T08:34:22Z</time>
      </trkpt>
      <trkpt lat="46.99156" lon="5.86391">
        <ele>346.69</ele>
        <time>2016-06-03T08:34:35Z</time>
      </trkpt>
      <trkpt lat="46.99158" lon="5.86403">
        <ele>348.62</ele>
        <time>2016-06-03T08:34:48Z</time>
      </trkpt>
      <trkpt lat="46.99165" lon="5.86421">
        <ele>350.06</ele>
        <time>2016-06-03T08:35:07Z</time>
      </trkpt>
      <trkpt lat="46.9917" lon="5.86435">
        <ele>351.02</ele>
        <time>2016-06-03T08:35:21Z</time>
      </trkpt>
      <trkpt lat="46.9918" lon="5.86454">
        <ele>356.79</ele>
        <time>2016-06-03T08:35:39Z</time>
      </trkpt>
      <trkpt lat="46.99186" lon="5.86465">
        <ele>355.83</ele>
        <time>2016-06-03T08:35:56Z</time>
      </trkpt>
      <trkpt lat="46.99187" lon="5.86476">
        <ele>351.5</ele>
        <time>2016-06-03T08:36:12Z</time>
      </trkpt>
      <trkpt lat="46.99191" lon="5.86487">
        <ele>350.06</ele>
        <time>2016-06-03T08:36:30Z</time>
      </trkpt>
      <trkpt lat="46.99196" lon="5.8651">
        <ele>351.98</ele>
        <time>2016-06-03T08:36:43Z</time>
      </trkpt>
      <trkpt lat="46.99203" lon="5.86531">
        <ele>352.46</ele>
        <time>2016-06-03T08:36:56Z</time>
      </trkpt>
      <trkpt lat="46.99206" lon="5.86544">
        <ele>357.75</ele>
        <time>2016-06-03T08:37:11Z</time>
      </trkpt>
      <trkpt lat="46.9921" lon="5.86561">
        <ele>367.84</ele>
        <time>2016-06-03T08:37:25Z</time>
      </trkpt>
      <trkpt lat="46.99211" lon="5.86569">
        <ele>368.32</ele>
        <time>2016-06-03T08:37:39Z</time>
      </trkpt>
      <trkpt lat="46.99214" lon="5.8658">
        <ele>368.32</ele>
        <time>2016-06-03T08:37:56Z</time>
      </trkpt>
      <trkpt lat="46.99218" lon="5.86601">
        <ele>371.69</ele>
        <time>2016-06-03T08:38:09Z</time>
      </trkpt>
      <trkpt lat="46.99216" lon="5.86616">
        <ele>376.49</ele>
        <time>2016-06-03T08:38:22Z</time>
      </trkpt>
      <trkpt lat="46.99217" lon="5.86621">
        <ele>377.45</ele>
        <time>2016-06-03T08:38:39Z</time>
      </trkpt>
      <trkpt lat="46.99215" lon="5.86633">
        <ele>375.53</ele>
        <time>2016-06-03T08:38:55Z</time>
      </trkpt>
      <trkpt lat="46.99214" lon="5.86642">
        <ele>375.05</ele>
        <time>2016-06-03T08:39:09Z</time>
      </trkpt>
      <trkpt lat="46.99213" lon="5.86652">
        <ele>375.05</ele>
        <time>2016-06-03T08:39:26Z</time>
      </trkpt>
      <trkpt lat="46.99212" lon="5.86679">
        <ele>376.97</ele>
        <time>2016-06-03T08:39:42Z</time>
      </trkpt>
      <trkpt lat="46.99213" lon="5.86691">
        <ele>379.86</ele>
        <time>2016-06-03T08:39:57Z</time>
      </trkpt>
      <trkpt lat="46.99211" lon="5.86698">
        <ele>380.34</ele>
        <time>2016-06-03T08:40:09Z</time>
      </trkpt>
      <trkpt lat="46.99209" lon="5.86715">
        <ele>381.3</ele>
        <time>2016-06-03T08:40:26Z</time>
      </trkpt>
      <trkpt lat="46.99212" lon="5.8673">
        <ele>386.59</ele>
        <time>2016-06-03T08:40:39Z</time>
      </trkpt>
      <trkpt lat="46.9921" lon="5.86745">
        <ele>388.03</ele>
        <time>2016-06-03T08:40:55Z</time>
      </trkpt>
      <trkpt lat="46.99211" lon="5.86755">
        <ele>388.99</ele>
        <time>2016-06-03T08:41:09Z</time>
      </trkpt>
      <trkpt lat="46.99208" lon="5.86763">
        <ele>388.99</ele>
        <time>2016-06-03T08:41:24Z</time>
      </trkpt>
      <trkpt lat="46.99208" lon="5.86765">
        <ele>388.51</ele>
        <time>2016-06-03T08:41:49Z</time>
      </trkpt>
      <trkpt lat="46.99208" lon="5.86769">
        <ele>389.47</ele>
        <time>2016-06-03T08:42:11Z</time>
      </trkpt>
      <trkpt lat="46.99207" lon="5.86773">
        <ele>389.47</ele>
        <time>2016-06-03T08:42:32Z</time>
      </trkpt>
      <trkpt lat="46.99207" lon="5.8679">
        <ele>391.39</ele>
        <time>2016-06-03T08:42:50Z</time>
      </trkpt>
      <trkpt lat="46.99207" lon="5.86798">
        <ele>393.32</ele>
        <time>2016-06-03T08:43:07Z</time>
      </trkpt>
      <trkpt lat="46.99204" lon="5.86809">
        <ele>394.76</ele>
        <time>2016-06-03T08:43:21Z</time>
      </trkpt>
      <trkpt lat="46.99198" lon="5.86813">
        <ele>399.57</ele>
        <time>2016-06-03T08:43:36Z</time>
      </trkpt>
      <trkpt lat="46.99189" lon="5.8681">
        <ele>404.37</ele>
        <time>2016-06-03T08:43:48Z</time>
      </trkpt>
      <trkpt lat="46.99181" lon="5.86806">
        <ele>407.26</ele>
        <time>2016-06-03T08:44:01Z</time>
      </trkpt>
      <trkpt lat="46.99178" lon="5.86806">
        <ele>408.22</ele>
        <time>2016-06-03T08:44:12Z</time>
      </trkpt>
      <trkpt lat="46.9916" lon="5.86795">
        <ele>408.22</ele>
        <time>2016-06-03T08:44:28Z</time>
      </trkpt>
      <trkpt lat="46.99147" lon="5.86786">
        <ele>409.66</ele>
        <time>2016-06-03T08:44:46Z</time>
      </trkpt>
      <trkpt lat="46.99136" lon="5.86778">
        <ele>414.95</ele>
        <time>2016-06-03T08:45:04Z</time>
      </trkpt>
      <trkpt lat="46.9913" lon="5.86771">
        <ele>417.35</ele>
        <time>2016-06-03T08:45:19Z</time>
      </trkpt>
      <trkpt lat="46.99124" lon="5.86769">
        <ele>419.27</ele>
        <time>2016-06-03T08:45:37Z</time>
      </trkpt>
      <trkpt lat="46.99114" lon="5.86766">
        <ele>419.27</ele>
        <time>2016-06-03T08:45:54Z</time>
      </trkpt>
      <trkpt lat="46.99106" lon="5.86764">
        <ele>420.23</ele>
        <time>2016-06-03T08:46:11Z</time>
      </trkpt>
      <trkpt lat="46.99099" lon="5.86766">
        <ele>421.19</ele>
        <time>2016-06-03T08:46:28Z</time>
      </trkpt>
      <trkpt lat="46.99095" lon="5.86761">
        <ele>420.71</ele>
        <time>2016-06-03T08:46:46Z</time>
      </trkpt>
      <trkpt lat="46.99093" lon="5.86757">
        <ele>420.23</ele>
        <time>2016-06-03T08:47:02Z</time>
      </trkpt>
      <trkpt lat="46.99089" lon="5.86742">
        <ele>418.79</ele>
        <time>2016-06-03T08:47:19Z</time>
      </trkpt>
      <trkpt lat="46.99083" lon="5.86728">
        <ele>417.83</ele>
        <time>2016-06-03T08:47:35Z</time>
      </trkpt>
      <trkpt lat="46.99068" lon="5.86695">
        <ele>418.79</ele>
        <time>2016-06-03T08:47:51Z</time>
      </trkpt>
      <trkpt lat="46.99061" lon="5.86671">
        <ele>421.19</ele>
        <time>2016-06-03T08:48:04Z</time>
      </trkpt>
      <trkpt lat="46.99058" lon="5.86662">
        <ele>420.71</ele>
        <time>2016-06-03T08:48:16Z</time>
      </trkpt>
      <trkpt lat="46.9905" lon="5.86649">
        <ele>417.35</ele>
        <time>2016-06-03T08:48:28Z</time>
      </trkpt>
      <trkpt lat="46.99042" lon="5.86639">
        <ele>413.98</ele>
        <time>2016-06-03T08:48:39Z</time>
      </trkpt>
      <trkpt lat="46.99034" lon="5.86623">
        <ele>412.54</ele>
        <time>2016-06-03T08:48:52Z</time>
      </trkpt>
      <trkpt lat="46.99026" lon="5.86608">
        <ele>412.54</ele>
        <time>2016-06-03T08:49:03Z</time>
      </trkpt>
      <trkpt lat="46.99019" lon="5.86598">
        <ele>413.02</ele>
        <time>2016-06-03T08:49:14Z</time>
      </trkpt>
      <trkpt lat="46.99011" lon="5.86581">
        <ele>413.5</ele>
        <time>2016-06-03T08:49:26Z</time>
      </trkpt>
      <trkpt lat="46.99001" lon="5.8657">
        <ele>413.02</ele>
        <time>2016-06-03T08:49:37Z</time>
      </trkpt>
      <trkpt lat="46.98993" lon="5.86557">
        <ele>411.58</ele>
        <time>2016-06-03T08:49:50Z</time>
      </trkpt>
      <trkpt lat="46.98984" lon="5.86547">
        <ele>410.62</ele>
        <time>2016-06-03T08:50:02Z</time>
      </trkpt>
      <trkpt lat="46.9898" lon="5.86542">
        <ele>411.1</ele>
        <time>2016-06-03T08:50:07Z</time>
      </trkpt>
      <trkpt lat="46.9897" lon="5.86533">
        <ele>412.06</ele>
        <time>2016-06-03T08:50:20Z</time>
      </trkpt>
      <trkpt lat="46.98961" lon="5.86517">
        <ele>409.18</ele>
        <time>2016-06-03T08:50:34Z</time>
      </trkpt>
      <trkpt lat="46.98953" lon="5.86507">
        <ele>410.14</ele>
        <time>2016-06-03T08:50:44Z</time>
      </trkpt>
      <trkpt lat="46.98948" lon="5.86496">
        <ele>408.7</ele>
        <time>2016-06-03T08:50:57Z</time>
      </trkpt>
      <trkpt lat="46.98939" lon="5.86487">
        <ele>408.22</ele>
        <time>2016-06-03T08:51:11Z</time>
      </trkpt>
      <trkpt lat="46.9893" lon="5.8647">
        <ele>407.74</ele>
        <time>2016-06-03T08:51:25Z</time>
      </trkpt>
      <trkpt lat="46.98924" lon="5.8646">
        <ele>406.29</ele>
        <time>2016-06-03T08:51:37Z</time>
      </trkpt>
      <trkpt lat="46.98918" lon="5.8645">
        <ele>406.29</ele>
        <time>2016-06-03T08:51:51Z</time>
      </trkpt>
      <trkpt lat="46.98917" lon="5.86448">
        <ele>405.81</ele>
        <time>2016-06-03T08:51:55Z</time>
      </trkpt>
      <trkpt lat="46.98907" lon="5.86427">
        <ele>403.41</ele>
        <time>2016-06-03T08:52:05Z</time>
      </trkpt>
      <trkpt lat="46.98899" lon="5.86411">
        <ele>401.97</ele>
        <time>2016-06-03T08:52:19Z</time>
      </trkpt>
      <trkpt lat="46.98891" lon="5.86397">
        <ele>401.01</ele>
        <time>2016-06-03T08:52:32Z</time>
      </trkpt>
      <trkpt lat="46.98884" lon="5.86386">
        <ele>399.08</ele>
        <time>2016-06-03T08:52:44Z</time>
      </trkpt>
      <trkpt lat="46.98879" lon="5.86379">
        <ele>398.12</ele>
        <time>2016-06-03T08:52:58Z</time>
      </trkpt>
      <trkpt lat="46.98874" lon="5.86373">
        <ele>393.32</ele>
        <time>2016-06-03T08:53:09Z</time>
      </trkpt>
      <trkpt lat="46.98862" lon="5.86357">
        <ele>391.87</ele>
        <time>2016-06-03T08:53:20Z</time>
      </trkpt>
      <trkpt lat="46.98853" lon="5.86348">
        <ele>389.47</ele>
        <time>2016-06-03T08:53:32Z</time>
      </trkpt>
      <trkpt lat="46.98847" lon="5.86338">
        <ele>386.11</ele>
        <time>2016-06-03T08:53:45Z</time>
      </trkpt>
      <trkpt lat="46.98832" lon="5.8632">
        <ele>389.47</ele>
        <time>2016-06-03T08:54:01Z</time>
      </trkpt>
      <trkpt lat="46.98823" lon="5.86308">
        <ele>390.43</ele>
        <time>2016-06-03T08:54:13Z</time>
      </trkpt>
      <trkpt lat="46.98817" lon="5.86298">
        <ele>392.36</ele>
        <time>2016-06-03T08:54:23Z</time>
      </trkpt>
      <trkpt lat="46.98805" lon="5.8628">
        <ele>394.28</ele>
        <time>2016-06-03T08:54:34Z</time>
      </trkpt>
      <trkpt lat="46.98795" lon="5.86268">
        <ele>394.28</ele>
        <time>2016-06-03T08:54:48Z</time>
      </trkpt>
      <trkpt lat="46.98784" lon="5.86254">
        <ele>394.28</ele>
        <time>2016-06-03T08:55:01Z</time>
      </trkpt>
      <trkpt lat="46.98775" lon="5.86244">
        <ele>393.8</ele>
        <time>2016-06-03T08:55:12Z</time>
      </trkpt>
      <trkpt lat="46.98765" lon="5.86233">
        <ele>390.43</ele>
        <time>2016-06-03T08:55:26Z</time>
      </trkpt>
      <trkpt lat="46.98756" lon="5.86223">
        <ele>388.99</ele>
        <time>2016-06-03T08:55:37Z</time>
      </trkpt>
      <trkpt lat="46.98749" lon="5.86216">
        <ele>387.55</ele>
        <time>2016-06-03T08:55:48Z</time>
      </trkpt>
      <trkpt lat="46.98739" lon="5.86207">
        <ele>385.63</ele>
        <time>2016-06-03T08:56:01Z</time>
      </trkpt>
      <trkpt lat="46.98727" lon="5.86194">
        <ele>384.18</ele>
        <time>2016-06-03T08:56:15Z</time>
      </trkpt>
      <trkpt lat="46.98717" lon="5.86183">
        <ele>383.7</ele>
        <time>2016-06-03T08:56:28Z</time>
      </trkpt>
      <trkpt lat="46.98706" lon="5.86174">
        <ele>382.74</ele>
        <time>2016-06-03T08:56:41Z</time>
      </trkpt>
      <trkpt lat="46.98696" lon="5.86166">
        <ele>381.78</ele>
        <time>2016-06-03T08:56:56Z</time>
      </trkpt>
      <trkpt lat="46.9868" lon="5.86154">
        <ele>379.86</ele>
        <time>2016-06-03T08:57:09Z</time>
      </trkpt>
      <trkpt lat="46.98672" lon="5.86149">
        <ele>379.86</ele>
        <time>2016-06-03T08:57:24Z</time>
      </trkpt>
      <trkpt lat="46.98666" lon="5.86146">
        <ele>380.82</ele>
        <time>2016-06-03T08:57:45Z</time>
      </trkpt>
      <trkpt lat="46.98656" lon="5.86135">
        <ele>382.74</ele>
        <time>2016-06-03T08:58:03Z</time>
      </trkpt>
      <trkpt lat="46.98646" lon="5.86126">
        <ele>383.7</ele>
        <time>2016-06-03T08:58:16Z</time>
      </trkpt>
      <trkpt lat="46.98628" lon="5.86109">
        <ele>384.66</ele>
        <time>2016-06-03T08:58:30Z</time>
      </trkpt>
      <trkpt lat="46.98612" lon="5.861">
        <ele>383.7</ele>
        <time>2016-06-03T08:58:45Z</time>
      </trkpt>
      <trkpt lat="46.986" lon="5.86094">
        <ele>383.22</ele>
        <time>2016-06-03T08:58:57Z</time>
      </trkpt>
      <trkpt lat="46.98588" lon="5.86091">
        <ele>380.82</ele>
        <time>2016-06-03T08:59:09Z</time>
      </trkpt>
      <trkpt lat="46.98576" lon="5.86088">
        <ele>378.9</ele>
        <time>2016-06-03T08:59:22Z</time>
      </trkpt>
      <trkpt lat="46.98572" lon="5.86087">
        <ele>378.9</ele>
        <time>2016-06-03T08:59:25Z</time>
      </trkpt>
      <trkpt lat="46.98564" lon="5.86085">
        <ele>376.49</ele>
        <time>2016-06-03T08:59:35Z</time>
      </trkpt>
      <trkpt lat="46.98563" lon="5.86084">
        <ele>376.49</ele>
        <time>2016-06-03T08:59:36Z</time>
      </trkpt>
      <trkpt lat="46.9856" lon="5.86083">
        <ele>376.01</ele>
        <time>2016-06-03T08:59:38Z</time>
      </trkpt>
      <trkpt lat="46.98552" lon="5.86079">
        <ele>375.53</ele>
        <time>2016-06-03T08:59:47Z</time>
      </trkpt>
      <trkpt lat="46.9854" lon="5.86077">
        <ele>377.45</ele>
        <time>2016-06-03T08:59:57Z</time>
      </trkpt>
      <trkpt lat="46.98529" lon="5.86075">
        <ele>379.38</ele>
        <time>2016-06-03T09:00:08Z</time>
      </trkpt>
      <trkpt lat="46.98518" lon="5.86069">
        <ele>378.9</ele>
        <time>2016-06-03T09:00:19Z</time>
      </trkpt>
      <trkpt lat="46.98516" lon="5.86069">
        <ele>379.38</ele>
        <time>2016-06-03T09:00:21Z</time>
      </trkpt>
      <trkpt lat="46.98506" lon="5.86069">
        <ele>378.9</ele>
        <time>2016-06-03T09:00:33Z</time>
      </trkpt>
      <trkpt lat="46.98495" lon="5.8606">
        <ele>378.42</ele>
        <time>2016-06-03T09:00:44Z</time>
      </trkpt>
      <trkpt lat="46.98483" lon="5.86055">
        <ele>378.9</ele>
        <time>2016-06-03T09:00:56Z</time>
      </trkpt>
      <trkpt lat="46.98479" lon="5.86054">
        <ele>378.42</ele>
        <time>2016-06-03T09:01:02Z</time>
      </trkpt>
      <trkpt lat="46.98471" lon="5.86056">
        <ele>377.45</ele>
        <time>2016-06-03T09:01:15Z</time>
      </trkpt>
      <trkpt lat="46.98462" lon="5.86057">
        <ele>377.45</ele>
        <time>2016-06-03T09:01:27Z</time>
      </trkpt>
      <trkpt lat="46.98449" lon="5.8605">
        <ele>379.86</ele>
        <time>2016-06-03T09:01:42Z</time>
      </trkpt>
      <trkpt lat="46.98439" lon="5.8604">
        <ele>382.26</ele>
        <time>2016-06-03T09:01:53Z</time>
      </trkpt>
      <trkpt lat="46.98425" lon="5.86023">
        <ele>385.15</ele>
        <time>2016-06-03T09:02:07Z</time>
      </trkpt>
      <trkpt lat="46.98413" lon="5.86017">
        <ele>385.15</ele>
        <time>2016-06-03T09:02:20Z</time>
      </trkpt>
      <trkpt lat="46.98397" lon="5.86008">
        <ele>386.11</ele>
        <time>2016-06-03T09:02:36Z</time>
      </trkpt>
      <trkpt lat="46.98387" lon="5.86">
        <ele>386.59</ele>
        <time>2016-06-03T09:02:47Z</time>
      </trkpt>
      <trkpt lat="46.9838" lon="5.85995">
        <ele>385.15</ele>
        <time>2016-06-03T09:02:57Z</time>
      </trkpt>
      <trkpt lat="46.98366" lon="5.85982">
        <ele>385.63</ele>
        <time>2016-06-03T09:03:09Z</time>
      </trkpt>
      <trkpt lat="46.9835" lon="5.8597">
        <ele>385.15</ele>
        <time>2016-06-03T09:03:23Z</time>
      </trkpt>
      <trkpt lat="46.98343" lon="5.85961">
        <ele>384.66</ele>
        <time>2016-06-03T09:03:34Z</time>
      </trkpt>
      <trkpt lat="46.98332" lon="5.85952">
        <ele>383.22</ele>
        <time>2016-06-03T09:03:46Z</time>
      </trkpt>
      <trkpt lat="46.98331" lon="5.85951">
        <ele>382.74</ele>
        <time>2016-06-03T09:03:50Z</time>
      </trkpt>
      <trkpt lat="46.98329" lon="5.85948">
        <ele>381.78</ele>
        <time>2016-06-03T09:03:52Z</time>
      </trkpt>
      <trkpt lat="46.98322" lon="5.85942">
        <ele>379.86</ele>
        <time>2016-06-03T09:04:03Z</time>
      </trkpt>
      <trkpt lat="46.98306" lon="5.85925">
        <ele>378.9</ele>
        <time>2016-06-03T09:04:17Z</time>
      </trkpt>
      <trkpt lat="46.98296" lon="5.85917">
        <ele>378.9</ele>
        <time>2016-06-03T09:04:26Z</time>
      </trkpt>
      <trkpt lat="46.98289" lon="5.85911">
        <ele>378.42</ele>
        <time>2016-06-03T09:04:36Z</time>
      </trkpt>
      <trkpt lat="46.98276" lon="5.85901">
        <ele>377.94</ele>
        <time>2016-06-03T09:04:48Z</time>
      </trkpt>
      <trkpt lat="46.98274" lon="5.85898">
        <ele>377.94</ele>
        <time>2016-06-03T09:04:50Z</time>
      </trkpt>
      <trkpt lat="46.9827" lon="5.85893">
        <ele>378.42</ele>
        <time>2016-06-03T09:04:55Z</time>
      </trkpt>
      <trkpt lat="46.98264" lon="5.85888">
        <ele>379.38</ele>
        <time>2016-06-03T09:04:59Z</time>
      </trkpt>
      <trkpt lat="46.9826" lon="5.85884">
        <ele>379.86</ele>
        <time>2016-06-03T09:05:02Z</time>
      </trkpt>
      <trkpt lat="46.98254" lon="5.85877">
        <ele>379.86</ele>
        <time>2016-06-03T09:05:08Z</time>
      </trkpt>
      <trkpt lat="46.98243" lon="5.8587">
        <ele>379.86</ele>
        <time>2016-06-03T09:05:19Z</time>
      </trkpt>
      <trkpt lat="46.98233" lon="5.85868">
        <ele>380.82</ele>
        <time>2016-06-03T09:05:29Z</time>
      </trkpt>
      <trkpt lat="46.98216" lon="5.85857">
        <ele>377.94</ele>
        <time>2016-06-03T09:05:44Z</time>
      </trkpt>
      <trkpt lat="46.98211" lon="5.85853">
        <ele>376.01</ele>
        <time>2016-06-03T09:05:51Z</time>
      </trkpt>
      <trkpt lat="46.98198" lon="5.85841">
        <ele>372.17</ele>
        <time>2016-06-03T09:06:02Z</time>
      </trkpt>
      <trkpt lat="46.98196" lon="5.85839">
        <ele>371.69</ele>
        <time>2016-06-03T09:06:04Z</time>
      </trkpt>
      <trkpt lat="46.98187" lon="5.8583">
        <ele>369.76</ele>
        <time>2016-06-03T09:06:16Z</time>
      </trkpt>
      <trkpt lat="46.98177" lon="5.85821">
        <ele>366.4</ele>
        <time>2016-06-03T09:06:28Z</time>
      </trkpt>
      <trkpt lat="46.98172" lon="5.85811">
        <ele>364.96</ele>
        <time>2016-06-03T09:06:38Z</time>
      </trkpt>
      <trkpt lat="46.98167" lon="5.85795">
        <ele>365.44</ele>
        <time>2016-06-03T09:06:51Z</time>
      </trkpt>
      <trkpt lat="46.98155" lon="5.85763">
        <ele>371.21</ele>
        <time>2016-06-03T09:07:06Z</time>
      </trkpt>
      <trkpt lat="46.98148" lon="5.85747">
        <ele>372.17</ele>
        <time>2016-06-03T09:07:18Z</time>
      </trkpt>
      <trkpt lat="46.98146" lon="5.85739">
        <ele>372.17</ele>
        <time>2016-06-03T09:07:24Z</time>
      </trkpt>
      <trkpt lat="46.9814" lon="5.85723">
        <ele>368.8</ele>
        <time>2016-06-03T09:07:37Z</time>
      </trkpt>
      <trkpt lat="46.98131" lon="5.85701">
        <ele>370.24</ele>
        <time>2016-06-03T09:07:50Z</time>
      </trkpt>
      <trkpt lat="46.98123" lon="5.8569">
        <ele>369.76</ele>
        <time>2016-06-03T09:08:02Z</time>
      </trkpt>
      <trkpt lat="46.98122" lon="5.85688">
        <ele>369.28</ele>
        <time>2016-06-03T09:08:05Z</time>
      </trkpt>
      <trkpt lat="46.98119" lon="5.85685">
        <ele>369.28</ele>
        <time>2016-06-03T09:08:09Z</time>
      </trkpt>
      <trkpt lat="46.98111" lon="5.85672">
        <ele>370.73</ele>
        <time>2016-06-03T09:08:19Z</time>
      </trkpt>
      <trkpt lat="46.98103" lon="5.85665">
        <ele>372.17</ele>
        <time>2016-06-03T09:08:32Z</time>
      </trkpt>
      <trkpt lat="46.98099" lon="5.85655">
        <ele>373.13</ele>
        <time>2016-06-03T09:08:38Z</time>
      </trkpt>
      <trkpt lat="46.98087" lon="5.85647">
        <ele>371.69</ele>
        <time>2016-06-03T09:08:51Z</time>
      </trkpt>
      <trkpt lat="46.98085" lon="5.85647">
        <ele>371.69</ele>
        <time>2016-06-03T09:08:53Z</time>
      </trkpt>
      <trkpt lat="46.98081" lon="5.85644">
        <ele>370.73</ele>
        <time>2016-06-03T09:08:59Z</time>
      </trkpt>
      <trkpt lat="46.98079" lon="5.8564">
        <ele>370.73</ele>
        <time>2016-06-03T09:09:01Z</time>
      </trkpt>
      <trkpt lat="46.98069" lon="5.85627">
        <ele>371.69</ele>
        <time>2016-06-03T09:09:14Z</time>
      </trkpt>
      <trkpt lat="46.98056" lon="5.85615">
        <ele>367.84</ele>
        <time>2016-06-03T09:09:30Z</time>
      </trkpt>
      <trkpt lat="46.98048" lon="5.85605">
        <ele>366.88</ele>
        <time>2016-06-03T09:09:42Z</time>
      </trkpt>
      <trkpt lat="46.98045" lon="5.85601">
        <ele>366.4</ele>
        <time>2016-06-03T09:09:47Z</time>
      </trkpt>
      <trkpt lat="46.98042" lon="5.85597">
        <ele>366.4</ele>
        <time>2016-06-03T09:09:49Z</time>
      </trkpt>
      <trkpt lat="46.98031" lon="5.85578">
        <ele>366.4</ele>
        <time>2016-06-03T09:10:02Z</time>
      </trkpt>
      <trkpt lat="46.98023" lon="5.85568">
        <ele>367.36</ele>
        <time>2016-06-03T09:10:14Z</time>
      </trkpt>
      <trkpt lat="46.98015" lon="5.85564">
        <ele>365.44</ele>
        <time>2016-06-03T09:10:25Z</time>
      </trkpt>
      <trkpt lat="46.98004" lon="5.8555">
        <ele>366.88</ele>
        <time>2016-06-03T09:10:38Z</time>
      </trkpt>
      <trkpt lat="46.97995" lon="5.85535">
        <ele>370.73</ele>
        <time>2016-06-03T09:10:49Z</time>
      </trkpt>
      <trkpt lat="46.97985" lon="5.85517">
        <ele>372.65</ele>
        <time>2016-06-03T09:11:01Z</time>
      </trkpt>
      <trkpt lat="46.97978" lon="5.85511">
        <ele>371.69</ele>
        <time>2016-06-03T09:11:11Z</time>
      </trkpt>
      <trkpt lat="46.97971" lon="5.85496">
        <ele>371.21</ele>
        <time>2016-06-03T09:11:23Z</time>
      </trkpt>
      <trkpt lat="46.97968" lon="5.85492">
        <ele>370.24</ele>
        <time>2016-06-03T09:11:35Z</time>
      </trkpt>
      <trkpt lat="46.97968" lon="5.85491">
        <ele>369.76</ele>
        <time>2016-06-03T09:11:47Z</time>
      </trkpt>
      <trkpt lat="46.97968" lon="5.85491">
        <ele>369.28</ele>
        <time>2016-06-03T09:12:03Z</time>
      </trkpt>
      <trkpt lat="46.97969" lon="5.8549">
        <ele>369.28</ele>
        <time>2016-06-03T09:12:32Z</time>
      </trkpt>
      <trkpt lat="46.97968" lon="5.85491">
        <ele>368.8</ele>
        <time>2016-06-03T09:12:56Z</time>
      </trkpt>
      <trkpt lat="46.97967" lon="5.85491">
        <ele>368.8</ele>
        <time>2016-06-03T09:13:08Z</time>
      </trkpt>
      <trkpt lat="46.97965" lon="5.85494">
        <ele>369.76</ele>
        <time>2016-06-03T09:13:21Z</time>
      </trkpt>
      <trkpt lat="46.97966" lon="5.85491">
        <ele>370.24</ele>
        <time>2016-06-03T09:13:36Z</time>
      </trkpt>
      <trkpt lat="46.97965" lon="5.85491">
        <ele>370.73</ele>
        <time>2016-06-03T09:13:53Z</time>
      </trkpt>
      <trkpt lat="46.97967" lon="5.85491">
        <ele>370.24</ele>
        <time>2016-06-03T09:14:05Z</time>
      </trkpt>
      <trkpt lat="46.97967" lon="5.85491">
        <ele>369.76</ele>
        <time>2016-06-03T09:14:26Z</time>
      </trkpt>
      <trkpt lat="46.97967" lon="5.85492">
        <ele>369.28</ele>
        <time>2016-06-03T09:14:46Z</time>
      </trkpt>
      <trkpt lat="46.97968" lon="5.85492">
        <ele>370.24</ele>
        <time>2016-06-03T09:15:08Z</time>
      </trkpt>
      <trkpt lat="46.97968" lon="5.85492">
        <ele>370.73</ele>
        <time>2016-06-03T09:15:32Z</time>
      </trkpt>
      <trkpt lat="46.97967" lon="5.85491">
        <ele>370.73</ele>
        <time>2016-06-03T09:15:54Z</time>
      </trkpt>
      <trkpt lat="46.97967" lon="5.85491">
        <ele>369.76</ele>
        <time>2016-06-03T09:16:16Z</time>
      </trkpt>
      <trkpt lat="46.97966" lon="5.85491">
        <ele>370.73</ele>
        <time>2016-06-03T09:16:41Z</time>
      </trkpt>
      <trkpt lat="46.97966" lon="5.85491">
        <ele>371.21</ele>
        <time>2016-06-03T09:17:02Z</time>
      </trkpt>
      <trkpt lat="46.97967" lon="5.85491">
        <ele>371.21</ele>
        <time>2016-06-03T09:17:21Z</time>
      </trkpt>
      <trkpt lat="46.97964" lon="5.85485">
        <ele>371.21</ele>
        <time>2016-06-03T09:17:41Z</time>
      </trkpt>
      <trkpt lat="46.97961" lon="5.85473">
        <ele>373.61</ele>
        <time>2016-06-03T09:17:51Z</time>
      </trkpt>
      <trkpt lat="46.9796" lon="5.85472">
        <ele>374.09</ele>
        <time>2016-06-03T09:17:52Z</time>
      </trkpt>
      <trkpt lat="46.97959" lon="5.85464">
        <ele>374.57</ele>
        <time>2016-06-03T09:17:56Z</time>
      </trkpt>
      <trkpt lat="46.97957" lon="5.85454">
        <ele>375.05</ele>
        <time>2016-06-03T09:18:01Z</time>
      </trkpt>
      <trkpt lat="46.97958" lon="5.85442">
        <ele>375.05</ele>
        <time>2016-06-03T09:18:15Z</time>
      </trkpt>
      <trkpt lat="46.97958" lon="5.85442">
        <ele>373.13</ele>
        <time>2016-06-03T09:18:39Z</time>
      </trkpt>
      <trkpt lat="46.97958" lon="5.85442">
        <ele>374.09</ele>
        <time>2016-06-03T09:19:08Z</time>
      </trkpt>
      <trkpt lat="46.97956" lon="5.85433">
        <ele>372.65</ele>
        <time>2016-06-03T09:19:27Z</time>
      </trkpt>
      <trkpt lat="46.97952" lon="5.85419">
        <ele>367.84</ele>
        <time>2016-06-03T09:19:40Z</time>
      </trkpt>
      <trkpt lat="46.97948" lon="5.85407">
        <ele>363.04</ele>
        <time>2016-06-03T09:19:52Z</time>
      </trkpt>
      <trkpt lat="46.97944" lon="5.85386">
        <ele>361.59</ele>
        <time>2016-06-03T09:20:07Z</time>
      </trkpt>
      <trkpt lat="46.9794" lon="5.85366">
        <ele>358.71</ele>
        <time>2016-06-03T09:20:18Z</time>
      </trkpt>
      <trkpt lat="46.97934" lon="5.85337">
        <ele>360.63</ele>
        <time>2016-06-03T09:20:30Z</time>
      </trkpt>
      <trkpt lat="46.97925" lon="5.85318">
        <ele>360.15</ele>
        <time>2016-06-03T09:20:43Z</time>
      </trkpt>
      <trkpt lat="46.97917" lon="5.85304">
        <ele>358.71</ele>
        <time>2016-06-03T09:20:54Z</time>
      </trkpt>
      <trkpt lat="46.97906" lon="5.85289">
        <ele>355.83</ele>
        <time>2016-06-03T09:21:08Z</time>
      </trkpt>
      <trkpt lat="46.97902" lon="5.85282">
        <ele>355.83</ele>
        <time>2016-06-03T09:21:13Z</time>
      </trkpt>
      <trkpt lat="46.97899" lon="5.85277">
        <ele>355.83</ele>
        <time>2016-06-03T09:21:16Z</time>
      </trkpt>
      <trkpt lat="46.9789" lon="5.85265">
        <ele>355.34</ele>
        <time>2016-06-03T09:21:28Z</time>
      </trkpt>
      <trkpt lat="46.97885" lon="5.85257">
        <ele>355.34</ele>
        <time>2016-06-03T09:21:34Z</time>
      </trkpt>
      <trkpt lat="46.97876" lon="5.85241">
        <ele>356.31</ele>
        <time>2016-06-03T09:21:48Z</time>
      </trkpt>
      <trkpt lat="46.97862" lon="5.85221">
        <ele>356.31</ele>
        <time>2016-06-03T09:22:02Z</time>
      </trkpt>
      <trkpt lat="46.97853" lon="5.85208">
        <ele>356.31</ele>
        <time>2016-06-03T09:22:13Z</time>
      </trkpt>
      <trkpt lat="46.97845" lon="5.85197">
        <ele>355.83</ele>
        <time>2016-06-03T09:22:25Z</time>
      </trkpt>
      <trkpt lat="46.9784" lon="5.85191">
        <ele>355.34</ele>
        <time>2016-06-03T09:22:31Z</time>
      </trkpt>
      <trkpt lat="46.97825" lon="5.85168">
        <ele>357.27</ele>
        <time>2016-06-03T09:22:47Z</time>
      </trkpt>
      <trkpt lat="46.97814" lon="5.85153">
        <ele>352.94</ele>
        <time>2016-06-03T09:22:59Z</time>
      </trkpt>
      <trkpt lat="46.9781" lon="5.8514">
        <ele>353.42</ele>
        <time>2016-06-03T09:23:09Z</time>
      </trkpt>
      <trkpt lat="46.97814" lon="5.85117">
        <ele>351.5</ele>
        <time>2016-06-03T09:23:24Z</time>
      </trkpt>
      <trkpt lat="46.97813" lon="5.85113">
        <ele>351.98</ele>
        <time>2016-06-03T09:23:26Z</time>
      </trkpt>
      <trkpt lat="46.97807" lon="5.85096">
        <ele>351.5</ele>
        <time>2016-06-03T09:23:39Z</time>
      </trkpt>
      <trkpt lat="46.97799" lon="5.85084">
        <ele>348.62</ele>
        <time>2016-06-03T09:23:51Z</time>
      </trkpt>
      <trkpt lat="46.97797" lon="5.85076">
        <ele>348.13</ele>
        <time>2016-06-03T09:23:55Z</time>
      </trkpt>
      <trkpt lat="46.97782" lon="5.85056">
        <ele>354.86</ele>
        <time>2016-06-03T09:24:10Z</time>
      </trkpt>
      <trkpt lat="46.97765" lon="5.8506">
        <ele>358.23</ele>
        <time>2016-06-03T09:24:25Z</time>
      </trkpt>
      <trkpt lat="46.97763" lon="5.8506">
        <ele>358.71</ele>
        <time>2016-06-03T09:24:27Z</time>
      </trkpt>
      <trkpt lat="46.97747" lon="5.85061">
        <ele>362.07</ele>
        <time>2016-06-03T09:24:40Z</time>
      </trkpt>
      <trkpt lat="46.97736" lon="5.85059">
        <ele>361.11</ele>
        <time>2016-06-03T09:24:52Z</time>
      </trkpt>
      <trkpt lat="46.97716" lon="5.85057">
        <ele>358.71</ele>
        <time>2016-06-03T09:25:09Z</time>
      </trkpt>
      <trkpt lat="46.97701" lon="5.85056">
        <ele>356.31</ele>
        <time>2016-06-03T09:25:21Z</time>
      </trkpt>
      <trkpt lat="46.97697" lon="5.85056">
        <ele>355.34</ele>
        <time>2016-06-03T09:25:25Z</time>
      </trkpt>
      <trkpt lat="46.97681" lon="5.85051">
        <ele>354.86</ele>
        <time>2016-06-03T09:25:39Z</time>
      </trkpt>
      <trkpt lat="46.97673" lon="5.85049">
        <ele>355.34</ele>
        <time>2016-06-03T09:25:50Z</time>
      </trkpt>
      <trkpt lat="46.97664" lon="5.85049">
        <ele>355.83</ele>
        <time>2016-06-03T09:25:59Z</time>
      </trkpt>
      <trkpt lat="46.9766" lon="5.8505">
        <ele>355.34</ele>
        <time>2016-06-03T09:26:13Z</time>
      </trkpt>
      <trkpt lat="46.97659" lon="5.8505">
        <ele>355.34</ele>
        <time>2016-06-03T09:26:14Z</time>
      </trkpt>
      <trkpt lat="46.97657" lon="5.8505">
        <ele>354.86</ele>
        <time>2016-06-03T09:26:16Z</time>
      </trkpt>
      <trkpt lat="46.97653" lon="5.85048">
        <ele>352.94</ele>
        <time>2016-06-03T09:26:20Z</time>
      </trkpt>
      <trkpt lat="46.97648" lon="5.85048">
        <ele>351.02</ele>
        <time>2016-06-03T09:26:26Z</time>
      </trkpt>
      <trkpt lat="46.97643" lon="5.85047">
        <ele>351.02</ele>
        <time>2016-06-03T09:26:30Z</time>
      </trkpt>
      <trkpt lat="46.97638" lon="5.85047">
        <ele>351.5</ele>
        <time>2016-06-03T09:26:35Z</time>
      </trkpt>
      <trkpt lat="46.9763" lon="5.85046">
        <ele>352.46</ele>
        <time>2016-06-03T09:26:43Z</time>
      </trkpt>
      <trkpt lat="46.97616" lon="5.8504">
        <ele>354.38</ele>
        <time>2016-06-03T09:26:54Z</time>
      </trkpt>
      <trkpt lat="46.9761" lon="5.85035">
        <ele>356.31</ele>
        <time>2016-06-03T09:27:05Z</time>
      </trkpt>
      <trkpt lat="46.97607" lon="5.85031">
        <ele>356.31</ele>
        <time>2016-06-03T09:27:12Z</time>
      </trkpt>
      <trkpt lat="46.97604" lon="5.85026">
        <ele>356.31</ele>
        <time>2016-06-03T09:27:16Z</time>
      </trkpt>
      <trkpt lat="46.97603" lon="5.85022">
        <ele>355.83</ele>
        <time>2016-06-03T09:27:19Z</time>
      </trkpt>
      <trkpt lat="46.97599" lon="5.85016">
        <ele>356.31</ele>
        <time>2016-06-03T09:27:24Z</time>
      </trkpt>
      <trkpt lat="46.97597" lon="5.85014">
        <ele>356.79</ele>
        <time>2016-06-03T09:27:26Z</time>
      </trkpt>
      <trkpt lat="46.97589" lon="5.85">
        <ele>354.86</ele>
        <time>2016-06-03T09:27:37Z</time>
      </trkpt>
      <trkpt lat="46.97578" lon="5.84982">
        <ele>355.83</ele>
        <time>2016-06-03T09:27:50Z</time>
      </trkpt>
      <trkpt lat="46.97567" lon="5.84974">
        <ele>355.83</ele>
        <time>2016-06-03T09:28:04Z</time>
      </trkpt>
      <trkpt lat="46.97555" lon="5.84966">
        <ele>355.83</ele>
        <time>2016-06-03T09:28:18Z</time>
      </trkpt>
      <trkpt lat="46.97549" lon="5.8496">
        <ele>356.79</ele>
        <time>2016-06-03T09:28:28Z</time>
      </trkpt>
      <trkpt lat="46.97544" lon="5.84959">
        <ele>356.31</ele>
        <time>2016-06-03T09:28:33Z</time>
      </trkpt>
      <trkpt lat="46.97529" lon="5.84952">
        <ele>353.42</ele>
        <time>2016-06-03T09:28:47Z</time>
      </trkpt>
      <trkpt lat="46.97517" lon="5.84947">
        <ele>349.1</ele>
        <time>2016-06-03T09:28:59Z</time>
      </trkpt>
      <trkpt lat="46.97512" lon="5.84947">
        <ele>348.13</ele>
        <time>2016-06-03T09:29:03Z</time>
      </trkpt>
      <trkpt lat="46.975" lon="5.84944">
        <ele>345.73</ele>
        <time>2016-06-03T09:29:16Z</time>
      </trkpt>
      <trkpt lat="46.97494" lon="5.84945">
        <ele>345.73</ele>
        <time>2016-06-03T09:29:21Z</time>
      </trkpt>
      <trkpt lat="46.9749" lon="5.84944">
        <ele>345.25</ele>
        <time>2016-06-03T09:29:24Z</time>
      </trkpt>
      <trkpt lat="46.97486" lon="5.84942">
        <ele>343.33</ele>
        <time>2016-06-03T09:29:29Z</time>
      </trkpt>
      <trkpt lat="46.97484" lon="5.84942">
        <ele>343.81</ele>
        <time>2016-06-03T09:29:31Z</time>
      </trkpt>
      <trkpt lat="46.97469" lon="5.8494">
        <ele>337.08</ele>
        <time>2016-06-03T09:29:45Z</time>
      </trkpt>
      <trkpt lat="46.97465" lon="5.84936">
        <ele>333.71</ele>
        <time>2016-06-03T09:29:51Z</time>
      </trkpt>
      <trkpt lat="46.97456" lon="5.84931">
        <ele>331.31</ele>
        <time>2016-06-03T09:30:02Z</time>
      </trkpt>
      <trkpt lat="46.97442" lon="5.84932">
        <ele>326.5</ele>
        <time>2016-06-03T09:30:16Z</time>
      </trkpt>
      <trkpt lat="46.9744" lon="5.84932">
        <ele>326.02</ele>
        <time>2016-06-03T09:30:17Z</time>
      </trkpt>
      <trkpt lat="46.97434" lon="5.84929">
        <ele>325.06</ele>
        <time>2016-06-03T09:30:23Z</time>
      </trkpt>
      <trkpt lat="46.97423" lon="5.84925">
        <ele>323.14</ele>
        <time>2016-06-03T09:30:35Z</time>
      </trkpt>
      <trkpt lat="46.97414" lon="5.84922">
        <ele>324.58</ele>
        <time>2016-06-03T09:30:46Z</time>
      </trkpt>
      <trkpt lat="46.97411" lon="5.84925">
        <ele>329.39</ele>
        <time>2016-06-03T09:31:01Z</time>
      </trkpt>
      <trkpt lat="46.97409" lon="5.84924">
        <ele>329.39</ele>
        <time>2016-06-03T09:31:04Z</time>
      </trkpt>
      <trkpt lat="46.97403" lon="5.84922">
        <ele>328.91</ele>
        <time>2016-06-03T09:31:10Z</time>
      </trkpt>
      <trkpt lat="46.97389" lon="5.84919">
        <ele>331.31</ele>
        <time>2016-06-03T09:31:22Z</time>
      </trkpt>
      <trkpt lat="46.97375" lon="5.84913">
        <ele>333.23</ele>
        <time>2016-06-03T09:31:34Z</time>
      </trkpt>
      <trkpt lat="46.97361" lon="5.8491">
        <ele>335.64</ele>
        <time>2016-06-03T09:31:47Z</time>
      </trkpt>
      <trkpt lat="46.97348" lon="5.84903">
        <ele>334.2</ele>
        <time>2016-06-03T09:32:00Z</time>
      </trkpt>
      <trkpt lat="46.97343" lon="5.84901">
        <ele>332.27</ele>
        <time>2016-06-03T09:32:11Z</time>
      </trkpt>
      <trkpt lat="46.97341" lon="5.84901">
        <ele>333.71</ele>
        <time>2016-06-03T09:32:18Z</time>
      </trkpt>
      <trkpt lat="46.97338" lon="5.849">
        <ele>333.71</ele>
        <time>2016-06-03T09:32:22Z</time>
      </trkpt>
      <trkpt lat="46.97335" lon="5.849">
        <ele>333.71</ele>
        <time>2016-06-03T09:32:25Z</time>
      </trkpt>
      <trkpt lat="46.97329" lon="5.84903">
        <ele>334.2</ele>
        <time>2016-06-03T09:32:30Z</time>
      </trkpt>
      <trkpt lat="46.97322" lon="5.84905">
        <ele>335.16</ele>
        <time>2016-06-03T09:32:37Z</time>
      </trkpt>
      <trkpt lat="46.97307" lon="5.84911">
        <ele>338.52</ele>
        <time>2016-06-03T09:32:50Z</time>
      </trkpt>
      <trkpt lat="46.973" lon="5.84915">
        <ele>341.41</ele>
        <time>2016-06-03T09:32:57Z</time>
      </trkpt>
      <trkpt lat="46.97286" lon="5.84921">
        <ele>342.37</ele>
        <time>2016-06-03T09:33:12Z</time>
      </trkpt>
      <trkpt lat="46.97281" lon="5.84922">
        <ele>343.33</ele>
        <time>2016-06-03T09:33:22Z</time>
      </trkpt>
      <trkpt lat="46.97273" lon="5.84926">
        <ele>343.33</ele>
        <time>2016-06-03T09:33:31Z</time>
      </trkpt>
      <trkpt lat="46.97263" lon="5.84931">
        <ele>343.33</ele>
        <time>2016-06-03T09:33:42Z</time>
      </trkpt>
      <trkpt lat="46.97253" lon="5.84934">
        <ele>341.89</ele>
        <time>2016-06-03T09:33:53Z</time>
      </trkpt>
      <trkpt lat="46.9724" lon="5.84941">
        <ele>340.92</ele>
        <time>2016-06-03T09:34:06Z</time>
      </trkpt>
      <trkpt lat="46.97235" lon="5.84945">
        <ele>342.37</ele>
        <time>2016-06-03T09:34:12Z</time>
      </trkpt>
      <trkpt lat="46.97228" lon="5.84949">
        <ele>343.33</ele>
        <time>2016-06-03T09:34:19Z</time>
      </trkpt>
      <trkpt lat="46.97216" lon="5.84955">
        <ele>343.33</ele>
        <time>2016-06-03T09:34:32Z</time>
      </trkpt>
      <trkpt lat="46.97211" lon="5.84958">
        <ele>345.73</ele>
        <time>2016-06-03T09:34:45Z</time>
      </trkpt>
      <trkpt lat="46.97204" lon="5.84962">
        <ele>346.69</ele>
        <time>2016-06-03T09:34:54Z</time>
      </trkpt>
      <trkpt lat="46.972" lon="5.84964">
        <ele>346.21</ele>
        <time>2016-06-03T09:34:59Z</time>
      </trkpt>
      <trkpt lat="46.97187" lon="5.84973">
        <ele>349.1</ele>
        <time>2016-06-03T09:35:12Z</time>
      </trkpt>
      <trkpt lat="46.97184" lon="5.84974">
        <ele>350.06</ele>
        <time>2016-06-03T09:35:14Z</time>
      </trkpt>
      <trkpt lat="46.97181" lon="5.84977">
        <ele>352.46</ele>
        <time>2016-06-03T09:35:17Z</time>
      </trkpt>
      <trkpt lat="46.97168" lon="5.8498">
        <ele>356.79</ele>
        <time>2016-06-03T09:35:31Z</time>
      </trkpt>
      <trkpt lat="46.97157" lon="5.84981">
        <ele>357.27</ele>
        <time>2016-06-03T09:35:44Z</time>
      </trkpt>
      <trkpt lat="46.97154" lon="5.8498">
        <ele>357.27</ele>
        <time>2016-06-03T09:35:57Z</time>
      </trkpt>
      <trkpt lat="46.97145" lon="5.84977">
        <ele>357.75</ele>
        <time>2016-06-03T09:36:09Z</time>
      </trkpt>
      <trkpt lat="46.97136" lon="5.84975">
        <ele>358.71</ele>
        <time>2016-06-03T09:36:21Z</time>
      </trkpt>
      <trkpt lat="46.97126" lon="5.84978">
        <ele>361.59</ele>
        <time>2016-06-03T09:36:35Z</time>
      </trkpt>
      <trkpt lat="46.97124" lon="5.84979">
        <ele>362.07</ele>
        <time>2016-06-03T09:36:37Z</time>
      </trkpt>
      <trkpt lat="46.97113" lon="5.84981">
        <ele>367.84</ele>
        <time>2016-06-03T09:36:50Z</time>
      </trkpt>
      <trkpt lat="46.9711" lon="5.84983">
        <ele>367.84</ele>
        <time>2016-06-03T09:37:01Z</time>
      </trkpt>
      <trkpt lat="46.97102" lon="5.84986">
        <ele>372.17</ele>
        <time>2016-06-03T09:37:14Z</time>
      </trkpt>
      <trkpt lat="46.97093" lon="5.8499">
        <ele>374.09</ele>
        <time>2016-06-03T09:37:26Z</time>
      </trkpt>
      <trkpt lat="46.97086" lon="5.84991">
        <ele>376.97</ele>
        <time>2016-06-03T09:37:38Z</time>
      </trkpt>
      <trkpt lat="46.97078" lon="5.84992">
        <ele>377.94</ele>
        <time>2016-06-03T09:37:47Z</time>
      </trkpt>
      <trkpt lat="46.97068" lon="5.84991">
        <ele>376.97</ele>
        <time>2016-06-03T09:38:00Z</time>
      </trkpt>
      <trkpt lat="46.97059" lon="5.84986">
        <ele>375.05</ele>
        <time>2016-06-03T09:38:15Z</time>
      </trkpt>
      <trkpt lat="46.97055" lon="5.84968">
        <ele>376.97</ele>
        <time>2016-06-03T09:38:28Z</time>
      </trkpt>
      <trkpt lat="46.9705" lon="5.84958">
        <ele>379.38</ele>
        <time>2016-06-03T09:38:43Z</time>
      </trkpt>
      <trkpt lat="46.97042" lon="5.84946">
        <ele>378.9</ele>
        <time>2016-06-03T09:38:59Z</time>
      </trkpt>
      <trkpt lat="46.97036" lon="5.84931">
        <ele>379.38</ele>
        <time>2016-06-03T09:39:12Z</time>
      </trkpt>
      <trkpt lat="46.97027" lon="5.8492">
        <ele>381.78</ele>
        <time>2016-06-03T09:39:25Z</time>
      </trkpt>
      <trkpt lat="46.97015" lon="5.84911">
        <ele>382.26</ele>
        <time>2016-06-03T09:39:40Z</time>
      </trkpt>
      <trkpt lat="46.97003" lon="5.8491">
        <ele>381.3</ele>
        <time>2016-06-03T09:39:55Z</time>
      </trkpt>
      <trkpt lat="46.96992" lon="5.84908">
        <ele>382.74</ele>
        <time>2016-06-03T09:40:09Z</time>
      </trkpt>
      <trkpt lat="46.96983" lon="5.84906">
        <ele>381.78</ele>
        <time>2016-06-03T09:40:23Z</time>
      </trkpt>
      <trkpt lat="46.96977" lon="5.84904">
        <ele>380.34</ele>
        <time>2016-06-03T09:40:34Z</time>
      </trkpt>
      <trkpt lat="46.9696" lon="5.84907">
        <ele>381.78</ele>
        <time>2016-06-03T09:40:49Z</time>
      </trkpt>
      <trkpt lat="46.96943" lon="5.84902">
        <ele>384.18</ele>
        <time>2016-06-03T09:41:04Z</time>
      </trkpt>
      <trkpt lat="46.96932" lon="5.84897">
        <ele>384.66</ele>
        <time>2016-06-03T09:41:17Z</time>
      </trkpt>
      <trkpt lat="46.9692" lon="5.84894">
        <ele>387.07</ele>
        <time>2016-06-03T09:41:29Z</time>
      </trkpt>
      <trkpt lat="46.96906" lon="5.84894">
        <ele>390.43</ele>
        <time>2016-06-03T09:41:43Z</time>
      </trkpt>
      <trkpt lat="46.96891" lon="5.84892">
        <ele>390.91</ele>
        <time>2016-06-03T09:41:57Z</time>
      </trkpt>
      <trkpt lat="46.96879" lon="5.84892">
        <ele>389.95</ele>
        <time>2016-06-03T09:42:10Z</time>
      </trkpt>
      <trkpt lat="46.96865" lon="5.84889">
        <ele>389.95</ele>
        <time>2016-06-03T09:42:22Z</time>
      </trkpt>
      <trkpt lat="46.96846" lon="5.84885">
        <ele>388.99</ele>
        <time>2016-06-03T09:42:38Z</time>
      </trkpt>
      <trkpt lat="46.96835" lon="5.84885">
        <ele>388.51</ele>
        <time>2016-06-03T09:42:51Z</time>
      </trkpt>
      <trkpt lat="46.96826" lon="5.84886">
        <ele>388.03</ele>
        <time>2016-06-03T09:43:00Z</time>
      </trkpt>
      <trkpt lat="46.96821" lon="5.84887">
        <ele>388.03</ele>
        <time>2016-06-03T09:43:04Z</time>
      </trkpt>
      <trkpt lat="46.96807" lon="5.84889">
        <ele>388.51</ele>
        <time>2016-06-03T09:43:17Z</time>
      </trkpt>
      <trkpt lat="46.96795" lon="5.84891">
        <ele>388.51</ele>
        <time>2016-06-03T09:43:28Z</time>
      </trkpt>
      <trkpt lat="46.96785" lon="5.84894">
        <ele>388.99</ele>
        <time>2016-06-03T09:43:41Z</time>
      </trkpt>
      <trkpt lat="46.96774" lon="5.84896">
        <ele>388.51</ele>
        <time>2016-06-03T09:43:52Z</time>
      </trkpt>
      <trkpt lat="46.96759" lon="5.84901">
        <ele>389.47</ele>
        <time>2016-06-03T09:44:07Z</time>
      </trkpt>
      <trkpt lat="46.96749" lon="5.84904">
        <ele>390.43</ele>
        <time>2016-06-03T09:44:18Z</time>
      </trkpt>
      <trkpt lat="46.96738" lon="5.84904">
        <ele>393.8</ele>
        <time>2016-06-03T09:44:29Z</time>
      </trkpt>
      <trkpt lat="46.96726" lon="5.84904">
        <ele>394.76</ele>
        <time>2016-06-03T09:44:39Z</time>
      </trkpt>
      <trkpt lat="46.96714" lon="5.84904">
        <ele>394.76</ele>
        <time>2016-06-03T09:44:51Z</time>
      </trkpt>
      <trkpt lat="46.96701" lon="5.84906">
        <ele>394.28</ele>
        <time>2016-06-03T09:45:04Z</time>
      </trkpt>
      <trkpt lat="46.9669" lon="5.84908">
        <ele>393.32</ele>
        <time>2016-06-03T09:45:16Z</time>
      </trkpt>
      <trkpt lat="46.96686" lon="5.84909">
        <ele>392.84</ele>
        <time>2016-06-03T09:45:24Z</time>
      </trkpt>
      <trkpt lat="46.96674" lon="5.8491">
        <ele>391.87</ele>
        <time>2016-06-03T09:45:34Z</time>
      </trkpt>
      <trkpt lat="46.96663" lon="5.8491">
        <ele>388.51</ele>
        <time>2016-06-03T09:45:47Z</time>
      </trkpt>
      <trkpt lat="46.96652" lon="5.84915">
        <ele>385.15</ele>
        <time>2016-06-03T09:45:59Z</time>
      </trkpt>
      <trkpt lat="46.96642" lon="5.84919">
        <ele>383.7</ele>
        <time>2016-06-03T09:46:07Z</time>
      </trkpt>
      <trkpt lat="46.96639" lon="5.84919">
        <ele>383.22</ele>
        <time>2016-06-03T09:46:10Z</time>
      </trkpt>
      <trkpt lat="46.96629" lon="5.84921">
        <ele>383.22</ele>
        <time>2016-06-03T09:46:19Z</time>
      </trkpt>
      <trkpt lat="46.96614" lon="5.84922">
        <ele>381.3</ele>
        <time>2016-06-03T09:46:32Z</time>
      </trkpt>
      <trkpt lat="46.96602" lon="5.84925">
        <ele>380.34</ele>
        <time>2016-06-03T09:46:44Z</time>
      </trkpt>
      <trkpt lat="46.96588" lon="5.8493">
        <ele>378.9</ele>
        <time>2016-06-03T09:46:57Z</time>
      </trkpt>
      <trkpt lat="46.96583" lon="5.84934">
        <ele>378.42</ele>
        <time>2016-06-03T09:47:02Z</time>
      </trkpt>
      <trkpt lat="46.96574" lon="5.84941">
        <ele>375.05</ele>
        <time>2016-06-03T09:47:13Z</time>
      </trkpt>
      <trkpt lat="46.96568" lon="5.84947">
        <ele>371.69</ele>
        <time>2016-06-03T09:47:23Z</time>
      </trkpt>
      <trkpt lat="46.96558" lon="5.84956">
        <ele>369.76</ele>
        <time>2016-06-03T09:47:33Z</time>
      </trkpt>
      <trkpt lat="46.96548" lon="5.84965">
        <ele>368.32</ele>
        <time>2016-06-03T09:47:45Z</time>
      </trkpt>
      <trkpt lat="46.96543" lon="5.84971">
        <ele>368.8</ele>
        <time>2016-06-03T09:47:52Z</time>
      </trkpt>
      <trkpt lat="46.96533" lon="5.84989">
        <ele>372.17</ele>
        <time>2016-06-03T09:48:04Z</time>
      </trkpt>
      <trkpt lat="46.96528" lon="5.84999">
        <ele>373.61</ele>
        <time>2016-06-03T09:48:15Z</time>
      </trkpt>
      <trkpt lat="46.96521" lon="5.8502">
        <ele>375.53</ele>
        <time>2016-06-03T09:48:29Z</time>
      </trkpt>
      <trkpt lat="46.96515" lon="5.85038">
        <ele>377.45</ele>
        <time>2016-06-03T09:48:39Z</time>
      </trkpt>
      <trkpt lat="46.9651" lon="5.85056">
        <ele>377.45</ele>
        <time>2016-06-03T09:48:51Z</time>
      </trkpt>
      <trkpt lat="46.96507" lon="5.85077">
        <ele>379.86</ele>
        <time>2016-06-03T09:49:04Z</time>
      </trkpt>
      <trkpt lat="46.96506" lon="5.85083">
        <ele>379.86</ele>
        <time>2016-06-03T09:49:07Z</time>
      </trkpt>
      <trkpt lat="46.96505" lon="5.85095">
        <ele>379.86</ele>
        <time>2016-06-03T09:49:14Z</time>
      </trkpt>
      <trkpt lat="46.96505" lon="5.85106">
        <ele>376.97</ele>
        <time>2016-06-03T09:49:27Z</time>
      </trkpt>
      <trkpt lat="46.96507" lon="5.85127">
        <ele>376.01</ele>
        <time>2016-06-03T09:49:43Z</time>
      </trkpt>
      <trkpt lat="46.96509" lon="5.85142">
        <ele>378.42</ele>
        <time>2016-06-03T09:49:56Z</time>
      </trkpt>
      <trkpt lat="46.96515" lon="5.85152">
        <ele>375.05</ele>
        <time>2016-06-03T09:50:07Z</time>
      </trkpt>
      <trkpt lat="46.96516" lon="5.85155">
        <ele>374.57</ele>
        <time>2016-06-03T09:50:10Z</time>
      </trkpt>
      <trkpt lat="46.96524" lon="5.85165">
        <ele>370.24</ele>
        <time>2016-06-03T09:50:21Z</time>
      </trkpt>
      <trkpt lat="46.96535" lon="5.85175">
        <ele>365.44</ele>
        <time>2016-06-03T09:50:34Z</time>
      </trkpt>
      <trkpt lat="46.96546" lon="5.85183">
        <ele>359.19</ele>
        <time>2016-06-03T09:50:45Z</time>
      </trkpt>
      <trkpt lat="46.96555" lon="5.85185">
        <ele>354.38</ele>
        <time>2016-06-03T09:50:54Z</time>
      </trkpt>
      <trkpt lat="46.96568" lon="5.85189">
        <ele>345.73</ele>
        <time>2016-06-03T09:51:08Z</time>
      </trkpt>
      <trkpt lat="46.96577" lon="5.85197">
        <ele>340.92</ele>
        <time>2016-06-03T09:51:20Z</time>
      </trkpt>
      <trkpt lat="46.96588" lon="5.85209">
        <ele>337.08</ele>
        <time>2016-06-03T09:51:35Z</time>
      </trkpt>
      <trkpt lat="46.96593" lon="5.85226">
        <ele>341.89</ele>
        <time>2016-06-03T09:51:44Z</time>
      </trkpt>
      <trkpt lat="46.96599" lon="5.85242">
        <ele>346.21</ele>
        <time>2016-06-03T09:51:57Z</time>
      </trkpt>
      <trkpt lat="46.966" lon="5.85265">
        <ele>353.9</ele>
        <time>2016-06-03T09:52:12Z</time>
      </trkpt>
      <trkpt lat="46.96594" lon="5.85279">
        <ele>357.75</ele>
        <time>2016-06-03T09:52:22Z</time>
      </trkpt>
      <trkpt lat="46.96582" lon="5.85285">
        <ele>365.44</ele>
        <time>2016-06-03T09:52:37Z</time>
      </trkpt>
      <trkpt lat="46.96566" lon="5.85288">
        <ele>372.65</ele>
        <time>2016-06-03T09:52:53Z</time>
      </trkpt>
      <trkpt lat="46.96558" lon="5.85288">
        <ele>376.01</ele>
        <time>2016-06-03T09:52:59Z</time>
      </trkpt>
      <trkpt lat="46.96542" lon="5.8529">
        <ele>380.34</ele>
        <time>2016-06-03T09:53:13Z</time>
      </trkpt>
      <trkpt lat="46.96529" lon="5.85292">
        <ele>382.26</ele>
        <time>2016-06-03T09:53:26Z</time>
      </trkpt>
      <trkpt lat="46.96523" lon="5.85292">
        <ele>381.3</ele>
        <time>2016-06-03T09:53:32Z</time>
      </trkpt>
      <trkpt lat="46.96515" lon="5.85292">
        <ele>380.82</ele>
        <time>2016-06-03T09:53:40Z</time>
      </trkpt>
      <trkpt lat="46.965" lon="5.8529">
        <ele>381.3</ele>
        <time>2016-06-03T09:53:55Z</time>
      </trkpt>
      <trkpt lat="46.96499" lon="5.8529">
        <ele>381.3</ele>
        <time>2016-06-03T09:53:56Z</time>
      </trkpt>
      <trkpt lat="46.96491" lon="5.85292">
        <ele>380.34</ele>
        <time>2016-06-03T09:54:04Z</time>
      </trkpt>
      <trkpt lat="46.9648" lon="5.85294">
        <ele>377.94</ele>
        <time>2016-06-03T09:54:16Z</time>
      </trkpt>
      <trkpt lat="46.96471" lon="5.85296">
        <ele>379.86</ele>
        <time>2016-06-03T09:54:28Z</time>
      </trkpt>
      <trkpt lat="46.96459" lon="5.85298">
        <ele>379.38</ele>
        <time>2016-06-03T09:54:42Z</time>
      </trkpt>
      <trkpt lat="46.96448" lon="5.85302">
        <ele>380.82</ele>
        <time>2016-06-03T09:54:53Z</time>
      </trkpt>
      <trkpt lat="46.96438" lon="5.85309">
        <ele>380.34</ele>
        <time>2016-06-03T09:55:05Z</time>
      </trkpt>
      <trkpt lat="46.96432" lon="5.85312">
        <ele>378.42</ele>
        <time>2016-06-03T09:55:15Z</time>
      </trkpt>
      <trkpt lat="46.96422" lon="5.85316">
        <ele>377.94</ele>
        <time>2016-06-03T09:55:26Z</time>
      </trkpt>
      <trkpt lat="46.96414" lon="5.8532">
        <ele>376.97</ele>
        <time>2016-06-03T09:55:36Z</time>
      </trkpt>
      <trkpt lat="46.96405" lon="5.85326">
        <ele>376.01</ele>
        <time>2016-06-03T09:55:48Z</time>
      </trkpt>
      <trkpt lat="46.964" lon="5.85329">
        <ele>376.49</ele>
        <time>2016-06-03T09:55:59Z</time>
      </trkpt>
      <trkpt lat="46.96388" lon="5.8534">
        <ele>377.94</ele>
        <time>2016-06-03T09:56:13Z</time>
      </trkpt>
      <trkpt lat="46.96376" lon="5.85349">
        <ele>377.94</ele>
        <time>2016-06-03T09:56:28Z</time>
      </trkpt>
      <trkpt lat="46.96365" lon="5.85359">
        <ele>378.9</ele>
        <time>2016-06-03T09:56:41Z</time>
      </trkpt>
      <trkpt lat="46.96353" lon="5.85369">
        <ele>380.34</ele>
        <time>2016-06-03T09:56:56Z</time>
      </trkpt>
      <trkpt lat="46.9634" lon="5.85381">
        <ele>381.78</ele>
        <time>2016-06-03T09:57:11Z</time>
      </trkpt>
      <trkpt lat="46.9633" lon="5.85389">
        <ele>382.26</ele>
        <time>2016-06-03T09:57:22Z</time>
      </trkpt>
      <trkpt lat="46.96328" lon="5.85391">
        <ele>381.78</ele>
        <time>2016-06-03T09:57:25Z</time>
      </trkpt>
      <trkpt lat="46.96319" lon="5.85399">
        <ele>382.26</ele>
        <time>2016-06-03T09:57:38Z</time>
      </trkpt>
      <trkpt lat="46.96317" lon="5.854">
        <ele>383.22</ele>
        <time>2016-06-03T09:57:53Z</time>
      </trkpt>
      <trkpt lat="46.96315" lon="5.85404">
        <ele>383.7</ele>
        <time>2016-06-03T09:58:10Z</time>
      </trkpt>
      <trkpt lat="46.96306" lon="5.85412">
        <ele>384.66</ele>
        <time>2016-06-03T09:58:21Z</time>
      </trkpt>
      <trkpt lat="46.96302" lon="5.85416">
        <ele>384.66</ele>
        <time>2016-06-03T09:58:27Z</time>
      </trkpt>
      <trkpt lat="46.963" lon="5.85418">
        <ele>384.66</ele>
        <time>2016-06-03T09:58:29Z</time>
      </trkpt>
      <trkpt lat="46.96289" lon="5.85427">
        <ele>385.63</ele>
        <time>2016-06-03T09:58:41Z</time>
      </trkpt>
      <trkpt lat="46.96281" lon="5.85435">
        <ele>384.66</ele>
        <time>2016-06-03T09:58:51Z</time>
      </trkpt>
      <trkpt lat="46.96267" lon="5.85446">
        <ele>383.22</ele>
        <time>2016-06-03T09:59:04Z</time>
      </trkpt>
      <trkpt lat="46.96254" lon="5.85458">
        <ele>382.26</ele>
        <time>2016-06-03T09:59:18Z</time>
      </trkpt>
      <trkpt lat="46.96242" lon="5.85476">
        <ele>381.78</ele>
        <time>2016-06-03T09:59:33Z</time>
      </trkpt>
      <trkpt lat="46.96239" lon="5.8548">
        <ele>380.34</ele>
        <time>2016-06-03T09:59:37Z</time>
      </trkpt>
      <trkpt lat="46.96226" lon="5.85489">
        <ele>380.34</ele>
        <time>2016-06-03T09:59:50Z</time>
      </trkpt>
      <trkpt lat="46.96214" lon="5.85497">
        <ele>379.38</ele>
        <time>2016-06-03T10:00:03Z</time>
      </trkpt>
      <trkpt lat="46.96201" lon="5.85498">
        <ele>378.9</ele>
        <time>2016-06-03T10:00:18Z</time>
      </trkpt>
      <trkpt lat="46.962" lon="5.85498">
        <ele>378.9</ele>
        <time>2016-06-03T10:00:37Z</time>
      </trkpt>
      <trkpt lat="46.96199" lon="5.85499">
        <ele>379.38</ele>
        <time>2016-06-03T10:00:59Z</time>
      </trkpt>
      <trkpt lat="46.962" lon="5.85498">
        <ele>379.86</ele>
        <time>2016-06-03T10:01:26Z</time>
      </trkpt>
      <trkpt lat="46.96191" lon="5.85505">
        <ele>379.86</ele>
        <time>2016-06-03T10:01:44Z</time>
      </trkpt>
      <trkpt lat="46.96188" lon="5.85507">
        <ele>379.86</ele>
        <time>2016-06-03T10:01:47Z</time>
      </trkpt>
      <trkpt lat="46.9618" lon="5.85525">
        <ele>379.38</ele>
        <time>2016-06-03T10:02:02Z</time>
      </trkpt>
      <trkpt lat="46.96171" lon="5.85539">
        <ele>377.45</ele>
        <time>2016-06-03T10:02:14Z</time>
      </trkpt>
      <trkpt lat="46.96157" lon="5.85551">
        <ele>376.01</ele>
        <time>2016-06-03T10:02:28Z</time>
      </trkpt>
      <trkpt lat="46.96152" lon="5.85553">
        <ele>376.01</ele>
        <time>2016-06-03T10:02:33Z</time>
      </trkpt>
      <trkpt lat="46.96149" lon="5.85555">
        <ele>376.01</ele>
        <time>2016-06-03T10:02:35Z</time>
      </trkpt>
      <trkpt lat="46.96135" lon="5.85564">
        <ele>376.01</ele>
        <time>2016-06-03T10:02:49Z</time>
      </trkpt>
      <trkpt lat="46.96121" lon="5.85569">
        <ele>375.05</ele>
        <time>2016-06-03T10:03:02Z</time>
      </trkpt>
      <trkpt lat="46.96109" lon="5.85578">
        <ele>372.65</ele>
        <time>2016-06-03T10:03:15Z</time>
      </trkpt>
      <trkpt lat="46.96097" lon="5.85589">
        <ele>370.73</ele>
        <time>2016-06-03T10:03:28Z</time>
      </trkpt>
      <trkpt lat="46.96092" lon="5.85592">
        <ele>369.76</ele>
        <time>2016-06-03T10:03:34Z</time>
      </trkpt>
      <trkpt lat="46.96076" lon="5.85603">
        <ele>368.32</ele>
        <time>2016-06-03T10:03:48Z</time>
      </trkpt>
      <trkpt lat="46.96059" lon="5.85614">
        <ele>368.32</ele>
        <time>2016-06-03T10:04:03Z</time>
      </trkpt>
      <trkpt lat="46.96041" lon="5.85618">
        <ele>367.84</ele>
        <time>2016-06-03T10:04:19Z</time>
      </trkpt>
      <trkpt lat="46.96025" lon="5.85617">
        <ele>366.88</ele>
        <time>2016-06-03T10:04:32Z</time>
      </trkpt>
      <trkpt lat="46.96024" lon="5.85617">
        <ele>366.88</ele>
        <time>2016-06-03T10:04:33Z</time>
      </trkpt>
      <trkpt lat="46.96012" lon="5.85617">
        <ele>365.92</ele>
        <time>2016-06-03T10:04:46Z</time>
      </trkpt>
      <trkpt lat="46.96004" lon="5.85622">
        <ele>365.92</ele>
        <time>2016-06-03T10:05:00Z</time>
      </trkpt>
      <trkpt lat="46.95992" lon="5.85634">
        <ele>364.96</ele>
        <time>2016-06-03T10:05:13Z</time>
      </trkpt>
      <trkpt lat="46.9598" lon="5.85652">
        <ele>363.04</ele>
        <time>2016-06-03T10:05:28Z</time>
      </trkpt>
      <trkpt lat="46.95978" lon="5.85657">
        <ele>362.07</ele>
        <time>2016-06-03T10:05:32Z</time>
      </trkpt>
      <trkpt lat="46.95968" lon="5.85675">
        <ele>361.59</ele>
        <time>2016-06-03T10:05:46Z</time>
      </trkpt>
      <trkpt lat="46.95957" lon="5.85691">
        <ele>360.63</ele>
        <time>2016-06-03T10:05:59Z</time>
      </trkpt>
      <trkpt lat="46.95944" lon="5.85702">
        <ele>359.19</ele>
        <time>2016-06-03T10:06:12Z</time>
      </trkpt>
      <trkpt lat="46.95942" lon="5.85707">
        <ele>357.75</ele>
        <time>2016-06-03T10:06:17Z</time>
      </trkpt>
      <trkpt lat="46.95937" lon="5.85731">
        <ele>354.86</ele>
        <time>2016-06-03T10:06:32Z</time>
      </trkpt>
      <trkpt lat="46.95936" lon="5.85754">
        <ele>355.34</ele>
        <time>2016-06-03T10:06:45Z</time>
      </trkpt>
      <trkpt lat="46.95933" lon="5.85776">
        <ele>356.31</ele>
        <time>2016-06-03T10:06:57Z</time>
      </trkpt>
      <trkpt lat="46.9593" lon="5.85789">
        <ele>356.79</ele>
        <time>2016-06-03T10:07:05Z</time>
      </trkpt>
      <trkpt lat="46.95923" lon="5.85805">
        <ele>357.27</ele>
        <time>2016-06-03T10:07:16Z</time>
      </trkpt>
      <trkpt lat="46.9592" lon="5.85812">
        <ele>357.27</ele>
        <time>2016-06-03T10:07:21Z</time>
      </trkpt>
      <trkpt lat="46.95916" lon="5.8582">
        <ele>356.79</ele>
        <time>2016-06-03T10:07:26Z</time>
      </trkpt>
      <trkpt lat="46.95915" lon="5.85823">
        <ele>356.79</ele>
        <time>2016-06-03T10:07:28Z</time>
      </trkpt>
      <trkpt lat="46.95912" lon="5.85829">
        <ele>356.79</ele>
        <time>2016-06-03T10:07:32Z</time>
      </trkpt>
      <trkpt lat="46.95909" lon="5.85836">
        <ele>356.79</ele>
        <time>2016-06-03T10:07:37Z</time>
      </trkpt>
      <trkpt lat="46.95904" lon="5.85847">
        <ele>356.31</ele>
        <time>2016-06-03T10:07:44Z</time>
      </trkpt>
      <trkpt lat="46.95897" lon="5.85864">
        <ele>355.83</ele>
        <time>2016-06-03T10:07:55Z</time>
      </trkpt>
      <trkpt lat="46.95893" lon="5.8587">
        <ele>356.79</ele>
        <time>2016-06-03T10:08:00Z</time>
      </trkpt>
      <trkpt lat="46.9589" lon="5.85878">
        <ele>356.31</ele>
        <time>2016-06-03T10:08:05Z</time>
      </trkpt>
      <trkpt lat="46.95887" lon="5.85884">
        <ele>356.31</ele>
        <time>2016-06-03T10:08:09Z</time>
      </trkpt>
      <trkpt lat="46.95888" lon="5.85898">
        <ele>356.31</ele>
        <time>2016-06-03T10:08:23Z</time>
      </trkpt>
      <trkpt lat="46.95887" lon="5.85898">
        <ele>356.31</ele>
        <time>2016-06-03T10:08:26Z</time>
      </trkpt>
      <trkpt lat="46.95884" lon="5.85903">
        <ele>356.79</ele>
        <time>2016-06-03T10:08:39Z</time>
      </trkpt>
      <trkpt lat="46.95883" lon="5.85905">
        <ele>356.31</ele>
        <time>2016-06-03T10:08:41Z</time>
      </trkpt>
      <trkpt lat="46.9587" lon="5.85926">
        <ele>352.46</ele>
        <time>2016-06-03T10:08:57Z</time>
      </trkpt>
      <trkpt lat="46.95858" lon="5.8594">
        <ele>350.54</ele>
        <time>2016-06-03T10:09:11Z</time>
      </trkpt>
      <trkpt lat="46.95846" lon="5.85953">
        <ele>348.13</ele>
        <time>2016-06-03T10:09:25Z</time>
      </trkpt>
      <trkpt lat="46.95839" lon="5.85962">
        <ele>346.69</ele>
        <time>2016-06-03T10:09:34Z</time>
      </trkpt>
      <trkpt lat="46.95837" lon="5.85965">
        <ele>346.69</ele>
        <time>2016-06-03T10:09:36Z</time>
      </trkpt>
      <trkpt lat="46.9583" lon="5.85975">
        <ele>344.77</ele>
        <time>2016-06-03T10:09:45Z</time>
      </trkpt>
      <trkpt lat="46.95827" lon="5.85979">
        <ele>343.33</ele>
        <time>2016-06-03T10:09:50Z</time>
      </trkpt>
      <trkpt lat="46.95816" lon="5.85995">
        <ele>340.92</ele>
        <time>2016-06-03T10:10:02Z</time>
      </trkpt>
      <trkpt lat="46.95807" lon="5.86005">
        <ele>339</ele>
        <time>2016-06-03T10:10:12Z</time>
      </trkpt>
      <trkpt lat="46.958" lon="5.86009">
        <ele>337.08</ele>
        <time>2016-06-03T10:10:18Z</time>
      </trkpt>
      <trkpt lat="46.95779" lon="5.86016">
        <ele>334.2</ele>
        <time>2016-06-03T10:10:35Z</time>
      </trkpt>
      <trkpt lat="46.95777" lon="5.86017">
        <ele>334.2</ele>
        <time>2016-06-03T10:10:37Z</time>
      </trkpt>
      <trkpt lat="46.95762" lon="5.86029">
        <ele>335.16</ele>
        <time>2016-06-03T10:10:50Z</time>
      </trkpt>
      <trkpt lat="46.95751" lon="5.86038">
        <ele>333.71</ele>
        <time>2016-06-03T10:11:03Z</time>
      </trkpt>
      <trkpt lat="46.95742" lon="5.8605">
        <ele>333.71</ele>
        <time>2016-06-03T10:11:14Z</time>
      </trkpt>
      <trkpt lat="46.95733" lon="5.86062">
        <ele>331.31</ele>
        <time>2016-06-03T10:11:26Z</time>
      </trkpt>
      <trkpt lat="46.95722" lon="5.86078">
        <ele>328.43</ele>
        <time>2016-06-03T10:11:40Z</time>
      </trkpt>
      <trkpt lat="46.95713" lon="5.86088">
        <ele>325.54</ele>
        <time>2016-06-03T10:11:51Z</time>
      </trkpt>
      <trkpt lat="46.957" lon="5.86108">
        <ele>325.06</ele>
        <time>2016-06-03T10:12:04Z</time>
      </trkpt>
      <trkpt lat="46.95689" lon="5.86118">
        <ele>321.7</ele>
        <time>2016-06-03T10:12:18Z</time>
      </trkpt>
      <trkpt lat="46.95681" lon="5.86128">
        <ele>321.22</ele>
        <time>2016-06-03T10:12:27Z</time>
      </trkpt>
      <trkpt lat="46.95666" lon="5.86147">
        <ele>322.18</ele>
        <time>2016-06-03T10:12:45Z</time>
      </trkpt>
      <trkpt lat="46.95651" lon="5.86153">
        <ele>319.3</ele>
        <time>2016-06-03T10:12:58Z</time>
      </trkpt>
      <trkpt lat="46.95647" lon="5.86155">
        <ele>317.37</ele>
        <time>2016-06-03T10:13:03Z</time>
      </trkpt>
      <trkpt lat="46.95638" lon="5.86171">
        <ele>308.24</ele>
        <time>2016-06-03T10:13:16Z</time>
      </trkpt>
      <trkpt lat="46.95633" lon="5.86178">
        <ele>305.36</ele>
        <time>2016-06-03T10:13:22Z</time>
      </trkpt>
      <trkpt lat="46.95624" lon="5.86186">
        <ele>300.55</ele>
        <time>2016-06-03T10:13:33Z</time>
      </trkpt>
      <trkpt lat="46.95618" lon="5.86198">
        <ele>301.51</ele>
        <time>2016-06-03T10:13:45Z</time>
      </trkpt>
      <trkpt lat="46.95617" lon="5.862">
        <ele>301.51</ele>
        <time>2016-06-03T10:13:46Z</time>
      </trkpt>
      <trkpt lat="46.95604" lon="5.86218">
        <ele>303.43</ele>
        <time>2016-06-03T10:13:59Z</time>
      </trkpt>
      <trkpt lat="46.956" lon="5.86221">
        <ele>304.39</ele>
        <time>2016-06-03T10:14:02Z</time>
      </trkpt>
      <trkpt lat="46.95595" lon="5.86223">
        <ele>304.88</ele>
        <time>2016-06-03T10:14:07Z</time>
      </trkpt>
      <trkpt lat="46.95589" lon="5.86228">
        <ele>303.91</ele>
        <time>2016-06-03T10:14:14Z</time>
      </trkpt>
      <trkpt lat="46.95576" lon="5.86241">
        <ele>302.95</ele>
        <time>2016-06-03T10:14:27Z</time>
      </trkpt>
      <trkpt lat="46.95573" lon="5.86244">
        <ele>302.95</ele>
        <time>2016-06-03T10:14:31Z</time>
      </trkpt>
      <trkpt lat="46.95558" lon="5.86262">
        <ele>303.91</ele>
        <time>2016-06-03T10:14:46Z</time>
      </trkpt>
      <trkpt lat="46.95556" lon="5.86264">
        <ele>302.95</ele>
        <time>2016-06-03T10:14:49Z</time>
      </trkpt>
      <trkpt lat="46.95542" lon="5.86276">
        <ele>301.99</ele>
        <time>2016-06-03T10:15:02Z</time>
      </trkpt>
      <trkpt lat="46.95532" lon="5.86284">
        <ele>299.59</ele>
        <time>2016-06-03T10:15:14Z</time>
      </trkpt>
      <trkpt lat="46.95525" lon="5.86295">
        <ele>299.11</ele>
        <time>2016-06-03T10:15:21Z</time>
      </trkpt>
      <trkpt lat="46.95516" lon="5.86309">
        <ele>302.47</ele>
        <time>2016-06-03T10:15:31Z</time>
      </trkpt>
      <trkpt lat="46.95514" lon="5.86309">
        <ele>302.95</ele>
        <time>2016-06-03T10:15:33Z</time>
      </trkpt>
      <trkpt lat="46.95505" lon="5.86319">
        <ele>303.43</ele>
        <time>2016-06-03T10:15:43Z</time>
      </trkpt>
      <trkpt lat="46.95499" lon="5.86323">
        <ele>304.39</ele>
        <time>2016-06-03T10:15:48Z</time>
      </trkpt>
      <trkpt lat="46.95488" lon="5.86335">
        <ele>306.32</ele>
        <time>2016-06-03T10:16:00Z</time>
      </trkpt>
      <trkpt lat="46.95476" lon="5.86348">
        <ele>307.28</ele>
        <time>2016-06-03T10:16:11Z</time>
      </trkpt>
      <trkpt lat="46.95465" lon="5.8636">
        <ele>308.24</ele>
        <time>2016-06-03T10:16:22Z</time>
      </trkpt>
      <trkpt lat="46.95461" lon="5.86361">
        <ele>311.6</ele>
        <time>2016-06-03T10:16:38Z</time>
      </trkpt>
      <trkpt lat="46.95448" lon="5.8637">
        <ele>318.33</ele>
        <time>2016-06-03T10:16:48Z</time>
      </trkpt>
      <trkpt lat="46.95439" lon="5.86376">
        <ele>320.74</ele>
        <time>2016-06-03T10:16:55Z</time>
      </trkpt>
      <trkpt lat="46.95426" lon="5.86387">
        <ele>321.22</ele>
        <time>2016-06-03T10:17:07Z</time>
      </trkpt>
      <trkpt lat="46.95421" lon="5.86395">
        <ele>320.26</ele>
        <time>2016-06-03T10:17:14Z</time>
      </trkpt>
      <trkpt lat="46.95409" lon="5.86408">
        <ele>319.3</ele>
        <time>2016-06-03T10:17:27Z</time>
      </trkpt>
      <trkpt lat="46.95407" lon="5.86409">
        <ele>319.78</ele>
        <time>2016-06-03T10:17:29Z</time>
      </trkpt>
      <trkpt lat="46.95396" lon="5.86426">
        <ele>317.37</ele>
        <time>2016-06-03T10:17:42Z</time>
      </trkpt>
      <trkpt lat="46.95393" lon="5.8643">
        <ele>316.41</ele>
        <time>2016-06-03T10:17:46Z</time>
      </trkpt>
      <trkpt lat="46.9539" lon="5.86434">
        <ele>315.93</ele>
        <time>2016-06-03T10:17:49Z</time>
      </trkpt>
      <trkpt lat="46.95373" lon="5.86448">
        <ele>315.45</ele>
        <time>2016-06-03T10:18:05Z</time>
      </trkpt>
      <trkpt lat="46.95367" lon="5.86456">
        <ele>311.12</ele>
        <time>2016-06-03T10:18:14Z</time>
      </trkpt>
      <trkpt lat="46.95359" lon="5.86469">
        <ele>309.2</ele>
        <time>2016-06-03T10:18:26Z</time>
      </trkpt>
      <trkpt lat="46.95357" lon="5.8647">
        <ele>309.68</ele>
        <time>2016-06-03T10:18:28Z</time>
      </trkpt>
      <trkpt lat="46.95345" lon="5.86487">
        <ele>312.57</ele>
        <time>2016-06-03T10:18:39Z</time>
      </trkpt>
      <trkpt lat="46.95338" lon="5.86494">
        <ele>313.05</ele>
        <time>2016-06-03T10:18:46Z</time>
      </trkpt>
      <trkpt lat="46.95335" lon="5.86499">
        <ele>314.49</ele>
        <time>2016-06-03T10:18:50Z</time>
      </trkpt>
      <trkpt lat="46.9532" lon="5.86516">
        <ele>316.41</ele>
        <time>2016-06-03T10:19:05Z</time>
      </trkpt>
      <trkpt lat="46.95318" lon="5.86518">
        <ele>316.89</ele>
        <time>2016-06-03T10:19:07Z</time>
      </trkpt>
      <trkpt lat="46.95306" lon="5.86533">
        <ele>316.41</ele>
        <time>2016-06-03T10:19:21Z</time>
      </trkpt>
      <trkpt lat="46.95299" lon="5.86545">
        <ele>316.89</ele>
        <time>2016-06-03T10:19:34Z</time>
      </trkpt>
      <trkpt lat="46.95297" lon="5.86548">
        <ele>316.89</ele>
        <time>2016-06-03T10:19:37Z</time>
      </trkpt>
      <trkpt lat="46.95289" lon="5.86561">
        <ele>316.89</ele>
        <time>2016-06-03T10:19:49Z</time>
      </trkpt>
      <trkpt lat="46.95288" lon="5.86562">
        <ele>316.41</ele>
        <time>2016-06-03T10:19:50Z</time>
      </trkpt>
      <trkpt lat="46.95283" lon="5.86571">
        <ele>314.01</ele>
        <time>2016-06-03T10:19:58Z</time>
      </trkpt>
      <trkpt lat="46.95272" lon="5.86585">
        <ele>314.49</ele>
        <time>2016-06-03T10:20:12Z</time>
      </trkpt>
      <trkpt lat="46.95267" lon="5.86592">
        <ele>314.97</ele>
        <time>2016-06-03T10:20:21Z</time>
      </trkpt>
      <trkpt lat="46.95257" lon="5.8661">
        <ele>315.45</ele>
        <time>2016-06-03T10:20:33Z</time>
      </trkpt>
      <trkpt lat="46.95247" lon="5.86629">
        <ele>317.85</ele>
        <time>2016-06-03T10:20:45Z</time>
      </trkpt>
      <trkpt lat="46.95241" lon="5.86644">
        <ele>316.41</ele>
        <time>2016-06-03T10:20:58Z</time>
      </trkpt>
      <trkpt lat="46.95228" lon="5.86668">
        <ele>315.93</ele>
        <time>2016-06-03T10:21:14Z</time>
      </trkpt>
      <trkpt lat="46.9522" lon="5.86695">
        <ele>318.33</ele>
        <time>2016-06-03T10:21:27Z</time>
      </trkpt>
      <trkpt lat="46.9522" lon="5.86698">
        <ele>319.78</ele>
        <time>2016-06-03T10:21:29Z</time>
      </trkpt>
      <trkpt lat="46.95213" lon="5.86724">
        <ele>323.14</ele>
        <time>2016-06-03T10:21:43Z</time>
      </trkpt>
      <trkpt lat="46.95208" lon="5.86738">
        <ele>322.18</ele>
        <time>2016-06-03T10:21:56Z</time>
      </trkpt>
      <trkpt lat="46.95205" lon="5.86756">
        <ele>316.41</ele>
        <time>2016-06-03T10:22:09Z</time>
      </trkpt>
      <trkpt lat="46.95204" lon="5.86777">
        <ele>308.24</ele>
        <time>2016-06-03T10:22:22Z</time>
      </trkpt>
      <trkpt lat="46.95203" lon="5.86779">
        <ele>307.76</ele>
        <time>2016-06-03T10:22:23Z</time>
      </trkpt>
      <trkpt lat="46.95197" lon="5.86801">
        <ele>304.88</ele>
        <time>2016-06-03T10:22:37Z</time>
      </trkpt>
      <trkpt lat="46.95194" lon="5.86808">
        <ele>306.32</ele>
        <time>2016-06-03T10:22:43Z</time>
      </trkpt>
      <trkpt lat="46.95169" lon="5.86827">
        <ele>319.3</ele>
        <time>2016-06-03T10:22:57Z</time>
      </trkpt>
      <trkpt lat="46.95161" lon="5.86843">
        <ele>322.66</ele>
        <time>2016-06-03T10:23:10Z</time>
      </trkpt>
      <trkpt lat="46.95158" lon="5.86856">
        <ele>323.14</ele>
        <time>2016-06-03T10:23:19Z</time>
      </trkpt>
      <trkpt lat="46.95155" lon="5.86873">
        <ele>321.22</ele>
        <time>2016-06-03T10:23:31Z</time>
      </trkpt>
      <trkpt lat="46.95152" lon="5.86886">
        <ele>320.74</ele>
        <time>2016-06-03T10:23:45Z</time>
      </trkpt>
      <trkpt lat="46.9515" lon="5.86902">
        <ele>318.81</ele>
        <time>2016-06-03T10:23:55Z</time>
      </trkpt>
      <trkpt lat="46.95149" lon="5.86909">
        <ele>318.33</ele>
        <time>2016-06-03T10:24:00Z</time>
      </trkpt>
      <trkpt lat="46.95143" lon="5.86933">
        <ele>321.22</ele>
        <time>2016-06-03T10:24:11Z</time>
      </trkpt>
      <trkpt lat="46.95138" lon="5.86959">
        <ele>323.62</ele>
        <time>2016-06-03T10:24:24Z</time>
      </trkpt>
      <trkpt lat="46.95133" lon="5.86981">
        <ele>324.1</ele>
        <time>2016-06-03T10:24:35Z</time>
      </trkpt>
      <trkpt lat="46.95132" lon="5.8699">
        <ele>323.14</ele>
        <time>2016-06-03T10:24:43Z</time>
      </trkpt>
      <trkpt lat="46.95129" lon="5.87018">
        <ele>322.66</ele>
        <time>2016-06-03T10:24:58Z</time>
      </trkpt>
      <trkpt lat="46.95127" lon="5.8704">
        <ele>322.18</ele>
        <time>2016-06-03T10:25:12Z</time>
      </trkpt>
      <trkpt lat="46.9513" lon="5.87049">
        <ele>320.74</ele>
        <time>2016-06-03T10:25:25Z</time>
      </trkpt>
      <trkpt lat="46.95131" lon="5.87051">
        <ele>320.26</ele>
        <time>2016-06-03T10:25:41Z</time>
      </trkpt>
      <trkpt lat="46.95131" lon="5.87052">
        <ele>320.26</ele>
        <time>2016-06-03T10:26:15Z</time>
      </trkpt>
      <trkpt lat="46.9513" lon="5.87052">
        <ele>319.3</ele>
        <time>2016-06-03T10:26:40Z</time>
      </trkpt>
      <trkpt lat="46.95129" lon="5.87053">
        <ele>319.3</ele>
        <time>2016-06-03T10:26:49Z</time>
      </trkpt>
      <trkpt lat="46.95122" lon="5.87056">
        <ele>318.33</ele>
        <time>2016-06-03T10:27:03Z</time>
      </trkpt>
      <trkpt lat="46.95118" lon="5.87056">
        <ele>318.33</ele>
        <time>2016-06-03T10:27:07Z</time>
      </trkpt>
      <trkpt lat="46.95104" lon="5.87053">
        <ele>318.33</ele>
        <time>2016-06-03T10:27:20Z</time>
      </trkpt>
      <trkpt lat="46.95096" lon="5.87047">
        <ele>318.33</ele>
        <time>2016-06-03T10:27:28Z</time>
      </trkpt>
      <trkpt lat="46.95093" lon="5.87043">
        <ele>318.33</ele>
        <time>2016-06-03T10:27:31Z</time>
      </trkpt>
      <trkpt lat="46.95078" lon="5.87038">
        <ele>316.89</ele>
        <time>2016-06-03T10:27:47Z</time>
      </trkpt>
      <trkpt lat="46.9507" lon="5.87037">
        <ele>316.89</ele>
        <time>2016-06-03T10:27:54Z</time>
      </trkpt>
      <trkpt lat="46.95058" lon="5.87047">
        <ele>316.89</ele>
        <time>2016-06-03T10:28:07Z</time>
      </trkpt>
      <trkpt lat="46.95042" lon="5.87061">
        <ele>315.93</ele>
        <time>2016-06-03T10:28:23Z</time>
      </trkpt>
      <trkpt lat="46.95028" lon="5.87068">
        <ele>316.41</ele>
        <time>2016-06-03T10:28:36Z</time>
      </trkpt>
      <trkpt lat="46.95019" lon="5.87078">
        <ele>316.89</ele>
        <time>2016-06-03T10:28:46Z</time>
      </trkpt>
      <trkpt lat="46.9501" lon="5.87076">
        <ele>317.85</ele>
        <time>2016-06-03T10:28:54Z</time>
      </trkpt>
      <trkpt lat="46.95" lon="5.87081">
        <ele>319.3</ele>
        <time>2016-06-03T10:29:06Z</time>
      </trkpt>
      <trkpt lat="46.94999" lon="5.87081">
        <ele>319.78</ele>
        <time>2016-06-03T10:29:29Z</time>
      </trkpt>
      <trkpt lat="46.94998" lon="5.87081">
        <ele>320.74</ele>
        <time>2016-06-03T10:30:00Z</time>
      </trkpt>
      <trkpt lat="46.94998" lon="5.87082">
        <ele>321.22</ele>
        <time>2016-06-03T10:30:28Z</time>
      </trkpt>
      <trkpt lat="46.94998" lon="5.87083">
        <ele>321.22</ele>
        <time>2016-06-03T10:30:49Z</time>
      </trkpt>
      <trkpt lat="46.94999" lon="5.87087">
        <ele>320.26</ele>
        <time>2016-06-03T10:31:07Z</time>
      </trkpt>
      <trkpt lat="46.95" lon="5.87092">
        <ele>319.78</ele>
        <time>2016-06-03T10:31:10Z</time>
      </trkpt>
      <trkpt lat="46.94998" lon="5.87103">
        <ele>319.3</ele>
        <time>2016-06-03T10:31:18Z</time>
      </trkpt>
      <trkpt lat="46.9499" lon="5.87123">
        <ele>317.85</ele>
        <time>2016-06-03T10:31:33Z</time>
      </trkpt>
      <trkpt lat="46.94986" lon="5.87135">
        <ele>316.89</ele>
        <time>2016-06-03T10:31:41Z</time>
      </trkpt>
      <trkpt lat="46.94985" lon="5.87139">
        <ele>316.41</ele>
        <time>2016-06-03T10:31:44Z</time>
      </trkpt>
      <trkpt lat="46.9498" lon="5.87154">
        <ele>315.45</ele>
        <time>2016-06-03T10:31:54Z</time>
      </trkpt>
      <trkpt lat="46.94971" lon="5.87179">
        <ele>315.93</ele>
        <time>2016-06-03T10:32:10Z</time>
      </trkpt>
      <trkpt lat="46.94966" lon="5.87199">
        <ele>317.37</ele>
        <time>2016-06-03T10:32:24Z</time>
      </trkpt>
      <trkpt lat="46.94958" lon="5.87226">
        <ele>318.81</ele>
        <time>2016-06-03T10:32:39Z</time>
      </trkpt>
      <trkpt lat="46.94952" lon="5.87245">
        <ele>319.3</ele>
        <time>2016-06-03T10:32:52Z</time>
      </trkpt>
      <trkpt lat="46.94951" lon="5.87247">
        <ele>319.78</ele>
        <time>2016-06-03T10:32:54Z</time>
      </trkpt>
      <trkpt lat="46.94944" lon="5.87264">
        <ele>318.33</ele>
        <time>2016-06-03T10:33:06Z</time>
      </trkpt>
      <trkpt lat="46.94939" lon="5.87282">
        <ele>313.05</ele>
        <time>2016-06-03T10:33:20Z</time>
      </trkpt>
      <trkpt lat="46.94935" lon="5.8729">
        <ele>313.53</ele>
        <time>2016-06-03T10:33:35Z</time>
      </trkpt>
      <trkpt lat="46.94926" lon="5.8731">
        <ele>315.93</ele>
        <time>2016-06-03T10:33:48Z</time>
      </trkpt>
      <trkpt lat="46.94922" lon="5.87326">
        <ele>320.74</ele>
        <time>2016-06-03T10:33:59Z</time>
      </trkpt>
      <trkpt lat="46.94919" lon="5.87344">
        <ele>319.3</ele>
        <time>2016-06-03T10:34:11Z</time>
      </trkpt>
      <trkpt lat="46.94917" lon="5.87346">
        <ele>318.81</ele>
        <time>2016-06-03T10:34:13Z</time>
      </trkpt>
      <trkpt lat="46.94912" lon="5.87358">
        <ele>315.93</ele>
        <time>2016-06-03T10:34:22Z</time>
      </trkpt>
      <trkpt lat="46.94903" lon="5.87382">
        <ele>314.49</ele>
        <time>2016-06-03T10:34:36Z</time>
      </trkpt>
      <trkpt lat="46.949" lon="5.87389">
        <ele>318.33</ele>
        <time>2016-06-03T10:34:51Z</time>
      </trkpt>
      <trkpt lat="46.949" lon="5.8739">
        <ele>320.26</ele>
        <time>2016-06-03T10:35:09Z</time>
      </trkpt>
      <trkpt lat="46.949" lon="5.87389">
        <ele>321.7</ele>
        <time>2016-06-03T10:35:31Z</time>
      </trkpt>
      <trkpt lat="46.949" lon="5.87388">
        <ele>322.66</ele>
        <time>2016-06-03T10:35:55Z</time>
      </trkpt>
      <trkpt lat="46.94899" lon="5.87387">
        <ele>322.66</ele>
        <time>2016-06-03T10:36:11Z</time>
      </trkpt>
      <trkpt lat="46.94899" lon="5.87388">
        <ele>322.18</ele>
        <time>2016-06-03T10:36:38Z</time>
      </trkpt>
      <trkpt lat="46.94899" lon="5.87388">
        <ele>321.7</ele>
        <time>2016-06-03T10:37:04Z</time>
      </trkpt>
      <trkpt lat="46.94898" lon="5.87388">
        <ele>321.7</ele>
        <time>2016-06-03T10:37:22Z</time>
      </trkpt>
      <trkpt lat="46.94898" lon="5.87388">
        <ele>321.7</ele>
        <time>2016-06-03T10:37:46Z</time>
      </trkpt>
      <trkpt lat="46.94898" lon="5.87388">
        <ele>322.66</ele>
        <time>2016-06-03T10:38:11Z</time>
      </trkpt>
      <trkpt lat="46.94898" lon="5.87388">
        <ele>324.1</ele>
        <time>2016-06-03T10:38:31Z</time>
      </trkpt>
      <trkpt lat="46.94897" lon="5.87388">
        <ele>324.58</ele>
        <time>2016-06-03T10:38:51Z</time>
      </trkpt>
      <trkpt lat="46.94898" lon="5.87388">
        <ele>324.1</ele>
        <time>2016-06-03T10:39:10Z</time>
      </trkpt>
      <trkpt lat="46.94898" lon="5.87388">
        <ele>324.1</ele>
        <time>2016-06-03T10:39:26Z</time>
      </trkpt>
      <trkpt lat="46.94898" lon="5.87387">
        <ele>324.1</ele>
        <time>2016-06-03T10:39:46Z</time>
      </trkpt>
      <trkpt lat="46.94898" lon="5.87387">
        <ele>324.1</ele>
        <time>2016-06-03T10:40:10Z</time>
      </trkpt>
      <trkpt lat="46.94898" lon="5.87387">
        <ele>324.1</ele>
        <time>2016-06-03T10:40:31Z</time>
      </trkpt>
      <trkpt lat="46.94898" lon="5.87387">
        <ele>323.62</ele>
        <time>2016-06-03T10:40:52Z</time>
      </trkpt>
      <trkpt lat="46.94898" lon="5.87387">
        <ele>323.14</ele>
        <time>2016-06-03T10:41:15Z</time>
      </trkpt>
      <trkpt lat="46.94898" lon="5.87387">
        <ele>323.62</ele>
        <time>2016-06-03T10:41:41Z</time>
      </trkpt>
      <trkpt lat="46.94898" lon="5.87386">
        <ele>323.14</ele>
        <time>2016-06-03T10:41:58Z</time>
      </trkpt>
      <trkpt lat="46.94898" lon="5.87386">
        <ele>323.62</ele>
        <time>2016-06-03T10:42:16Z</time>
      </trkpt>
      <trkpt lat="46.94898" lon="5.87386">
        <ele>323.62</ele>
        <time>2016-06-03T10:42:33Z</time>
      </trkpt>
      <trkpt lat="46.94898" lon="5.87386">
        <ele>324.58</ele>
        <time>2016-06-03T10:42:53Z</time>
      </trkpt>
      <trkpt lat="46.94898" lon="5.87386">
        <ele>324.58</ele>
        <time>2016-06-03T10:43:19Z</time>
      </trkpt>
      <trkpt lat="46.94898" lon="5.87386">
        <ele>325.06</ele>
        <time>2016-06-03T10:43:45Z</time>
      </trkpt>
      <trkpt lat="46.94898" lon="5.87386">
        <ele>325.06</ele>
        <time>2016-06-03T10:44:08Z</time>
      </trkpt>
      <trkpt lat="46.94898" lon="5.87385">
        <ele>326.5</ele>
        <time>2016-06-03T10:44:32Z</time>
      </trkpt>
      <trkpt lat="46.94898" lon="5.87385">
        <ele>326.02</ele>
        <time>2016-06-03T10:44:57Z</time>
      </trkpt>
      <trkpt lat="46.94898" lon="5.87385">
        <ele>326.02</ele>
        <time>2016-06-03T10:45:14Z</time>
      </trkpt>
      <trkpt lat="46.94898" lon="5.87385">
        <ele>326.02</ele>
        <time>2016-06-03T10:45:35Z</time>
      </trkpt>
      <trkpt lat="46.94898" lon="5.87384">
        <ele>326.02</ele>
        <time>2016-06-03T10:45:59Z</time>
      </trkpt>
      <trkpt lat="46.94898" lon="5.87384">
        <ele>326.02</ele>
        <time>2016-06-03T10:46:15Z</time>
      </trkpt>
      <trkpt lat="46.94897" lon="5.87384">
        <ele>326.02</ele>
        <time>2016-06-03T10:46:36Z</time>
      </trkpt>
      <trkpt lat="46.94897" lon="5.87384">
        <ele>326.02</ele>
        <time>2016-06-03T10:46:58Z</time>
      </trkpt>
      <trkpt lat="46.94897" lon="5.87384">
        <ele>326.02</ele>
        <time>2016-06-03T10:47:18Z</time>
      </trkpt>
      <trkpt lat="46.94895" lon="5.87386">
        <ele>325.06</ele>
        <time>2016-06-03T10:47:40Z</time>
      </trkpt>
      <trkpt lat="46.94892" lon="5.87395">
        <ele>324.1</ele>
        <time>2016-06-03T10:47:50Z</time>
      </trkpt>
      <trkpt lat="46.94891" lon="5.87394">
        <ele>326.02</ele>
        <time>2016-06-03T10:48:00Z</time>
      </trkpt>
      <trkpt lat="46.94891" lon="5.87395">
        <ele>326.5</ele>
        <time>2016-06-03T10:48:01Z</time>
      </trkpt>
      <trkpt lat="46.94884" lon="5.87411">
        <ele>327.47</ele>
        <time>2016-06-03T10:48:11Z</time>
      </trkpt>
      <trkpt lat="46.94882" lon="5.87414">
        <ele>327.95</ele>
        <time>2016-06-03T10:48:14Z</time>
      </trkpt>
      <trkpt lat="46.94871" lon="5.87436">
        <ele>326.02</ele>
        <time>2016-06-03T10:48:30Z</time>
      </trkpt>
      <trkpt lat="46.94864" lon="5.8745">
        <ele>324.1</ele>
        <time>2016-06-03T10:48:42Z</time>
      </trkpt>
      <trkpt lat="46.94859" lon="5.87462">
        <ele>322.18</ele>
        <time>2016-06-03T10:48:52Z</time>
      </trkpt>
      <trkpt lat="46.9485" lon="5.87479">
        <ele>321.7</ele>
        <time>2016-06-03T10:49:04Z</time>
      </trkpt>
      <trkpt lat="46.9484" lon="5.87497">
        <ele>321.7</ele>
        <time>2016-06-03T10:49:17Z</time>
      </trkpt>
      <trkpt lat="46.94832" lon="5.87517">
        <ele>320.74</ele>
        <time>2016-06-03T10:49:29Z</time>
      </trkpt>
      <trkpt lat="46.94823" lon="5.87534">
        <ele>320.26</ele>
        <time>2016-06-03T10:49:42Z</time>
      </trkpt>
      <trkpt lat="46.94812" lon="5.87552">
        <ele>320.26</ele>
        <time>2016-06-03T10:49:55Z</time>
      </trkpt>
      <trkpt lat="46.94802" lon="5.87565">
        <ele>320.74</ele>
        <time>2016-06-03T10:50:06Z</time>
      </trkpt>
      <trkpt lat="46.94791" lon="5.87579">
        <ele>322.66</ele>
        <time>2016-06-03T10:50:18Z</time>
      </trkpt>
      <trkpt lat="46.94779" lon="5.87597">
        <ele>323.62</ele>
        <time>2016-06-03T10:50:32Z</time>
      </trkpt>
      <trkpt lat="46.94775" lon="5.87607">
        <ele>325.06</ele>
        <time>2016-06-03T10:50:47Z</time>
      </trkpt>
      <trkpt lat="46.94772" lon="5.87614">
        <ele>326.5</ele>
        <time>2016-06-03T10:50:51Z</time>
      </trkpt>
      <trkpt lat="46.94769" lon="5.87619">
        <ele>326.99</ele>
        <time>2016-06-03T10:50:54Z</time>
      </trkpt>
      <trkpt lat="46.94762" lon="5.87633">
        <ele>328.43</ele>
        <time>2016-06-03T10:51:04Z</time>
      </trkpt>
      <trkpt lat="46.94756" lon="5.87646">
        <ele>327.95</ele>
        <time>2016-06-03T10:51:13Z</time>
      </trkpt>
      <trkpt lat="46.94748" lon="5.87653">
        <ele>325.54</ele>
        <time>2016-06-03T10:51:21Z</time>
      </trkpt>
      <trkpt lat="46.94742" lon="5.87668">
        <ele>323.62</ele>
        <time>2016-06-03T10:51:34Z</time>
      </trkpt>
      <trkpt lat="46.94735" lon="5.87679">
        <ele>322.18</ele>
        <time>2016-06-03T10:51:49Z</time>
      </trkpt>
      <trkpt lat="46.94725" lon="5.87698">
        <ele>321.7</ele>
        <time>2016-06-03T10:52:02Z</time>
      </trkpt>
      <trkpt lat="46.94713" lon="5.87715">
        <ele>322.18</ele>
        <time>2016-06-03T10:52:16Z</time>
      </trkpt>
      <trkpt lat="46.94702" lon="5.87734">
        <ele>323.14</ele>
        <time>2016-06-03T10:52:30Z</time>
      </trkpt>
      <trkpt lat="46.94697" lon="5.87746">
        <ele>323.62</ele>
        <time>2016-06-03T10:52:43Z</time>
      </trkpt>
      <trkpt lat="46.94686" lon="5.87766">
        <ele>325.06</ele>
        <time>2016-06-03T10:52:57Z</time>
      </trkpt>
      <trkpt lat="46.94678" lon="5.8778">
        <ele>326.99</ele>
        <time>2016-06-03T10:53:07Z</time>
      </trkpt>
      <trkpt lat="46.94676" lon="5.87786">
        <ele>327.95</ele>
        <time>2016-06-03T10:53:10Z</time>
      </trkpt>
      <trkpt lat="46.94666" lon="5.87806">
        <ele>328.91</ele>
        <time>2016-06-03T10:53:26Z</time>
      </trkpt>
      <trkpt lat="46.94666" lon="5.87808">
        <ele>328.91</ele>
        <time>2016-06-03T10:53:27Z</time>
      </trkpt>
      <trkpt lat="46.94663" lon="5.87813">
        <ele>328.43</ele>
        <time>2016-06-03T10:53:31Z</time>
      </trkpt>
      <trkpt lat="46.9466" lon="5.87822">
        <ele>328.43</ele>
        <time>2016-06-03T10:53:37Z</time>
      </trkpt>
      <trkpt lat="46.9465" lon="5.87842">
        <ele>331.31</ele>
        <time>2016-06-03T10:53:50Z</time>
      </trkpt>
      <trkpt lat="46.94644" lon="5.87853">
        <ele>332.27</ele>
        <time>2016-06-03T10:53:59Z</time>
      </trkpt>
      <trkpt lat="46.94635" lon="5.87871">
        <ele>334.68</ele>
        <time>2016-06-03T10:54:11Z</time>
      </trkpt>
      <trkpt lat="46.94631" lon="5.87882">
        <ele>334.68</ele>
        <time>2016-06-03T10:54:24Z</time>
      </trkpt>
      <trkpt lat="46.9463" lon="5.87886">
        <ele>332.75</ele>
        <time>2016-06-03T10:54:37Z</time>
      </trkpt>
      <trkpt lat="46.94627" lon="5.87887">
        <ele>331.79</ele>
        <time>2016-06-03T10:54:57Z</time>
      </trkpt>
      <trkpt lat="46.94621" lon="5.87888">
        <ele>332.27</ele>
        <time>2016-06-03T10:55:08Z</time>
      </trkpt>
      <trkpt lat="46.9462" lon="5.87887">
        <ele>332.27</ele>
        <time>2016-06-03T10:55:18Z</time>
      </trkpt>
      <trkpt lat="46.94615" lon="5.87884">
        <ele>332.27</ele>
        <time>2016-06-03T10:55:29Z</time>
      </trkpt>
      <trkpt lat="46.94614" lon="5.87885">
        <ele>332.27</ele>
        <time>2016-06-03T10:55:31Z</time>
      </trkpt>
      <trkpt lat="46.94606" lon="5.87887">
        <ele>330.35</ele>
        <time>2016-06-03T10:55:42Z</time>
      </trkpt>
      <trkpt lat="46.94605" lon="5.87891">
        <ele>329.87</ele>
        <time>2016-06-03T10:55:56Z</time>
      </trkpt>
      <trkpt lat="46.94603" lon="5.87895">
        <ele>330.35</ele>
        <time>2016-06-03T10:56:09Z</time>
      </trkpt>
      <trkpt lat="46.94602" lon="5.87897">
        <ele>331.31</ele>
        <time>2016-06-03T10:56:25Z</time>
      </trkpt>
      <trkpt lat="46.94602" lon="5.87897">
        <ele>331.79</ele>
        <time>2016-06-03T10:56:45Z</time>
      </trkpt>
      <trkpt lat="46.94602" lon="5.87896">
        <ele>331.31</ele>
        <time>2016-06-03T10:57:09Z</time>
      </trkpt>
      <trkpt lat="46.94602" lon="5.87896">
        <ele>330.83</ele>
        <time>2016-06-03T10:57:28Z</time>
      </trkpt>
      <trkpt lat="46.94604" lon="5.87896">
        <ele>332.27</ele>
        <time>2016-06-03T10:57:44Z</time>
      </trkpt>
      <trkpt lat="46.94604" lon="5.87896">
        <ele>333.23</ele>
        <time>2016-06-03T10:58:06Z</time>
      </trkpt>
      <trkpt lat="46.94603" lon="5.87896">
        <ele>333.71</ele>
        <time>2016-06-03T10:58:26Z</time>
      </trkpt>
      <trkpt lat="46.94603" lon="5.87896">
        <ele>334.68</ele>
        <time>2016-06-03T10:58:48Z</time>
      </trkpt>
      <trkpt lat="46.94603" lon="5.87896">
        <ele>335.16</ele>
        <time>2016-06-03T10:59:05Z</time>
      </trkpt>
      <trkpt lat="46.94603" lon="5.87895">
        <ele>335.64</ele>
        <time>2016-06-03T10:59:24Z</time>
      </trkpt>
      <trkpt lat="46.94603" lon="5.87895">
        <ele>336.12</ele>
        <time>2016-06-03T10:59:40Z</time>
      </trkpt>
      <trkpt lat="46.94592" lon="5.87894">
        <ele>332.75</ele>
        <time>2016-06-03T10:59:53Z</time>
      </trkpt>
      <trkpt lat="46.94591" lon="5.87892">
        <ele>332.27</ele>
        <time>2016-06-03T11:00:15Z</time>
      </trkpt>
      <trkpt lat="46.94592" lon="5.8789">
        <ele>332.27</ele>
        <time>2016-06-03T11:00:29Z</time>
      </trkpt>
      <trkpt lat="46.94596" lon="5.87889">
        <ele>331.31</ele>
        <time>2016-06-03T11:00:44Z</time>
      </trkpt>
      <trkpt lat="46.94595" lon="5.87889">
        <ele>332.27</ele>
        <time>2016-06-03T11:00:50Z</time>
      </trkpt>
      <trkpt lat="46.94596" lon="5.87886">
        <ele>332.75</ele>
        <time>2016-06-03T11:00:56Z</time>
      </trkpt>
      <trkpt lat="46.94598" lon="5.87885">
        <ele>332.75</ele>
        <time>2016-06-03T11:00:58Z</time>
      </trkpt>
      <trkpt lat="46.94601" lon="5.87885">
        <ele>332.75</ele>
        <time>2016-06-03T11:01:10Z</time>
      </trkpt>
      <trkpt lat="46.94601" lon="5.87884">
        <ele>333.23</ele>
        <time>2016-06-03T11:01:12Z</time>
      </trkpt>
      <trkpt lat="46.94606" lon="5.87871">
        <ele>333.71</ele>
        <time>2016-06-03T11:01:21Z</time>
      </trkpt>
      <trkpt lat="46.94611" lon="5.87859">
        <ele>328.43</ele>
        <time>2016-06-03T11:01:33Z</time>
      </trkpt>
      <trkpt lat="46.94614" lon="5.87854">
        <ele>326.99</ele>
        <time>2016-06-03T11:01:47Z</time>
      </trkpt>
      <trkpt lat="46.94616" lon="5.87853">
        <ele>326.5</ele>
        <time>2016-06-03T11:01:49Z</time>
      </trkpt>
      <trkpt lat="46.94621" lon="5.87846">
        <ele>326.5</ele>
        <time>2016-06-03T11:01:55Z</time>
      </trkpt>
      <trkpt lat="46.94626" lon="5.8784">
        <ele>326.99</ele>
        <time>2016-06-03T11:02:00Z</time>
      </trkpt>
      <trkpt lat="46.94634" lon="5.87827">
        <ele>326.02</ele>
        <time>2016-06-03T11:02:08Z</time>
      </trkpt>
      <trkpt lat="46.94639" lon="5.87818">
        <ele>326.99</ele>
        <time>2016-06-03T11:02:14Z</time>
      </trkpt>
      <trkpt lat="46.94642" lon="5.87812">
        <ele>327.47</ele>
        <time>2016-06-03T11:02:18Z</time>
      </trkpt>
      <trkpt lat="46.94645" lon="5.87808">
        <ele>327.47</ele>
        <time>2016-06-03T11:02:22Z</time>
      </trkpt>
      <trkpt lat="46.94647" lon="5.87804">
        <ele>327.95</ele>
        <time>2016-06-03T11:02:25Z</time>
      </trkpt>
      <trkpt lat="46.94657" lon="5.87786">
        <ele>326.02</ele>
        <time>2016-06-03T11:02:38Z</time>
      </trkpt>
      <trkpt lat="46.9466" lon="5.87784">
        <ele>325.54</ele>
        <time>2016-06-03T11:02:41Z</time>
      </trkpt>
      <trkpt lat="46.94668" lon="5.87768">
        <ele>324.58</ele>
        <time>2016-06-03T11:02:52Z</time>
      </trkpt>
      <trkpt lat="46.9467" lon="5.87763">
        <ele>323.14</ele>
        <time>2016-06-03T11:02:56Z</time>
      </trkpt>
      <trkpt lat="46.9468" lon="5.87746">
        <ele>322.18</ele>
        <time>2016-06-03T11:03:07Z</time>
      </trkpt>
      <trkpt lat="46.94684" lon="5.87733">
        <ele>322.66</ele>
        <time>2016-06-03T11:03:16Z</time>
      </trkpt>
      <trkpt lat="46.94687" lon="5.87728">
        <ele>321.22</ele>
        <time>2016-06-03T11:03:20Z</time>
      </trkpt>
      <trkpt lat="46.94691" lon="5.87716">
        <ele>320.26</ele>
        <time>2016-06-03T11:03:29Z</time>
      </trkpt>
      <trkpt lat="46.94699" lon="5.87701">
        <ele>316.41</ele>
        <time>2016-06-03T11:03:41Z</time>
      </trkpt>
      <trkpt lat="46.94705" lon="5.87691">
        <ele>317.85</ele>
        <time>2016-06-03T11:03:48Z</time>
      </trkpt>
      <trkpt lat="46.94708" lon="5.87688">
        <ele>318.33</ele>
        <time>2016-06-03T11:03:50Z</time>
      </trkpt>
      <trkpt lat="46.94716" lon="5.87671">
        <ele>319.3</ele>
        <time>2016-06-03T11:04:01Z</time>
      </trkpt>
      <trkpt lat="46.94726" lon="5.87651">
        <ele>317.85</ele>
        <time>2016-06-03T11:04:15Z</time>
      </trkpt>
      <trkpt lat="46.94729" lon="5.87648">
        <ele>317.37</ele>
        <time>2016-06-03T11:04:18Z</time>
      </trkpt>
      <trkpt lat="46.94737" lon="5.87635">
        <ele>317.85</ele>
        <time>2016-06-03T11:04:28Z</time>
      </trkpt>
      <trkpt lat="46.94738" lon="5.87628">
        <ele>318.33</ele>
        <time>2016-06-03T11:04:33Z</time>
      </trkpt>
      <trkpt lat="46.94744" lon="5.87623">
        <ele>317.85</ele>
        <time>2016-06-03T11:04:37Z</time>
      </trkpt>
      <trkpt lat="46.94745" lon="5.87612">
        <ele>315.45</ele>
        <time>2016-06-03T11:04:44Z</time>
      </trkpt>
      <trkpt lat="46.94753" lon="5.87596">
        <ele>316.41</ele>
        <time>2016-06-03T11:04:54Z</time>
      </trkpt>
      <trkpt lat="46.94757" lon="5.87592">
        <ele>316.89</ele>
        <time>2016-06-03T11:04:57Z</time>
      </trkpt>
      <trkpt lat="46.94762" lon="5.87584">
        <ele>317.37</ele>
        <time>2016-06-03T11:05:04Z</time>
      </trkpt>
      <trkpt lat="46.94765" lon="5.87582">
        <ele>317.37</ele>
        <time>2016-06-03T11:05:06Z</time>
      </trkpt>
      <trkpt lat="46.94768" lon="5.87572">
        <ele>316.41</ele>
        <time>2016-06-03T11:05:15Z</time>
      </trkpt>
      <trkpt lat="46.94759" lon="5.87554">
        <ele>314.97</ele>
        <time>2016-06-03T11:05:26Z</time>
      </trkpt>
      <trkpt lat="46.94758" lon="5.87544">
        <ele>315.93</ele>
        <time>2016-06-03T11:05:37Z</time>
      </trkpt>
      <trkpt lat="46.94758" lon="5.87544">
        <ele>315.45</ele>
        <time>2016-06-03T11:05:38Z</time>
      </trkpt>
      <trkpt lat="46.9476" lon="5.8754">
        <ele>314.97</ele>
        <time>2016-06-03T11:05:54Z</time>
      </trkpt>
      <trkpt lat="46.94761" lon="5.87541">
        <ele>314.49</ele>
        <time>2016-06-03T11:06:15Z</time>
      </trkpt>
      <trkpt lat="46.94762" lon="5.87542">
        <ele>314.49</ele>
        <time>2016-06-03T11:06:23Z</time>
      </trkpt>
      <trkpt lat="46.94767" lon="5.87555">
        <ele>309.2</ele>
        <time>2016-06-03T11:24:42Z</time>
      </trkpt>
      <trkpt lat="46.94763" lon="5.8756">
        <ele>311.6</ele>
        <time>2016-06-03T11:25:02Z</time>
      </trkpt>
      <trkpt lat="46.94762" lon="5.87559">
        <ele>301.03</ele>
        <time>2016-06-03T11:25:21Z</time>
      </trkpt>
      <trkpt lat="46.94762" lon="5.87561">
        <ele>298.15</ele>
        <time>2016-06-03T11:25:37Z</time>
      </trkpt>
      <trkpt lat="46.9471" lon="5.87579">
        <ele>360.15</ele>
        <time>2016-06-03T11:30:05Z</time>
      </trkpt>
      <trkpt lat="46.94717" lon="5.87618">
        <ele>334.68</ele>
        <time>2016-06-03T11:30:13Z</time>
      </trkpt>
      <trkpt lat="46.94716" lon="5.87636">
        <ele>328.91</ele>
        <time>2016-06-03T11:30:25Z</time>
      </trkpt>
      <trkpt lat="46.94715" lon="5.87656">
        <ele>328.43</ele>
        <time>2016-06-03T11:30:38Z</time>
      </trkpt>
      <trkpt lat="46.9472" lon="5.87674">
        <ele>327.47</ele>
        <time>2016-06-03T11:30:51Z</time>
      </trkpt>
      <trkpt lat="46.94717" lon="5.8768">
        <ele>325.06</ele>
        <time>2016-06-03T11:31:04Z</time>
      </trkpt>
      <trkpt lat="46.94709" lon="5.87691">
        <ele>322.18</ele>
        <time>2016-06-03T11:31:17Z</time>
      </trkpt>
      <trkpt lat="46.94707" lon="5.87694">
        <ele>321.22</ele>
        <time>2016-06-03T11:31:20Z</time>
      </trkpt>
      <trkpt lat="46.94696" lon="5.87707">
        <ele>315.45</ele>
        <time>2016-06-03T11:31:33Z</time>
      </trkpt>
      <trkpt lat="46.94691" lon="5.87715">
        <ele>314.49</ele>
        <time>2016-06-03T11:31:40Z</time>
      </trkpt>
      <trkpt lat="46.94683" lon="5.87742">
        <ele>318.33</ele>
        <time>2016-06-03T11:31:54Z</time>
      </trkpt>
      <trkpt lat="46.94679" lon="5.87751">
        <ele>320.26</ele>
        <time>2016-06-03T11:32:01Z</time>
      </trkpt>
      <trkpt lat="46.94668" lon="5.87767">
        <ele>320.74</ele>
        <time>2016-06-03T11:32:15Z</time>
      </trkpt>
      <trkpt lat="46.94658" lon="5.87787">
        <ele>322.18</ele>
        <time>2016-06-03T11:32:28Z</time>
      </trkpt>
      <trkpt lat="46.94656" lon="5.8779">
        <ele>322.66</ele>
        <time>2016-06-03T11:32:30Z</time>
      </trkpt>
      <trkpt lat="46.94652" lon="5.87799">
        <ele>323.62</ele>
        <time>2016-06-03T11:32:36Z</time>
      </trkpt>
      <trkpt lat="46.94641" lon="5.8782">
        <ele>327.47</ele>
        <time>2016-06-03T11:32:52Z</time>
      </trkpt>
      <trkpt lat="46.94638" lon="5.87828">
        <ele>328.43</ele>
        <time>2016-06-03T11:32:57Z</time>
      </trkpt>
      <trkpt lat="46.94627" lon="5.87844">
        <ele>329.39</ele>
        <time>2016-06-03T11:33:11Z</time>
      </trkpt>
      <trkpt lat="46.94624" lon="5.8785">
        <ele>329.39</ele>
        <time>2016-06-03T11:33:16Z</time>
      </trkpt>
      <trkpt lat="46.94617" lon="5.87858">
        <ele>330.35</ele>
        <time>2016-06-03T11:33:25Z</time>
      </trkpt>
      <trkpt lat="46.94602" lon="5.87864">
        <ele>330.35</ele>
        <time>2016-06-03T11:33:39Z</time>
      </trkpt>
      <trkpt lat="46.94601" lon="5.87867">
        <ele>330.83</ele>
        <time>2016-06-03T11:33:49Z</time>
      </trkpt>
      <trkpt lat="46.94601" lon="5.87869">
        <ele>331.31</ele>
        <time>2016-06-03T11:33:52Z</time>
      </trkpt>
      <trkpt lat="46.94603" lon="5.87876">
        <ele>330.35</ele>
        <time>2016-06-03T11:33:56Z</time>
      </trkpt>
      <trkpt lat="46.94605" lon="5.87902">
        <ele>334.68</ele>
        <time>2016-06-03T11:34:11Z</time>
      </trkpt>
      <trkpt lat="46.94601" lon="5.87908">
        <ele>335.16</ele>
        <time>2016-06-03T11:34:17Z</time>
      </trkpt>
      <trkpt lat="46.94599" lon="5.8791">
        <ele>335.64</ele>
        <time>2016-06-03T11:34:19Z</time>
      </trkpt>
      <trkpt lat="46.94594" lon="5.87915">
        <ele>337.08</ele>
        <time>2016-06-03T11:34:24Z</time>
      </trkpt>
      <trkpt lat="46.94592" lon="5.87918">
        <ele>337.08</ele>
        <time>2016-06-03T11:34:26Z</time>
      </trkpt>
      <trkpt lat="46.9459" lon="5.87924">
        <ele>338.04</ele>
        <time>2016-06-03T11:34:31Z</time>
      </trkpt>
      <trkpt lat="46.94589" lon="5.87926">
        <ele>339</ele>
        <time>2016-06-03T11:34:33Z</time>
      </trkpt>
      <trkpt lat="46.94589" lon="5.8793">
        <ele>339.96</ele>
        <time>2016-06-03T11:34:35Z</time>
      </trkpt>
      <trkpt lat="46.94581" lon="5.87943">
        <ele>341.89</ele>
        <time>2016-06-03T11:34:46Z</time>
      </trkpt>
      <trkpt lat="46.94575" lon="5.87954">
        <ele>342.85</ele>
        <time>2016-06-03T11:34:55Z</time>
      </trkpt>
      <trkpt lat="46.94571" lon="5.87958">
        <ele>343.33</ele>
        <time>2016-06-03T11:35:00Z</time>
      </trkpt>
      <trkpt lat="46.94567" lon="5.87964">
        <ele>343.81</ele>
        <time>2016-06-03T11:35:05Z</time>
      </trkpt>
      <trkpt lat="46.94565" lon="5.87966">
        <ele>343.81</ele>
        <time>2016-06-03T11:35:08Z</time>
      </trkpt>
      <trkpt lat="46.94556" lon="5.87979">
        <ele>346.69</ele>
        <time>2016-06-03T11:35:21Z</time>
      </trkpt>
      <trkpt lat="46.94551" lon="5.87987">
        <ele>348.62</ele>
        <time>2016-06-03T11:35:27Z</time>
      </trkpt>
      <trkpt lat="46.94541" lon="5.87998">
        <ele>350.06</ele>
        <time>2016-06-03T11:35:40Z</time>
      </trkpt>
      <trkpt lat="46.9454" lon="5.87998">
        <ele>350.06</ele>
        <time>2016-06-03T11:35:41Z</time>
      </trkpt>
      <trkpt lat="46.94533" lon="5.88004">
        <ele>348.13</ele>
        <time>2016-06-03T11:35:52Z</time>
      </trkpt>
      <trkpt lat="46.94531" lon="5.88007">
        <ele>347.65</ele>
        <time>2016-06-03T11:35:55Z</time>
      </trkpt>
      <trkpt lat="46.94523" lon="5.88012">
        <ele>349.1</ele>
        <time>2016-06-03T11:36:07Z</time>
      </trkpt>
      <trkpt lat="46.9452" lon="5.88015">
        <ele>348.62</ele>
        <time>2016-06-03T11:36:11Z</time>
      </trkpt>
      <trkpt lat="46.94508" lon="5.88021">
        <ele>351.5</ele>
        <time>2016-06-03T11:36:22Z</time>
      </trkpt>
      <trkpt lat="46.94499" lon="5.88027">
        <ele>353.9</ele>
        <time>2016-06-03T11:36:30Z</time>
      </trkpt>
      <trkpt lat="46.94495" lon="5.88028">
        <ele>353.42</ele>
        <time>2016-06-03T11:36:35Z</time>
      </trkpt>
      <trkpt lat="46.94481" lon="5.88033">
        <ele>353.42</ele>
        <time>2016-06-03T11:36:48Z</time>
      </trkpt>
      <trkpt lat="46.94471" lon="5.88034">
        <ele>351.02</ele>
        <time>2016-06-03T11:36:59Z</time>
      </trkpt>
      <trkpt lat="46.94461" lon="5.88037">
        <ele>351.5</ele>
        <time>2016-06-03T11:37:12Z</time>
      </trkpt>
      <trkpt lat="46.94454" lon="5.88038">
        <ele>350.54</ele>
        <time>2016-06-03T11:37:20Z</time>
      </trkpt>
      <trkpt lat="46.9444" lon="5.88045">
        <ele>351.5</ele>
        <time>2016-06-03T11:37:32Z</time>
      </trkpt>
      <trkpt lat="46.94433" lon="5.88045">
        <ele>351.98</ele>
        <time>2016-06-03T11:37:40Z</time>
      </trkpt>
      <trkpt lat="46.94427" lon="5.88045">
        <ele>352.46</ele>
        <time>2016-06-03T11:37:44Z</time>
      </trkpt>
      <trkpt lat="46.94417" lon="5.88041">
        <ele>352.94</ele>
        <time>2016-06-03T11:37:55Z</time>
      </trkpt>
      <trkpt lat="46.94401" lon="5.88037">
        <ele>351.5</ele>
        <time>2016-06-03T11:38:10Z</time>
      </trkpt>
      <trkpt lat="46.9439" lon="5.88039">
        <ele>347.65</ele>
        <time>2016-06-03T11:38:21Z</time>
      </trkpt>
      <trkpt lat="46.94389" lon="5.88038">
        <ele>346.69</ele>
        <time>2016-06-03T11:38:23Z</time>
      </trkpt>
      <trkpt lat="46.94372" lon="5.88033">
        <ele>337.56</ele>
        <time>2016-06-03T11:38:39Z</time>
      </trkpt>
      <trkpt lat="46.94363" lon="5.8803">
        <ele>332.75</ele>
        <time>2016-06-03T11:38:47Z</time>
      </trkpt>
      <trkpt lat="46.94349" lon="5.88016">
        <ele>331.79</ele>
        <time>2016-06-03T11:39:00Z</time>
      </trkpt>
      <trkpt lat="46.94338" lon="5.88003">
        <ele>328.43</ele>
        <time>2016-06-03T11:39:15Z</time>
      </trkpt>
      <trkpt lat="46.94332" lon="5.87998">
        <ele>333.71</ele>
        <time>2016-06-03T11:39:39Z</time>
      </trkpt>
      <trkpt lat="46.94316" lon="5.87986">
        <ele>335.64</ele>
        <time>2016-06-03T11:39:53Z</time>
      </trkpt>
      <trkpt lat="46.94303" lon="5.87981">
        <ele>335.16</ele>
        <time>2016-06-03T11:40:08Z</time>
      </trkpt>
      <trkpt lat="46.94299" lon="5.87982">
        <ele>336.12</ele>
        <time>2016-06-03T11:40:23Z</time>
      </trkpt>
      <trkpt lat="46.94297" lon="5.87982">
        <ele>337.08</ele>
        <time>2016-06-03T11:40:36Z</time>
      </trkpt>
      <trkpt lat="46.94294" lon="5.87978">
        <ele>337.56</ele>
        <time>2016-06-03T11:40:41Z</time>
      </trkpt>
      <trkpt lat="46.94289" lon="5.8797">
        <ele>337.08</ele>
        <time>2016-06-03T11:40:50Z</time>
      </trkpt>
      <trkpt lat="46.94281" lon="5.87961">
        <ele>337.08</ele>
        <time>2016-06-03T11:40:55Z</time>
      </trkpt>
      <trkpt lat="46.94269" lon="5.87946">
        <ele>335.64</ele>
        <time>2016-06-03T11:41:05Z</time>
      </trkpt>
      <trkpt lat="46.94257" lon="5.87943">
        <ele>333.71</ele>
        <time>2016-06-03T11:41:16Z</time>
      </trkpt>
      <trkpt lat="46.94255" lon="5.87944">
        <ele>335.16</ele>
        <time>2016-06-03T11:41:18Z</time>
      </trkpt>
      <trkpt lat="46.94242" lon="5.87944">
        <ele>337.56</ele>
        <time>2016-06-03T11:41:28Z</time>
      </trkpt>
      <trkpt lat="46.94236" lon="5.87943">
        <ele>341.41</ele>
        <time>2016-06-03T11:41:41Z</time>
      </trkpt>
      <trkpt lat="46.94237" lon="5.87946">
        <ele>345.25</ele>
        <time>2016-06-03T11:42:05Z</time>
      </trkpt>
      <trkpt lat="46.94237" lon="5.87947">
        <ele>351.98</ele>
        <time>2016-06-03T11:42:29Z</time>
      </trkpt>
      <trkpt lat="46.94233" lon="5.87943">
        <ele>352.46</ele>
        <time>2016-06-03T11:42:40Z</time>
      </trkpt>
      <trkpt lat="46.94219" lon="5.87951">
        <ele>351.98</ele>
        <time>2016-06-03T11:43:01Z</time>
      </trkpt>
      <trkpt lat="46.94208" lon="5.87947">
        <ele>351.02</ele>
        <time>2016-06-03T11:43:08Z</time>
      </trkpt>
      <trkpt lat="46.94196" lon="5.87939">
        <ele>347.17</ele>
        <time>2016-06-03T11:43:19Z</time>
      </trkpt>
      <trkpt lat="46.9419" lon="5.87925">
        <ele>349.1</ele>
        <time>2016-06-03T11:43:22Z</time>
      </trkpt>
      <trkpt lat="46.94187" lon="5.87922">
        <ele>349.58</ele>
        <time>2016-06-03T11:43:24Z</time>
      </trkpt>
      <trkpt lat="46.94179" lon="5.87922">
        <ele>347.65</ele>
        <time>2016-06-03T11:43:32Z</time>
      </trkpt>
      <trkpt lat="46.94167" lon="5.87927">
        <ele>343.33</ele>
        <time>2016-06-03T11:43:47Z</time>
      </trkpt>
      <trkpt lat="46.94155" lon="5.87925">
        <ele>338.04</ele>
        <time>2016-06-03T11:44:01Z</time>
      </trkpt>
      <trkpt lat="46.94138" lon="5.87912">
        <ele>339.48</ele>
        <time>2016-06-03T11:44:13Z</time>
      </trkpt>
      <trkpt lat="46.9413" lon="5.87906">
        <ele>345.73</ele>
        <time>2016-06-03T11:44:22Z</time>
      </trkpt>
      <trkpt lat="46.94128" lon="5.87906">
        <ele>346.21</ele>
        <time>2016-06-03T11:44:24Z</time>
      </trkpt>
      <trkpt lat="46.94116" lon="5.87908">
        <ele>345.73</ele>
        <time>2016-06-03T11:44:37Z</time>
      </trkpt>
      <trkpt lat="46.94097" lon="5.87896">
        <ele>358.23</ele>
        <time>2016-06-03T11:44:50Z</time>
      </trkpt>
      <trkpt lat="46.94088" lon="5.87893">
        <ele>360.15</ele>
        <time>2016-06-03T11:45:02Z</time>
      </trkpt>
      <trkpt lat="46.94091" lon="5.87899">
        <ele>356.31</ele>
        <time>2016-06-03T11:45:12Z</time>
      </trkpt>
      <trkpt lat="46.94092" lon="5.87904">
        <ele>354.86</ele>
        <time>2016-06-03T11:45:16Z</time>
      </trkpt>
      <trkpt lat="46.9409" lon="5.87918">
        <ele>352.94</ele>
        <time>2016-06-03T11:45:26Z</time>
      </trkpt>
      <trkpt lat="46.94091" lon="5.8792">
        <ele>354.38</ele>
        <time>2016-06-03T11:45:42Z</time>
      </trkpt>
      <trkpt lat="46.94092" lon="5.87922">
        <ele>354.38</ele>
        <time>2016-06-03T11:45:50Z</time>
      </trkpt>
      <trkpt lat="46.94094" lon="5.87924">
        <ele>354.86</ele>
        <time>2016-06-03T11:45:53Z</time>
      </trkpt>
      <trkpt lat="46.94098" lon="5.87932">
        <ele>354.86</ele>
        <time>2016-06-03T11:45:59Z</time>
      </trkpt>
      <trkpt lat="46.94098" lon="5.87936">
        <ele>355.34</ele>
        <time>2016-06-03T11:46:02Z</time>
      </trkpt>
      <trkpt lat="46.9411" lon="5.87937">
        <ele>359.19</ele>
        <time>2016-06-03T11:46:09Z</time>
      </trkpt>
      <trkpt lat="46.94127" lon="5.87943">
        <ele>362.55</ele>
        <time>2016-06-03T11:46:22Z</time>
      </trkpt>
      <trkpt lat="46.9414" lon="5.87953">
        <ele>368.32</ele>
        <time>2016-06-03T11:46:32Z</time>
      </trkpt>
      <trkpt lat="46.9414" lon="5.87968">
        <ele>364.96</ele>
        <time>2016-06-03T11:46:45Z</time>
      </trkpt>
      <trkpt lat="46.9414" lon="5.87984">
        <ele>363.04</ele>
        <time>2016-06-03T11:46:57Z</time>
      </trkpt>
      <trkpt lat="46.94146" lon="5.87996">
        <ele>362.55</ele>
        <time>2016-06-03T11:47:11Z</time>
      </trkpt>
      <trkpt lat="46.9416" lon="5.88006">
        <ele>364.96</ele>
        <time>2016-06-03T11:47:22Z</time>
      </trkpt>
      <trkpt lat="46.94169" lon="5.88015">
        <ele>368.32</ele>
        <time>2016-06-03T11:47:33Z</time>
      </trkpt>
      <trkpt lat="46.94172" lon="5.88026">
        <ele>369.28</ele>
        <time>2016-06-03T11:47:43Z</time>
      </trkpt>
      <trkpt lat="46.94175" lon="5.88042">
        <ele>370.24</ele>
        <time>2016-06-03T11:47:57Z</time>
      </trkpt>
      <trkpt lat="46.94175" lon="5.88046">
        <ele>370.24</ele>
        <time>2016-06-03T11:48:01Z</time>
      </trkpt>
      <trkpt lat="46.94179" lon="5.88059">
        <ele>369.76</ele>
        <time>2016-06-03T11:48:13Z</time>
      </trkpt>
      <trkpt lat="46.9418" lon="5.88061">
        <ele>370.24</ele>
        <time>2016-06-03T11:48:15Z</time>
      </trkpt>
      <trkpt lat="46.94186" lon="5.88071">
        <ele>372.17</ele>
        <time>2016-06-03T11:48:28Z</time>
      </trkpt>
      <trkpt lat="46.94201" lon="5.88067">
        <ele>376.97</ele>
        <time>2016-06-03T11:48:48Z</time>
      </trkpt>
      <trkpt lat="46.94204" lon="5.88069">
        <ele>377.94</ele>
        <time>2016-06-03T11:49:08Z</time>
      </trkpt>
      <trkpt lat="46.94211" lon="5.88077">
        <ele>377.94</ele>
        <time>2016-06-03T11:49:19Z</time>
      </trkpt>
      <trkpt lat="46.94216" lon="5.88085">
        <ele>379.86</ele>
        <time>2016-06-03T11:49:32Z</time>
      </trkpt>
      <trkpt lat="46.94214" lon="5.88093">
        <ele>380.82</ele>
        <time>2016-06-03T11:49:39Z</time>
      </trkpt>
      <trkpt lat="46.9421" lon="5.88105">
        <ele>382.74</ele>
        <time>2016-06-03T11:49:52Z</time>
      </trkpt>
      <trkpt lat="46.94204" lon="5.88116">
        <ele>385.63</ele>
        <time>2016-06-03T11:50:00Z</time>
      </trkpt>
      <trkpt lat="46.94196" lon="5.88128">
        <ele>389.95</ele>
        <time>2016-06-03T11:50:13Z</time>
      </trkpt>
      <trkpt lat="46.94186" lon="5.88133">
        <ele>392.36</ele>
        <time>2016-06-03T11:50:25Z</time>
      </trkpt>
      <trkpt lat="46.94176" lon="5.88134">
        <ele>392.36</ele>
        <time>2016-06-03T11:50:39Z</time>
      </trkpt>
      <trkpt lat="46.94168" lon="5.88132">
        <ele>392.84</ele>
        <time>2016-06-03T11:50:51Z</time>
      </trkpt>
      <trkpt lat="46.9416" lon="5.88129">
        <ele>394.76</ele>
        <time>2016-06-03T11:51:03Z</time>
      </trkpt>
      <trkpt lat="46.94153" lon="5.88121">
        <ele>396.2</ele>
        <time>2016-06-03T11:51:15Z</time>
      </trkpt>
      <trkpt lat="46.94143" lon="5.88115">
        <ele>396.2</ele>
        <time>2016-06-03T11:51:28Z</time>
      </trkpt>
      <trkpt lat="46.94132" lon="5.88109">
        <ele>397.16</ele>
        <time>2016-06-03T11:51:41Z</time>
      </trkpt>
      <trkpt lat="46.94122" lon="5.88103">
        <ele>399.57</ele>
        <time>2016-06-03T11:51:53Z</time>
      </trkpt>
      <trkpt lat="46.94108" lon="5.88095">
        <ele>400.53</ele>
        <time>2016-06-03T11:52:07Z</time>
      </trkpt>
      <trkpt lat="46.94096" lon="5.88086">
        <ele>400.05</ele>
        <time>2016-06-03T11:52:21Z</time>
      </trkpt>
      <trkpt lat="46.94084" lon="5.88078">
        <ele>399.57</ele>
        <time>2016-06-03T11:52:34Z</time>
      </trkpt>
      <trkpt lat="46.94073" lon="5.88073">
        <ele>398.12</ele>
        <time>2016-06-03T11:52:42Z</time>
      </trkpt>
      <trkpt lat="46.94057" lon="5.88062">
        <ele>394.76</ele>
        <time>2016-06-03T11:52:57Z</time>
      </trkpt>
      <trkpt lat="46.94041" lon="5.88058">
        <ele>393.32</ele>
        <time>2016-06-03T11:53:11Z</time>
      </trkpt>
      <trkpt lat="46.94026" lon="5.8805">
        <ele>390.91</ele>
        <time>2016-06-03T11:53:25Z</time>
      </trkpt>
      <trkpt lat="46.94013" lon="5.88047">
        <ele>388.03</ele>
        <time>2016-06-03T11:53:37Z</time>
      </trkpt>
      <trkpt lat="46.94011" lon="5.88047">
        <ele>388.03</ele>
        <time>2016-06-03T11:53:38Z</time>
      </trkpt>
      <trkpt lat="46.94001" lon="5.88044">
        <ele>386.59</ele>
        <time>2016-06-03T11:53:48Z</time>
      </trkpt>
      <trkpt lat="46.93987" lon="5.88037">
        <ele>385.15</ele>
        <time>2016-06-03T11:54:02Z</time>
      </trkpt>
      <trkpt lat="46.9397" lon="5.88033">
        <ele>388.51</ele>
        <time>2016-06-03T11:54:16Z</time>
      </trkpt>
      <trkpt lat="46.93954" lon="5.8803">
        <ele>393.32</ele>
        <time>2016-06-03T11:54:31Z</time>
      </trkpt>
      <trkpt lat="46.93938" lon="5.88023">
        <ele>392.84</ele>
        <time>2016-06-03T11:54:46Z</time>
      </trkpt>
      <trkpt lat="46.93937" lon="5.88022">
        <ele>392.84</ele>
        <time>2016-06-03T11:54:47Z</time>
      </trkpt>
      <trkpt lat="46.93923" lon="5.88016">
        <ele>391.39</ele>
        <time>2016-06-03T11:55:00Z</time>
      </trkpt>
      <trkpt lat="46.93909" lon="5.88013">
        <ele>388.51</ele>
        <time>2016-06-03T11:55:12Z</time>
      </trkpt>
      <trkpt lat="46.93897" lon="5.88012">
        <ele>385.63</ele>
        <time>2016-06-03T11:55:22Z</time>
      </trkpt>
      <trkpt lat="46.93882" lon="5.88009">
        <ele>382.74</ele>
        <time>2016-06-03T11:55:36Z</time>
      </trkpt>
      <trkpt lat="46.93871" lon="5.88007">
        <ele>384.66</ele>
        <time>2016-06-03T11:55:44Z</time>
      </trkpt>
      <trkpt lat="46.93866" lon="5.88006">
        <ele>384.66</ele>
        <time>2016-06-03T11:55:56Z</time>
      </trkpt>
      <trkpt lat="46.93859" lon="5.88005">
        <ele>385.15</ele>
        <time>2016-06-03T11:56:20Z</time>
      </trkpt>
      <trkpt lat="46.93841" lon="5.88004">
        <ele>386.59</ele>
        <time>2016-06-03T11:56:35Z</time>
      </trkpt>
      <trkpt lat="46.93838" lon="5.88004">
        <ele>387.55</ele>
        <time>2016-06-03T11:56:39Z</time>
      </trkpt>
      <trkpt lat="46.93832" lon="5.88">
        <ele>388.03</ele>
        <time>2016-06-03T11:56:43Z</time>
      </trkpt>
      <trkpt lat="46.93815" lon="5.87988">
        <ele>394.28</ele>
        <time>2016-06-03T11:57:00Z</time>
      </trkpt>
      <trkpt lat="46.93804" lon="5.87983">
        <ele>394.76</ele>
        <time>2016-06-03T11:57:12Z</time>
      </trkpt>
      <trkpt lat="46.93793" lon="5.87976">
        <ele>392.84</ele>
        <time>2016-06-03T11:57:23Z</time>
      </trkpt>
      <trkpt lat="46.93786" lon="5.87968">
        <ele>392.84</ele>
        <time>2016-06-03T11:57:28Z</time>
      </trkpt>
      <trkpt lat="46.93773" lon="5.87964">
        <ele>392.84</ele>
        <time>2016-06-03T11:57:41Z</time>
      </trkpt>
      <trkpt lat="46.93756" lon="5.87964">
        <ele>393.32</ele>
        <time>2016-06-03T11:57:57Z</time>
      </trkpt>
      <trkpt lat="46.9375" lon="5.87967">
        <ele>393.8</ele>
        <time>2016-06-03T11:58:04Z</time>
      </trkpt>
      <trkpt lat="46.9374" lon="5.87971">
        <ele>395.72</ele>
        <time>2016-06-03T11:58:16Z</time>
      </trkpt>
      <trkpt lat="46.93714" lon="5.87977">
        <ele>401.01</ele>
        <time>2016-06-03T11:58:34Z</time>
      </trkpt>
      <trkpt lat="46.93708" lon="5.87977">
        <ele>402.93</ele>
        <time>2016-06-03T11:58:39Z</time>
      </trkpt>
      <trkpt lat="46.93704" lon="5.87976">
        <ele>403.89</ele>
        <time>2016-06-03T11:58:42Z</time>
      </trkpt>
      <trkpt lat="46.93696" lon="5.8797">
        <ele>405.81</ele>
        <time>2016-06-03T11:58:50Z</time>
      </trkpt>
      <trkpt lat="46.93694" lon="5.87968">
        <ele>406.29</ele>
        <time>2016-06-03T11:58:52Z</time>
      </trkpt>
      <trkpt lat="46.93685" lon="5.87966">
        <ele>408.7</ele>
        <time>2016-06-03T11:59:04Z</time>
      </trkpt>
      <trkpt lat="46.93671" lon="5.87962">
        <ele>408.22</ele>
        <time>2016-06-03T11:59:17Z</time>
      </trkpt>
      <trkpt lat="46.93665" lon="5.87963">
        <ele>410.14</ele>
        <time>2016-06-03T11:59:29Z</time>
      </trkpt>
      <trkpt lat="46.93661" lon="5.8796">
        <ele>408.22</ele>
        <time>2016-06-03T11:59:43Z</time>
      </trkpt>
      <trkpt lat="46.93657" lon="5.87955">
        <ele>405.81</ele>
        <time>2016-06-03T12:00:04Z</time>
      </trkpt>
      <trkpt lat="46.93651" lon="5.87952">
        <ele>401.01</ele>
        <time>2016-06-03T12:00:18Z</time>
      </trkpt>
      <trkpt lat="46.93644" lon="5.8795">
        <ele>399.08</ele>
        <time>2016-06-03T12:00:31Z</time>
      </trkpt>
      <trkpt lat="46.93631" lon="5.87948">
        <ele>398.12</ele>
        <time>2016-06-03T12:00:43Z</time>
      </trkpt>
      <trkpt lat="46.93626" lon="5.87949">
        <ele>397.16</ele>
        <time>2016-06-03T12:00:47Z</time>
      </trkpt>
      <trkpt lat="46.93614" lon="5.87959">
        <ele>397.16</ele>
        <time>2016-06-03T12:01:00Z</time>
      </trkpt>
      <trkpt lat="46.93613" lon="5.8796">
        <ele>397.16</ele>
        <time>2016-06-03T12:01:01Z</time>
      </trkpt>
      <trkpt lat="46.93603" lon="5.87977">
        <ele>394.28</ele>
        <time>2016-06-03T12:01:15Z</time>
      </trkpt>
      <trkpt lat="46.93594" lon="5.87984">
        <ele>395.24</ele>
        <time>2016-06-03T12:01:26Z</time>
      </trkpt>
      <trkpt lat="46.93583" lon="5.8799">
        <ele>397.16</ele>
        <time>2016-06-03T12:01:38Z</time>
      </trkpt>
      <trkpt lat="46.93571" lon="5.88">
        <ele>396.68</ele>
        <time>2016-06-03T12:01:51Z</time>
      </trkpt>
      <trkpt lat="46.9356" lon="5.88006">
        <ele>394.76</ele>
        <time>2016-06-03T12:02:03Z</time>
      </trkpt>
      <trkpt lat="46.93557" lon="5.88009">
        <ele>393.32</ele>
        <time>2016-06-03T12:02:06Z</time>
      </trkpt>
      <trkpt lat="46.93552" lon="5.88011">
        <ele>392.84</ele>
        <time>2016-06-03T12:02:11Z</time>
      </trkpt>
      <trkpt lat="46.93549" lon="5.88014">
        <ele>391.39</ele>
        <time>2016-06-03T12:02:15Z</time>
      </trkpt>
      <trkpt lat="46.93547" lon="5.88015">
        <ele>391.39</ele>
        <time>2016-06-03T12:02:18Z</time>
      </trkpt>
      <trkpt lat="46.93536" lon="5.88017">
        <ele>388.99</ele>
        <time>2016-06-03T12:02:29Z</time>
      </trkpt>
      <trkpt lat="46.93524" lon="5.88024">
        <ele>385.15</ele>
        <time>2016-06-03T12:02:42Z</time>
      </trkpt>
      <trkpt lat="46.93523" lon="5.88027">
        <ele>385.15</ele>
        <time>2016-06-03T12:02:46Z</time>
      </trkpt>
      <trkpt lat="46.93508" lon="5.88035">
        <ele>381.3</ele>
        <time>2016-06-03T12:03:02Z</time>
      </trkpt>
      <trkpt lat="46.93494" lon="5.88041">
        <ele>385.63</ele>
        <time>2016-06-03T12:03:16Z</time>
      </trkpt>
      <trkpt lat="46.93484" lon="5.88046">
        <ele>387.55</ele>
        <time>2016-06-03T12:03:31Z</time>
      </trkpt>
      <trkpt lat="46.93483" lon="5.88047">
        <ele>388.03</ele>
        <time>2016-06-03T12:03:32Z</time>
      </trkpt>
      <trkpt lat="46.93478" lon="5.88053">
        <ele>389.95</ele>
        <time>2016-06-03T12:03:37Z</time>
      </trkpt>
      <trkpt lat="46.93473" lon="5.88056">
        <ele>391.87</ele>
        <time>2016-06-03T12:03:42Z</time>
      </trkpt>
      <trkpt lat="46.93455" lon="5.88059">
        <ele>396.2</ele>
        <time>2016-06-03T12:03:57Z</time>
      </trkpt>
      <trkpt lat="46.9345" lon="5.88063">
        <ele>396.2</ele>
        <time>2016-06-03T12:04:03Z</time>
      </trkpt>
      <trkpt lat="46.93436" lon="5.88068">
        <ele>392.84</ele>
        <time>2016-06-03T12:04:17Z</time>
      </trkpt>
      <trkpt lat="46.93436" lon="5.88069">
        <ele>392.84</ele>
        <time>2016-06-03T12:04:18Z</time>
      </trkpt>
      <trkpt lat="46.93423" lon="5.88076">
        <ele>386.11</ele>
        <time>2016-06-03T12:04:33Z</time>
      </trkpt>
      <trkpt lat="46.93418" lon="5.88075">
        <ele>383.22</ele>
        <time>2016-06-03T12:04:39Z</time>
      </trkpt>
      <trkpt lat="46.93415" lon="5.88075">
        <ele>383.7</ele>
        <time>2016-06-03T12:04:41Z</time>
      </trkpt>
      <trkpt lat="46.93401" lon="5.88075">
        <ele>385.15</ele>
        <time>2016-06-03T12:04:53Z</time>
      </trkpt>
      <trkpt lat="46.93388" lon="5.88078">
        <ele>386.11</ele>
        <time>2016-06-03T12:05:04Z</time>
      </trkpt>
      <trkpt lat="46.93373" lon="5.88082">
        <ele>386.59</ele>
        <time>2016-06-03T12:05:18Z</time>
      </trkpt>
      <trkpt lat="46.93358" lon="5.88087">
        <ele>384.66</ele>
        <time>2016-06-03T12:05:33Z</time>
      </trkpt>
      <trkpt lat="46.93346" lon="5.88101">
        <ele>382.26</ele>
        <time>2016-06-03T12:05:50Z</time>
      </trkpt>
      <trkpt lat="46.93336" lon="5.88112">
        <ele>377.94</ele>
        <time>2016-06-03T12:06:02Z</time>
      </trkpt>
      <trkpt lat="46.93325" lon="5.88124">
        <ele>373.61</ele>
        <time>2016-06-03T12:06:14Z</time>
      </trkpt>
      <trkpt lat="46.9331" lon="5.88135">
        <ele>374.57</ele>
        <time>2016-06-03T12:06:29Z</time>
      </trkpt>
      <trkpt lat="46.93297" lon="5.88149">
        <ele>376.97</ele>
        <time>2016-06-03T12:06:44Z</time>
      </trkpt>
      <trkpt lat="46.93292" lon="5.88158">
        <ele>376.49</ele>
        <time>2016-06-03T12:06:51Z</time>
      </trkpt>
      <trkpt lat="46.93288" lon="5.88168">
        <ele>373.61</ele>
        <time>2016-06-03T12:07:01Z</time>
      </trkpt>
      <trkpt lat="46.9328" lon="5.88186">
        <ele>373.61</ele>
        <time>2016-06-03T12:07:13Z</time>
      </trkpt>
      <trkpt lat="46.93275" lon="5.882">
        <ele>376.01</ele>
        <time>2016-06-03T12:07:22Z</time>
      </trkpt>
      <trkpt lat="46.93269" lon="5.88215">
        <ele>378.42</ele>
        <time>2016-06-03T12:07:32Z</time>
      </trkpt>
      <trkpt lat="46.93266" lon="5.88235">
        <ele>377.45</ele>
        <time>2016-06-03T12:07:46Z</time>
      </trkpt>
      <trkpt lat="46.93273" lon="5.88243">
        <ele>375.05</ele>
        <time>2016-06-03T12:07:57Z</time>
      </trkpt>
      <trkpt lat="46.93283" lon="5.88255">
        <ele>377.45</ele>
        <time>2016-06-03T12:08:10Z</time>
      </trkpt>
      <trkpt lat="46.93286" lon="5.88267">
        <ele>378.42</ele>
        <time>2016-06-03T12:08:21Z</time>
      </trkpt>
      <trkpt lat="46.93285" lon="5.88272">
        <ele>379.38</ele>
        <time>2016-06-03T12:08:24Z</time>
      </trkpt>
      <trkpt lat="46.93282" lon="5.88291">
        <ele>382.74</ele>
        <time>2016-06-03T12:08:36Z</time>
      </trkpt>
      <trkpt lat="46.93281" lon="5.88304">
        <ele>379.38</ele>
        <time>2016-06-03T12:08:47Z</time>
      </trkpt>
      <trkpt lat="46.93279" lon="5.88312">
        <ele>377.45</ele>
        <time>2016-06-03T12:08:55Z</time>
      </trkpt>
      <trkpt lat="46.93273" lon="5.88331">
        <ele>376.01</ele>
        <time>2016-06-03T12:09:10Z</time>
      </trkpt>
      <trkpt lat="46.9327" lon="5.88334">
        <ele>376.01</ele>
        <time>2016-06-03T12:09:13Z</time>
      </trkpt>
      <trkpt lat="46.93266" lon="5.88349">
        <ele>374.57</ele>
        <time>2016-06-03T12:09:26Z</time>
      </trkpt>
      <trkpt lat="46.93261" lon="5.8836">
        <ele>377.94</ele>
        <time>2016-06-03T12:09:37Z</time>
      </trkpt>
      <trkpt lat="46.93256" lon="5.88372">
        <ele>379.38</ele>
        <time>2016-06-03T12:09:48Z</time>
      </trkpt>
      <trkpt lat="46.93255" lon="5.88375">
        <ele>379.86</ele>
        <time>2016-06-03T12:09:50Z</time>
      </trkpt>
      <trkpt lat="46.93253" lon="5.8838">
        <ele>380.34</ele>
        <time>2016-06-03T12:09:53Z</time>
      </trkpt>
      <trkpt lat="46.93247" lon="5.88393">
        <ele>383.7</ele>
        <time>2016-06-03T12:10:04Z</time>
      </trkpt>
      <trkpt lat="46.93244" lon="5.88408">
        <ele>385.63</ele>
        <time>2016-06-03T12:10:17Z</time>
      </trkpt>
      <trkpt lat="46.93241" lon="5.88421">
        <ele>386.59</ele>
        <time>2016-06-03T12:10:28Z</time>
      </trkpt>
      <trkpt lat="46.93235" lon="5.88436">
        <ele>388.51</ele>
        <time>2016-06-03T12:10:40Z</time>
      </trkpt>
      <trkpt lat="46.93232" lon="5.88448">
        <ele>388.99</ele>
        <time>2016-06-03T12:10:53Z</time>
      </trkpt>
      <trkpt lat="46.9323" lon="5.88452">
        <ele>389.95</ele>
        <time>2016-06-03T12:10:57Z</time>
      </trkpt>
      <trkpt lat="46.93227" lon="5.88465">
        <ele>390.43</ele>
        <time>2016-06-03T12:11:10Z</time>
      </trkpt>
      <trkpt lat="46.93228" lon="5.88481">
        <ele>391.39</ele>
        <time>2016-06-03T12:11:21Z</time>
      </trkpt>
      <trkpt lat="46.93225" lon="5.88496">
        <ele>390.91</ele>
        <time>2016-06-03T12:11:33Z</time>
      </trkpt>
      <trkpt lat="46.93224" lon="5.88508">
        <ele>390.91</ele>
        <time>2016-06-03T12:11:43Z</time>
      </trkpt>
      <trkpt lat="46.9322" lon="5.88525">
        <ele>392.36</ele>
        <time>2016-06-03T12:11:56Z</time>
      </trkpt>
      <trkpt lat="46.9322" lon="5.88538">
        <ele>395.72</ele>
        <time>2016-06-03T12:12:07Z</time>
      </trkpt>
      <trkpt lat="46.9322" lon="5.88545">
        <ele>398.6</ele>
        <time>2016-06-03T12:12:20Z</time>
      </trkpt>
      <trkpt lat="46.93217" lon="5.88563">
        <ele>401.01</ele>
        <time>2016-06-03T12:12:34Z</time>
      </trkpt>
      <trkpt lat="46.93216" lon="5.88576">
        <ele>402.93</ele>
        <time>2016-06-03T12:12:45Z</time>
      </trkpt>
      <trkpt lat="46.93213" lon="5.88589">
        <ele>404.37</ele>
        <time>2016-06-03T12:12:57Z</time>
      </trkpt>
      <trkpt lat="46.93211" lon="5.88601">
        <ele>403.89</ele>
        <time>2016-06-03T12:13:07Z</time>
      </trkpt>
      <trkpt lat="46.93211" lon="5.88615">
        <ele>402.45</ele>
        <time>2016-06-03T12:13:20Z</time>
      </trkpt>
      <trkpt lat="46.9321" lon="5.88637">
        <ele>403.89</ele>
        <time>2016-06-03T12:13:34Z</time>
      </trkpt>
      <trkpt lat="46.93214" lon="5.88653">
        <ele>403.89</ele>
        <time>2016-06-03T12:13:48Z</time>
      </trkpt>
      <trkpt lat="46.93217" lon="5.88665">
        <ele>401.97</ele>
        <time>2016-06-03T12:14:01Z</time>
      </trkpt>
      <trkpt lat="46.9322" lon="5.8868">
        <ele>400.05</ele>
        <time>2016-06-03T12:14:13Z</time>
      </trkpt>
      <trkpt lat="46.93223" lon="5.88692">
        <ele>399.57</ele>
        <time>2016-06-03T12:14:22Z</time>
      </trkpt>
      <trkpt lat="46.93224" lon="5.88699">
        <ele>401.01</ele>
        <time>2016-06-03T12:14:29Z</time>
      </trkpt>
      <trkpt lat="46.93224" lon="5.88715">
        <ele>401.49</ele>
        <time>2016-06-03T12:14:41Z</time>
      </trkpt>
      <trkpt lat="46.93224" lon="5.88716">
        <ele>401.97</ele>
        <time>2016-06-03T12:14:42Z</time>
      </trkpt>
      <trkpt lat="46.93225" lon="5.88721">
        <ele>402.93</ele>
        <time>2016-06-03T12:14:46Z</time>
      </trkpt>
      <trkpt lat="46.93224" lon="5.88739">
        <ele>407.74</ele>
        <time>2016-06-03T12:14:58Z</time>
      </trkpt>
      <trkpt lat="46.93225" lon="5.88745">
        <ele>409.66</ele>
        <time>2016-06-03T12:15:03Z</time>
      </trkpt>
      <trkpt lat="46.93228" lon="5.8876">
        <ele>412.54</ele>
        <time>2016-06-03T12:15:14Z</time>
      </trkpt>
      <trkpt lat="46.93231" lon="5.88767">
        <ele>413.98</ele>
        <time>2016-06-03T12:15:21Z</time>
      </trkpt>
      <trkpt lat="46.93235" lon="5.88779">
        <ele>416.39</ele>
        <time>2016-06-03T12:15:33Z</time>
      </trkpt>
      <trkpt lat="46.93239" lon="5.88793">
        <ele>417.83</ele>
        <time>2016-06-03T12:15:45Z</time>
      </trkpt>
      <trkpt lat="46.93245" lon="5.88806">
        <ele>417.83</ele>
        <time>2016-06-03T12:15:58Z</time>
      </trkpt>
      <trkpt lat="46.93246" lon="5.8882">
        <ele>418.79</ele>
        <time>2016-06-03T12:16:10Z</time>
      </trkpt>
      <trkpt lat="46.93244" lon="5.88834">
        <ele>419.75</ele>
        <time>2016-06-03T12:16:21Z</time>
      </trkpt>
      <trkpt lat="46.9324" lon="5.88849">
        <ele>419.27</ele>
        <time>2016-06-03T12:16:33Z</time>
      </trkpt>
      <trkpt lat="46.9324" lon="5.88851">
        <ele>419.27</ele>
        <time>2016-06-03T12:16:36Z</time>
      </trkpt>
      <trkpt lat="46.93237" lon="5.88864">
        <ele>419.27</ele>
        <time>2016-06-03T12:16:47Z</time>
      </trkpt>
      <trkpt lat="46.93235" lon="5.88879">
        <ele>421.19</ele>
        <time>2016-06-03T12:17:00Z</time>
      </trkpt>
      <trkpt lat="46.93233" lon="5.88887">
        <ele>422.64</ele>
        <time>2016-06-03T12:17:06Z</time>
      </trkpt>
      <trkpt lat="46.9323" lon="5.88904">
        <ele>425.52</ele>
        <time>2016-06-03T12:17:19Z</time>
      </trkpt>
      <trkpt lat="46.93228" lon="5.88921">
        <ele>426</ele>
        <time>2016-06-03T12:17:32Z</time>
      </trkpt>
      <trkpt lat="46.93226" lon="5.88929">
        <ele>424.56</ele>
        <time>2016-06-03T12:17:44Z</time>
      </trkpt>
      <trkpt lat="46.93225" lon="5.88931">
        <ele>425.52</ele>
        <time>2016-06-03T12:17:57Z</time>
      </trkpt>
      <trkpt lat="46.93221" lon="5.88934">
        <ele>426.96</ele>
        <time>2016-06-03T12:18:12Z</time>
      </trkpt>
      <trkpt lat="46.93222" lon="5.88939">
        <ele>426</ele>
        <time>2016-06-03T12:18:16Z</time>
      </trkpt>
      <trkpt lat="46.93223" lon="5.88952">
        <ele>426</ele>
        <time>2016-06-03T12:18:27Z</time>
      </trkpt>
      <trkpt lat="46.93224" lon="5.88956">
        <ele>426</ele>
        <time>2016-06-03T12:18:29Z</time>
      </trkpt>
      <trkpt lat="46.93226" lon="5.88961">
        <ele>426.48</ele>
        <time>2016-06-03T12:18:33Z</time>
      </trkpt>
      <trkpt lat="46.93227" lon="5.8897">
        <ele>426.96</ele>
        <time>2016-06-03T12:18:40Z</time>
      </trkpt>
      <trkpt lat="46.93231" lon="5.88986">
        <ele>429.85</ele>
        <time>2016-06-03T12:18:52Z</time>
      </trkpt>
      <trkpt lat="46.93235" lon="5.88995">
        <ele>430.33</ele>
        <time>2016-06-03T12:19:01Z</time>
      </trkpt>
      <trkpt lat="46.9324" lon="5.89007">
        <ele>430.33</ele>
        <time>2016-06-03T12:19:12Z</time>
      </trkpt>
      <trkpt lat="46.93238" lon="5.89017">
        <ele>431.77</ele>
        <time>2016-06-03T12:19:19Z</time>
      </trkpt>
      <trkpt lat="46.93235" lon="5.89026">
        <ele>432.25</ele>
        <time>2016-06-03T12:19:27Z</time>
      </trkpt>
      <trkpt lat="46.93232" lon="5.89035">
        <ele>433.69</ele>
        <time>2016-06-03T12:19:33Z</time>
      </trkpt>
      <trkpt lat="46.93228" lon="5.89046">
        <ele>435.13</ele>
        <time>2016-06-03T12:19:48Z</time>
      </trkpt>
      <trkpt lat="46.93225" lon="5.89054">
        <ele>432.73</ele>
        <time>2016-06-03T12:19:57Z</time>
      </trkpt>
      <trkpt lat="46.9322" lon="5.8907">
        <ele>434.65</ele>
        <time>2016-06-03T12:20:08Z</time>
      </trkpt>
      <trkpt lat="46.93216" lon="5.8908">
        <ele>434.65</ele>
        <time>2016-06-03T12:20:19Z</time>
      </trkpt>
      <trkpt lat="46.9321" lon="5.8909">
        <ele>431.77</ele>
        <time>2016-06-03T12:20:31Z</time>
      </trkpt>
      <trkpt lat="46.93202" lon="5.89097">
        <ele>433.21</ele>
        <time>2016-06-03T12:20:42Z</time>
      </trkpt>
      <trkpt lat="46.93192" lon="5.89104">
        <ele>434.17</ele>
        <time>2016-06-03T12:20:54Z</time>
      </trkpt>
      <trkpt lat="46.93182" lon="5.89107">
        <ele>435.61</ele>
        <time>2016-06-03T12:21:06Z</time>
      </trkpt>
      <trkpt lat="46.93169" lon="5.8911">
        <ele>438.02</ele>
        <time>2016-06-03T12:21:19Z</time>
      </trkpt>
      <trkpt lat="46.93156" lon="5.89118">
        <ele>442.34</ele>
        <time>2016-06-03T12:21:32Z</time>
      </trkpt>
      <trkpt lat="46.93151" lon="5.89128">
        <ele>447.15</ele>
        <time>2016-06-03T12:21:44Z</time>
      </trkpt>
      <trkpt lat="46.93151" lon="5.89128">
        <ele>447.15</ele>
        <time>2016-06-03T12:21:45Z</time>
      </trkpt>
      <trkpt lat="46.93149" lon="5.89141">
        <ele>448.59</ele>
        <time>2016-06-03T12:21:57Z</time>
      </trkpt>
      <trkpt lat="46.93148" lon="5.89143">
        <ele>448.11</ele>
        <time>2016-06-03T12:21:59Z</time>
      </trkpt>
      <trkpt lat="46.9315" lon="5.89157">
        <ele>449.07</ele>
        <time>2016-06-03T12:22:10Z</time>
      </trkpt>
      <trkpt lat="46.9315" lon="5.89159">
        <ele>449.07</ele>
        <time>2016-06-03T12:22:11Z</time>
      </trkpt>
      <trkpt lat="46.9315" lon="5.89164">
        <ele>449.07</ele>
        <time>2016-06-03T12:22:15Z</time>
      </trkpt>
      <trkpt lat="46.93149" lon="5.89183">
        <ele>451.48</ele>
        <time>2016-06-03T12:22:28Z</time>
      </trkpt>
      <trkpt lat="46.9315" lon="5.892">
        <ele>451.48</ele>
        <time>2016-06-03T12:22:42Z</time>
      </trkpt>
      <trkpt lat="46.93153" lon="5.89216">
        <ele>451</ele>
        <time>2016-06-03T12:22:56Z</time>
      </trkpt>
      <trkpt lat="46.93149" lon="5.89231">
        <ele>451.48</ele>
        <time>2016-06-03T12:23:09Z</time>
      </trkpt>
      <trkpt lat="46.93152" lon="5.89242">
        <ele>450.03</ele>
        <time>2016-06-03T12:23:20Z</time>
      </trkpt>
      <trkpt lat="46.9316" lon="5.89265">
        <ele>451.96</ele>
        <time>2016-06-03T12:23:34Z</time>
      </trkpt>
      <trkpt lat="46.93167" lon="5.89275">
        <ele>453.88</ele>
        <time>2016-06-03T12:23:48Z</time>
      </trkpt>
      <trkpt lat="46.93173" lon="5.89284">
        <ele>455.32</ele>
        <time>2016-06-03T12:24:02Z</time>
      </trkpt>
      <trkpt lat="46.93175" lon="5.89287">
        <ele>456.28</ele>
        <time>2016-06-03T12:24:25Z</time>
      </trkpt>
      <trkpt lat="46.93185" lon="5.89302">
        <ele>459.17</ele>
        <time>2016-06-03T12:24:38Z</time>
      </trkpt>
      <trkpt lat="46.93195" lon="5.89307">
        <ele>460.13</ele>
        <time>2016-06-03T12:24:50Z</time>
      </trkpt>
      <trkpt lat="46.93204" lon="5.89314">
        <ele>461.09</ele>
        <time>2016-06-03T12:25:02Z</time>
      </trkpt>
      <trkpt lat="46.93215" lon="5.89323">
        <ele>461.09</ele>
        <time>2016-06-03T12:25:15Z</time>
      </trkpt>
      <trkpt lat="46.93226" lon="5.89328">
        <ele>460.13</ele>
        <time>2016-06-03T12:25:26Z</time>
      </trkpt>
      <trkpt lat="46.93234" lon="5.89333">
        <ele>461.57</ele>
        <time>2016-06-03T12:25:35Z</time>
      </trkpt>
      <trkpt lat="46.93245" lon="5.89341">
        <ele>463.01</ele>
        <time>2016-06-03T12:25:46Z</time>
      </trkpt>
      <trkpt lat="46.93255" lon="5.89352">
        <ele>464.93</ele>
        <time>2016-06-03T12:26:00Z</time>
      </trkpt>
      <trkpt lat="46.93265" lon="5.89366">
        <ele>468.3</ele>
        <time>2016-06-03T12:26:14Z</time>
      </trkpt>
      <trkpt lat="46.93269" lon="5.89384">
        <ele>472.63</ele>
        <time>2016-06-03T12:26:27Z</time>
      </trkpt>
      <trkpt lat="46.93277" lon="5.89399">
        <ele>474.55</ele>
        <time>2016-06-03T12:26:41Z</time>
      </trkpt>
      <trkpt lat="46.93285" lon="5.8941">
        <ele>471.66</ele>
        <time>2016-06-03T12:26:53Z</time>
      </trkpt>
      <trkpt lat="46.93293" lon="5.89418">
        <ele>469.26</ele>
        <time>2016-06-03T12:27:07Z</time>
      </trkpt>
      <trkpt lat="46.93296" lon="5.89424">
        <ele>469.26</ele>
        <time>2016-06-03T12:27:14Z</time>
      </trkpt>
      <trkpt lat="46.93306" lon="5.89443">
        <ele>471.18</ele>
        <time>2016-06-03T12:27:29Z</time>
      </trkpt>
      <trkpt lat="46.9331" lon="5.89453">
        <ele>472.63</ele>
        <time>2016-06-03T12:27:35Z</time>
      </trkpt>
      <trkpt lat="46.93312" lon="5.89458">
        <ele>472.14</ele>
        <time>2016-06-03T12:27:39Z</time>
      </trkpt>
      <trkpt lat="46.9332" lon="5.89472">
        <ele>474.07</ele>
        <time>2016-06-03T12:27:52Z</time>
      </trkpt>
      <trkpt lat="46.93324" lon="5.89477">
        <ele>475.51</ele>
        <time>2016-06-03T12:27:57Z</time>
      </trkpt>
      <trkpt lat="46.93327" lon="5.89481">
        <ele>476.47</ele>
        <time>2016-06-03T12:28:01Z</time>
      </trkpt>
      <trkpt lat="46.93327" lon="5.89486">
        <ele>476.47</ele>
        <time>2016-06-03T12:28:05Z</time>
      </trkpt>
      <trkpt lat="46.93333" lon="5.89502">
        <ele>475.99</ele>
        <time>2016-06-03T12:28:20Z</time>
      </trkpt>
      <trkpt lat="46.93338" lon="5.89517">
        <ele>475.51</ele>
        <time>2016-06-03T12:28:32Z</time>
      </trkpt>
      <trkpt lat="46.93344" lon="5.89531">
        <ele>476.47</ele>
        <time>2016-06-03T12:28:44Z</time>
      </trkpt>
      <trkpt lat="46.93346" lon="5.89536">
        <ele>475.99</ele>
        <time>2016-06-03T12:28:51Z</time>
      </trkpt>
      <trkpt lat="46.93352" lon="5.89546">
        <ele>476.47</ele>
        <time>2016-06-03T12:29:01Z</time>
      </trkpt>
      <trkpt lat="46.9336" lon="5.89555">
        <ele>475.51</ele>
        <time>2016-06-03T12:29:13Z</time>
      </trkpt>
      <trkpt lat="46.93369" lon="5.89562">
        <ele>477.91</ele>
        <time>2016-06-03T12:29:23Z</time>
      </trkpt>
      <trkpt lat="46.9337" lon="5.89563">
        <ele>478.39</ele>
        <time>2016-06-03T12:29:24Z</time>
      </trkpt>
      <trkpt lat="46.93385" lon="5.89565">
        <ele>479.35</ele>
        <time>2016-06-03T12:29:40Z</time>
      </trkpt>
      <trkpt lat="46.93387" lon="5.89563">
        <ele>478.39</ele>
        <time>2016-06-03T12:29:43Z</time>
      </trkpt>
      <trkpt lat="46.93398" lon="5.89557">
        <ele>478.87</ele>
        <time>2016-06-03T12:29:57Z</time>
      </trkpt>
      <trkpt lat="46.93406" lon="5.89547">
        <ele>478.39</ele>
        <time>2016-06-03T12:30:10Z</time>
      </trkpt>
      <trkpt lat="46.93407" lon="5.89543">
        <ele>479.35</ele>
        <time>2016-06-03T12:30:13Z</time>
      </trkpt>
      <trkpt lat="46.93415" lon="5.89529">
        <ele>479.35</ele>
        <time>2016-06-03T12:30:27Z</time>
      </trkpt>
      <trkpt lat="46.93421" lon="5.89517">
        <ele>479.84</ele>
        <time>2016-06-03T12:30:40Z</time>
      </trkpt>
      <trkpt lat="46.93432" lon="5.89505">
        <ele>482.24</ele>
        <time>2016-06-03T12:30:54Z</time>
      </trkpt>
      <trkpt lat="46.93443" lon="5.89499">
        <ele>483.68</ele>
        <time>2016-06-03T12:31:07Z</time>
      </trkpt>
      <trkpt lat="46.93448" lon="5.89497">
        <ele>482.72</ele>
        <time>2016-06-03T12:31:16Z</time>
      </trkpt>
      <trkpt lat="46.93456" lon="5.8949">
        <ele>483.2</ele>
        <time>2016-06-03T12:31:29Z</time>
      </trkpt>
      <trkpt lat="46.9346" lon="5.89479">
        <ele>484.64</ele>
        <time>2016-06-03T12:31:41Z</time>
      </trkpt>
      <trkpt lat="46.93456" lon="5.89474">
        <ele>485.6</ele>
        <time>2016-06-03T12:31:48Z</time>
      </trkpt>
      <trkpt lat="46.93445" lon="5.89466">
        <ele>488.97</ele>
        <time>2016-06-03T12:32:01Z</time>
      </trkpt>
      <trkpt lat="46.93439" lon="5.89461">
        <ele>489.45</ele>
        <time>2016-06-03T12:32:08Z</time>
      </trkpt>
      <trkpt lat="46.93428" lon="5.89452">
        <ele>490.41</ele>
        <time>2016-06-03T12:32:21Z</time>
      </trkpt>
      <trkpt lat="46.93426" lon="5.89444">
        <ele>489.93</ele>
        <time>2016-06-03T12:32:31Z</time>
      </trkpt>
      <trkpt lat="46.93432" lon="5.89432">
        <ele>489.45</ele>
        <time>2016-06-03T12:32:43Z</time>
      </trkpt>
      <trkpt lat="46.93428" lon="5.89427">
        <ele>487.53</ele>
        <time>2016-06-03T12:32:53Z</time>
      </trkpt>
      <trkpt lat="46.93422" lon="5.89422">
        <ele>484.64</ele>
        <time>2016-06-03T12:33:06Z</time>
      </trkpt>
      <trkpt lat="46.93421" lon="5.89415">
        <ele>487.05</ele>
        <time>2016-06-03T12:33:17Z</time>
      </trkpt>
      <trkpt lat="46.93424" lon="5.89421">
        <ele>487.53</ele>
        <time>2016-06-03T12:33:31Z</time>
      </trkpt>
      <trkpt lat="46.93423" lon="5.89424">
        <ele>487.05</ele>
        <time>2016-06-03T12:33:45Z</time>
      </trkpt>
      <trkpt lat="46.9342" lon="5.89424">
        <ele>486.08</ele>
        <time>2016-06-03T12:33:57Z</time>
      </trkpt>
      <trkpt lat="46.93413" lon="5.89424">
        <ele>486.08</ele>
        <time>2016-06-03T12:34:02Z</time>
      </trkpt>
    </trkseg>
  </trk>
</gpx>